<?xml version="1.0" encoding="UTF-8" standalone="no" ?>
<gpx xmlns="http://www.topografix.com/GPX/1/1" xmlns:xsi="http://www.w3.org/2001/XMLSchema-instance" xsi:schemaLocation="http://www.topografix.com/GPX/1/1 http://www.topografix.com/GPX/1/1/gpx.xsd" version="1.1" creator="VisuGPX - https://www.visugpx.com">
  <metadata>
    <name>Ars-en-Ré </name>
  </metadata>
  <trk>
    <name><![CDATA[Ars-en-Ré _1]]></name>
    <trkseg>
      <trkpt lat="46.20791" lon="-1.51533">
        <ele>4.4</ele>
        <time>2025-06-30T07:09:24Z</time>
      </trkpt>
      <trkpt lat="46.20791" lon="-1.51533">
        <ele>4.4</ele>
        <time>2025-06-30T07:09:25Z</time>
      </trkpt>
      <trkpt lat="46.20793" lon="-1.5154">
        <ele>4.2</ele>
        <time>2025-06-30T07:09:32Z</time>
      </trkpt>
      <trkpt lat="46.20794" lon="-1.51542">
        <ele>4.2</ele>
        <time>2025-06-30T07:09:33Z</time>
      </trkpt>
      <trkpt lat="46.20796" lon="-1.51547">
        <ele>4</ele>
        <time>2025-06-30T07:09:35Z</time>
      </trkpt>
      <trkpt lat="46.20799" lon="-1.51555">
        <ele>4</ele>
        <time>2025-06-30T07:09:39Z</time>
      </trkpt>
      <trkpt lat="46.20802" lon="-1.51561">
        <ele>4.2</ele>
        <time>2025-06-30T07:09:43Z</time>
      </trkpt>
      <trkpt lat="46.20804" lon="-1.51561">
        <ele>4.2</ele>
        <time>2025-06-30T07:09:45Z</time>
      </trkpt>
      <trkpt lat="46.20806" lon="-1.5156">
        <ele>4.2</ele>
        <time>2025-06-30T07:09:47Z</time>
      </trkpt>
      <trkpt lat="46.20807" lon="-1.51558">
        <ele>4.2</ele>
        <time>2025-06-30T07:09:48Z</time>
      </trkpt>
      <trkpt lat="46.20809" lon="-1.51555">
        <ele>4</ele>
        <time>2025-06-30T07:09:52Z</time>
      </trkpt>
      <trkpt lat="46.20815" lon="-1.51553">
        <ele>3.8</ele>
        <time>2025-06-30T07:09:58Z</time>
      </trkpt>
      <trkpt lat="46.20817" lon="-1.51549">
        <ele>3.8</ele>
        <time>2025-06-30T07:10:01Z</time>
      </trkpt>
      <trkpt lat="46.20818" lon="-1.51543">
        <ele>3.8</ele>
        <time>2025-06-30T07:10:04Z</time>
      </trkpt>
      <trkpt lat="46.20822" lon="-1.51529">
        <ele>3.8</ele>
        <time>2025-06-30T07:10:12Z</time>
      </trkpt>
      <trkpt lat="46.20822" lon="-1.51528">
        <ele>3.8</ele>
        <time>2025-06-30T07:10:13Z</time>
      </trkpt>
      <trkpt lat="46.20824" lon="-1.51521">
        <ele>3.6</ele>
        <time>2025-06-30T07:10:17Z</time>
      </trkpt>
      <trkpt lat="46.20825" lon="-1.51515">
        <ele>3.4</ele>
        <time>2025-06-30T07:10:20Z</time>
      </trkpt>
      <trkpt lat="46.20827" lon="-1.51506">
        <ele>3.4</ele>
        <time>2025-06-30T07:10:25Z</time>
      </trkpt>
      <trkpt lat="46.20828" lon="-1.51504">
        <ele>3.4</ele>
        <time>2025-06-30T07:10:26Z</time>
      </trkpt>
      <trkpt lat="46.2083" lon="-1.515">
        <ele>3.6</ele>
        <time>2025-06-30T07:10:29Z</time>
      </trkpt>
      <trkpt lat="46.20833" lon="-1.51494">
        <ele>3.4</ele>
        <time>2025-06-30T07:10:33Z</time>
      </trkpt>
      <trkpt lat="46.20834" lon="-1.51493">
        <ele>3.4</ele>
        <time>2025-06-30T07:10:35Z</time>
      </trkpt>
      <trkpt lat="46.20844" lon="-1.5149">
        <ele>3.4</ele>
        <time>2025-06-30T07:10:44Z</time>
      </trkpt>
      <trkpt lat="46.20853" lon="-1.51487">
        <ele>3.4</ele>
        <time>2025-06-30T07:10:51Z</time>
      </trkpt>
      <trkpt lat="46.20854" lon="-1.51485">
        <ele>3.2</ele>
        <time>2025-06-30T07:10:52Z</time>
      </trkpt>
      <trkpt lat="46.20857" lon="-1.51485">
        <ele>3.4</ele>
        <time>2025-06-30T07:10:54Z</time>
      </trkpt>
      <trkpt lat="46.20859" lon="-1.51487">
        <ele>3.4</ele>
        <time>2025-06-30T07:10:56Z</time>
      </trkpt>
      <trkpt lat="46.20861" lon="-1.51492">
        <ele>3.2</ele>
        <time>2025-06-30T07:10:59Z</time>
      </trkpt>
      <trkpt lat="46.20864" lon="-1.51495">
        <ele>3</ele>
        <time>2025-06-30T07:11:02Z</time>
      </trkpt>
      <trkpt lat="46.20866" lon="-1.51495">
        <ele>3</ele>
        <time>2025-06-30T07:11:04Z</time>
      </trkpt>
      <trkpt lat="46.20869" lon="-1.51493">
        <ele>3</ele>
        <time>2025-06-30T07:11:07Z</time>
      </trkpt>
      <trkpt lat="46.20871" lon="-1.51492">
        <ele>3</ele>
        <time>2025-06-30T07:11:08Z</time>
      </trkpt>
      <trkpt lat="46.20878" lon="-1.51488">
        <ele>2.8</ele>
        <time>2025-06-30T07:11:12Z</time>
      </trkpt>
      <trkpt lat="46.2088" lon="-1.51488">
        <ele>3</ele>
        <time>2025-06-30T07:11:14Z</time>
      </trkpt>
      <trkpt lat="46.20883" lon="-1.51487">
        <ele>3</ele>
        <time>2025-06-30T07:11:17Z</time>
      </trkpt>
      <trkpt lat="46.20884" lon="-1.51487">
        <ele>3</ele>
        <time>2025-06-30T07:11:18Z</time>
      </trkpt>
      <trkpt lat="46.20884" lon="-1.51485">
        <ele>3</ele>
        <time>2025-06-30T07:11:21Z</time>
      </trkpt>
      <trkpt lat="46.20885" lon="-1.51497">
        <ele>3</ele>
        <time>2025-06-30T07:11:28Z</time>
      </trkpt>
      <trkpt lat="46.20886" lon="-1.51501">
        <ele>3</ele>
        <time>2025-06-30T07:11:31Z</time>
      </trkpt>
      <trkpt lat="46.20889" lon="-1.51502">
        <ele>3</ele>
        <time>2025-06-30T07:11:34Z</time>
      </trkpt>
      <trkpt lat="46.20893" lon="-1.515">
        <ele>3</ele>
        <time>2025-06-30T07:11:37Z</time>
      </trkpt>
      <trkpt lat="46.20894" lon="-1.51499">
        <ele>3</ele>
        <time>2025-06-30T07:11:38Z</time>
      </trkpt>
      <trkpt lat="46.20895" lon="-1.51499">
        <ele>3</ele>
        <time>2025-06-30T07:11:40Z</time>
      </trkpt>
      <trkpt lat="46.20896" lon="-1.51498">
        <ele>2.8</ele>
        <time>2025-06-30T07:11:41Z</time>
      </trkpt>
      <trkpt lat="46.20899" lon="-1.515">
        <ele>2.6</ele>
        <time>2025-06-30T07:11:46Z</time>
      </trkpt>
      <trkpt lat="46.20902" lon="-1.51497">
        <ele>2.4</ele>
        <time>2025-06-30T07:11:48Z</time>
      </trkpt>
      <trkpt lat="46.20907" lon="-1.5149">
        <ele>3</ele>
        <time>2025-06-30T07:11:53Z</time>
      </trkpt>
      <trkpt lat="46.20913" lon="-1.51484">
        <ele>2.8</ele>
        <time>2025-06-30T07:12:00Z</time>
      </trkpt>
      <trkpt lat="46.20915" lon="-1.51481">
        <ele>2.8</ele>
        <time>2025-06-30T07:12:02Z</time>
      </trkpt>
      <trkpt lat="46.20915" lon="-1.51473">
        <ele>3.2</ele>
        <time>2025-06-30T07:12:07Z</time>
      </trkpt>
      <trkpt lat="46.20917" lon="-1.51461">
        <ele>3</ele>
        <time>2025-06-30T07:12:14Z</time>
      </trkpt>
      <trkpt lat="46.20917" lon="-1.51456">
        <ele>3</ele>
        <time>2025-06-30T07:12:17Z</time>
      </trkpt>
      <trkpt lat="46.2092" lon="-1.51453">
        <ele>3</ele>
        <time>2025-06-30T07:12:21Z</time>
      </trkpt>
      <trkpt lat="46.20924" lon="-1.5145">
        <ele>3.2</ele>
        <time>2025-06-30T07:12:27Z</time>
      </trkpt>
      <trkpt lat="46.2093" lon="-1.51445">
        <ele>3</ele>
        <time>2025-06-30T07:12:33Z</time>
      </trkpt>
      <trkpt lat="46.2093" lon="-1.51443">
        <ele>3.2</ele>
        <time>2025-06-30T07:12:34Z</time>
      </trkpt>
      <trkpt lat="46.20932" lon="-1.51441">
        <ele>3.2</ele>
        <time>2025-06-30T07:12:36Z</time>
      </trkpt>
      <trkpt lat="46.20935" lon="-1.5144">
        <ele>3.2</ele>
        <time>2025-06-30T07:12:38Z</time>
      </trkpt>
      <trkpt lat="46.20937" lon="-1.51439">
        <ele>3.2</ele>
        <time>2025-06-30T07:12:40Z</time>
      </trkpt>
      <trkpt lat="46.2094" lon="-1.51437">
        <ele>3.2</ele>
        <time>2025-06-30T07:12:42Z</time>
      </trkpt>
      <trkpt lat="46.20942" lon="-1.51435">
        <ele>3.2</ele>
        <time>2025-06-30T07:12:44Z</time>
      </trkpt>
      <trkpt lat="46.20946" lon="-1.51433">
        <ele>3.4</ele>
        <time>2025-06-30T07:12:47Z</time>
      </trkpt>
      <trkpt lat="46.20948" lon="-1.51432">
        <ele>3.4</ele>
        <time>2025-06-30T07:12:48Z</time>
      </trkpt>
      <trkpt lat="46.2095" lon="-1.51435">
        <ele>3.4</ele>
        <time>2025-06-30T07:12:51Z</time>
      </trkpt>
      <trkpt lat="46.20951" lon="-1.51437">
        <ele>3.4</ele>
        <time>2025-06-30T07:12:52Z</time>
      </trkpt>
      <trkpt lat="46.20951" lon="-1.51438">
        <ele>3.4</ele>
        <time>2025-06-30T07:12:53Z</time>
      </trkpt>
      <trkpt lat="46.20953" lon="-1.51438">
        <ele>3.6</ele>
        <time>2025-06-30T07:12:55Z</time>
      </trkpt>
      <trkpt lat="46.20954" lon="-1.51437">
        <ele>3.6</ele>
        <time>2025-06-30T07:12:56Z</time>
      </trkpt>
      <trkpt lat="46.20955" lon="-1.51436">
        <ele>3.6</ele>
        <time>2025-06-30T07:12:57Z</time>
      </trkpt>
      <trkpt lat="46.20959" lon="-1.51431">
        <ele>3.6</ele>
        <time>2025-06-30T07:13:01Z</time>
      </trkpt>
      <trkpt lat="46.20963" lon="-1.51428">
        <ele>3.4</ele>
        <time>2025-06-30T07:13:06Z</time>
      </trkpt>
      <trkpt lat="46.20965" lon="-1.51426">
        <ele>3.4</ele>
        <time>2025-06-30T07:13:08Z</time>
      </trkpt>
      <trkpt lat="46.20967" lon="-1.51423">
        <ele>3.6</ele>
        <time>2025-06-30T07:13:10Z</time>
      </trkpt>
      <trkpt lat="46.20969" lon="-1.5142">
        <ele>3.8</ele>
        <time>2025-06-30T07:13:13Z</time>
      </trkpt>
      <trkpt lat="46.2097" lon="-1.5142">
        <ele>3.8</ele>
        <time>2025-06-30T07:13:14Z</time>
      </trkpt>
      <trkpt lat="46.20974" lon="-1.51418">
        <ele>3.8</ele>
        <time>2025-06-30T07:13:17Z</time>
      </trkpt>
      <trkpt lat="46.20976" lon="-1.51417">
        <ele>4.2</ele>
        <time>2025-06-30T07:13:19Z</time>
      </trkpt>
      <trkpt lat="46.20976" lon="-1.51415">
        <ele>4.4</ele>
        <time>2025-06-30T07:13:20Z</time>
      </trkpt>
      <trkpt lat="46.20982" lon="-1.51407">
        <ele>4.2</ele>
        <time>2025-06-30T07:13:26Z</time>
      </trkpt>
      <trkpt lat="46.20984" lon="-1.51404">
        <ele>3.8</ele>
        <time>2025-06-30T07:13:28Z</time>
      </trkpt>
      <trkpt lat="46.20985" lon="-1.51403">
        <ele>3.8</ele>
        <time>2025-06-30T07:13:29Z</time>
      </trkpt>
      <trkpt lat="46.20994" lon="-1.51392">
        <ele>3.8</ele>
        <time>2025-06-30T07:13:37Z</time>
      </trkpt>
      <trkpt lat="46.20999" lon="-1.51385">
        <ele>3.4</ele>
        <time>2025-06-30T07:13:43Z</time>
      </trkpt>
      <trkpt lat="46.21" lon="-1.51383">
        <ele>3.2</ele>
        <time>2025-06-30T07:13:44Z</time>
      </trkpt>
      <trkpt lat="46.21006" lon="-1.51374">
        <ele>3.4</ele>
        <time>2025-06-30T07:13:51Z</time>
      </trkpt>
      <trkpt lat="46.21006" lon="-1.51374">
        <ele>3.4</ele>
        <time>2025-06-30T07:13:52Z</time>
      </trkpt>
      <trkpt lat="46.21007" lon="-1.51372">
        <ele>3.4</ele>
        <time>2025-06-30T07:13:54Z</time>
      </trkpt>
      <trkpt lat="46.21016" lon="-1.51359">
        <ele>3.8</ele>
        <time>2025-06-30T07:14:01Z</time>
      </trkpt>
      <trkpt lat="46.21019" lon="-1.51358">
        <ele>3.8</ele>
        <time>2025-06-30T07:14:03Z</time>
      </trkpt>
      <trkpt lat="46.21021" lon="-1.51355">
        <ele>3.8</ele>
        <time>2025-06-30T07:14:05Z</time>
      </trkpt>
      <trkpt lat="46.21023" lon="-1.51354">
        <ele>3.8</ele>
        <time>2025-06-30T07:14:06Z</time>
      </trkpt>
      <trkpt lat="46.21029" lon="-1.51342">
        <ele>3.6</ele>
        <time>2025-06-30T07:14:13Z</time>
      </trkpt>
      <trkpt lat="46.21024" lon="-1.51329">
        <ele>3.6</ele>
        <time>2025-06-30T07:14:20Z</time>
      </trkpt>
      <trkpt lat="46.21019" lon="-1.51324">
        <ele>3.6</ele>
        <time>2025-06-30T07:14:26Z</time>
      </trkpt>
      <trkpt lat="46.21017" lon="-1.51321">
        <ele>3.6</ele>
        <time>2025-06-30T07:14:28Z</time>
      </trkpt>
      <trkpt lat="46.21015" lon="-1.51318">
        <ele>3.8</ele>
        <time>2025-06-30T07:14:30Z</time>
      </trkpt>
      <trkpt lat="46.21012" lon="-1.51314">
        <ele>4</ele>
        <time>2025-06-30T07:14:33Z</time>
      </trkpt>
      <trkpt lat="46.21011" lon="-1.51312">
        <ele>4</ele>
        <time>2025-06-30T07:14:35Z</time>
      </trkpt>
      <trkpt lat="46.2101" lon="-1.5131">
        <ele>4</ele>
        <time>2025-06-30T07:14:36Z</time>
      </trkpt>
      <trkpt lat="46.2101" lon="-1.51309">
        <ele>4</ele>
        <time>2025-06-30T07:14:37Z</time>
      </trkpt>
      <trkpt lat="46.21008" lon="-1.51305">
        <ele>3.8</ele>
        <time>2025-06-30T07:14:39Z</time>
      </trkpt>
      <trkpt lat="46.21008" lon="-1.51302">
        <ele>3.6</ele>
        <time>2025-06-30T07:14:40Z</time>
      </trkpt>
      <trkpt lat="46.21005" lon="-1.51297">
        <ele>3.6</ele>
        <time>2025-06-30T07:14:44Z</time>
      </trkpt>
      <trkpt lat="46.21003" lon="-1.51294">
        <ele>3.6</ele>
        <time>2025-06-30T07:14:46Z</time>
      </trkpt>
      <trkpt lat="46.21002" lon="-1.51292">
        <ele>3.6</ele>
        <time>2025-06-30T07:14:47Z</time>
      </trkpt>
      <trkpt lat="46.20999" lon="-1.51288">
        <ele>3.6</ele>
        <time>2025-06-30T07:14:50Z</time>
      </trkpt>
      <trkpt lat="46.20999" lon="-1.51287">
        <ele>3.6</ele>
        <time>2025-06-30T07:14:51Z</time>
      </trkpt>
      <trkpt lat="46.20997" lon="-1.51277">
        <ele>3.4</ele>
        <time>2025-06-30T07:14:56Z</time>
      </trkpt>
      <trkpt lat="46.20998" lon="-1.51277">
        <ele>3.4</ele>
        <time>2025-06-30T07:14:57Z</time>
      </trkpt>
      <trkpt lat="46.21006" lon="-1.51266">
        <ele>3</ele>
        <time>2025-06-30T07:15:03Z</time>
      </trkpt>
      <trkpt lat="46.21008" lon="-1.51259">
        <ele>3.4</ele>
        <time>2025-06-30T07:15:07Z</time>
      </trkpt>
      <trkpt lat="46.2101" lon="-1.51253">
        <ele>3.4</ele>
        <time>2025-06-30T07:15:10Z</time>
      </trkpt>
      <trkpt lat="46.21012" lon="-1.51244">
        <ele>3.6</ele>
        <time>2025-06-30T07:15:15Z</time>
      </trkpt>
      <trkpt lat="46.21011" lon="-1.5124">
        <ele>3.6</ele>
        <time>2025-06-30T07:15:18Z</time>
      </trkpt>
      <trkpt lat="46.21006" lon="-1.51233">
        <ele>3.6</ele>
        <time>2025-06-30T07:15:25Z</time>
      </trkpt>
      <trkpt lat="46.21005" lon="-1.5123">
        <ele>3.8</ele>
        <time>2025-06-30T07:15:27Z</time>
      </trkpt>
      <trkpt lat="46.21002" lon="-1.51221">
        <ele>4.2</ele>
        <time>2025-06-30T07:15:33Z</time>
      </trkpt>
      <trkpt lat="46.21002" lon="-1.5122">
        <ele>4.2</ele>
        <time>2025-06-30T07:15:34Z</time>
      </trkpt>
      <trkpt lat="46.20999" lon="-1.51218">
        <ele>4.2</ele>
        <time>2025-06-30T07:15:38Z</time>
      </trkpt>
      <trkpt lat="46.20999" lon="-1.51217">
        <ele>4</ele>
        <time>2025-06-30T07:15:43Z</time>
      </trkpt>
      <trkpt lat="46.20998" lon="-1.51215">
        <ele>4</ele>
        <time>2025-06-30T07:15:45Z</time>
      </trkpt>
      <trkpt lat="46.20995" lon="-1.51212">
        <ele>4</ele>
        <time>2025-06-30T07:15:49Z</time>
      </trkpt>
      <trkpt lat="46.20993" lon="-1.51209">
        <ele>4.4</ele>
        <time>2025-06-30T07:15:52Z</time>
      </trkpt>
      <trkpt lat="46.20991" lon="-1.51207">
        <ele>4.4</ele>
        <time>2025-06-30T07:15:54Z</time>
      </trkpt>
      <trkpt lat="46.20988" lon="-1.51202">
        <ele>3.8</ele>
        <time>2025-06-30T07:15:59Z</time>
      </trkpt>
      <trkpt lat="46.20986" lon="-1.512">
        <ele>3.8</ele>
        <time>2025-06-30T07:16:02Z</time>
      </trkpt>
      <trkpt lat="46.20982" lon="-1.51198">
        <ele>4</ele>
        <time>2025-06-30T07:16:06Z</time>
      </trkpt>
      <trkpt lat="46.2098" lon="-1.51193">
        <ele>3.8</ele>
        <time>2025-06-30T07:16:10Z</time>
      </trkpt>
      <trkpt lat="46.20976" lon="-1.51183">
        <ele>3.6</ele>
        <time>2025-06-30T07:16:18Z</time>
      </trkpt>
      <trkpt lat="46.20973" lon="-1.51178">
        <ele>3.4</ele>
        <time>2025-06-30T07:16:22Z</time>
      </trkpt>
      <trkpt lat="46.2097" lon="-1.51175">
        <ele>3.2</ele>
        <time>2025-06-30T07:16:27Z</time>
      </trkpt>
      <trkpt lat="46.20972" lon="-1.51175">
        <ele>3</ele>
        <time>2025-06-30T07:16:34Z</time>
      </trkpt>
      <trkpt lat="46.2097" lon="-1.51172">
        <ele>2.8</ele>
        <time>2025-06-30T07:16:39Z</time>
      </trkpt>
      <trkpt lat="46.20973" lon="-1.51173">
        <ele>2.6</ele>
        <time>2025-06-30T07:16:44Z</time>
      </trkpt>
      <trkpt lat="46.20972" lon="-1.51174">
        <ele>2.6</ele>
        <time>2025-06-30T07:16:50Z</time>
      </trkpt>
      <trkpt lat="46.20971" lon="-1.51174">
        <ele>2.6</ele>
        <time>2025-06-30T07:16:52Z</time>
      </trkpt>
      <trkpt lat="46.20972" lon="-1.51174">
        <ele>2.6</ele>
        <time>2025-06-30T07:17:01Z</time>
      </trkpt>
      <trkpt lat="46.20972" lon="-1.51175">
        <ele>2.2</ele>
        <time>2025-06-30T07:17:12Z</time>
      </trkpt>
      <trkpt lat="46.20965" lon="-1.5117">
        <ele>2</ele>
        <time>2025-06-30T07:17:31Z</time>
      </trkpt>
      <trkpt lat="46.20952" lon="-1.51156">
        <ele>2.6</ele>
        <time>2025-06-30T07:17:41Z</time>
      </trkpt>
      <trkpt lat="46.20945" lon="-1.51146">
        <ele>2.2</ele>
        <time>2025-06-30T07:17:49Z</time>
      </trkpt>
      <trkpt lat="46.20937" lon="-1.51135">
        <ele>2.2</ele>
        <time>2025-06-30T07:17:57Z</time>
      </trkpt>
      <trkpt lat="46.20936" lon="-1.51134">
        <ele>2.2</ele>
        <time>2025-06-30T07:17:58Z</time>
      </trkpt>
      <trkpt lat="46.2093" lon="-1.51115">
        <ele>2</ele>
        <time>2025-06-30T07:18:09Z</time>
      </trkpt>
      <trkpt lat="46.20935" lon="-1.51107">
        <ele>2.2</ele>
        <time>2025-06-30T07:18:15Z</time>
      </trkpt>
      <trkpt lat="46.20937" lon="-1.51105">
        <ele>2.2</ele>
        <time>2025-06-30T07:18:16Z</time>
      </trkpt>
      <trkpt lat="46.20948" lon="-1.51099">
        <ele>2</ele>
        <time>2025-06-30T07:18:25Z</time>
      </trkpt>
      <trkpt lat="46.20962" lon="-1.51091">
        <ele>1.8</ele>
        <time>2025-06-30T07:18:36Z</time>
      </trkpt>
      <trkpt lat="46.20972" lon="-1.51087">
        <ele>2</ele>
        <time>2025-06-30T07:18:44Z</time>
      </trkpt>
      <trkpt lat="46.20981" lon="-1.51086">
        <ele>2</ele>
        <time>2025-06-30T07:18:52Z</time>
      </trkpt>
      <trkpt lat="46.20992" lon="-1.51084">
        <ele>2</ele>
        <time>2025-06-30T07:19:00Z</time>
      </trkpt>
      <trkpt lat="46.20997" lon="-1.51082">
        <ele>2.2</ele>
        <time>2025-06-30T07:19:04Z</time>
      </trkpt>
      <trkpt lat="46.21009" lon="-1.51082">
        <ele>2.4</ele>
        <time>2025-06-30T07:19:12Z</time>
      </trkpt>
      <trkpt lat="46.21021" lon="-1.51079">
        <ele>2.6</ele>
        <time>2025-06-30T07:19:21Z</time>
      </trkpt>
      <trkpt lat="46.21027" lon="-1.5108">
        <ele>2.6</ele>
        <time>2025-06-30T07:19:27Z</time>
      </trkpt>
      <trkpt lat="46.2103" lon="-1.5108">
        <ele>2.8</ele>
        <time>2025-06-30T07:19:29Z</time>
      </trkpt>
      <trkpt lat="46.21042" lon="-1.51079">
        <ele>2.6</ele>
        <time>2025-06-30T07:19:38Z</time>
      </trkpt>
      <trkpt lat="46.21057" lon="-1.5108">
        <ele>2.8</ele>
        <time>2025-06-30T07:19:49Z</time>
      </trkpt>
      <trkpt lat="46.21068" lon="-1.5108">
        <ele>2.8</ele>
        <time>2025-06-30T07:19:58Z</time>
      </trkpt>
      <trkpt lat="46.21077" lon="-1.51087">
        <ele>2.6</ele>
        <time>2025-06-30T07:20:07Z</time>
      </trkpt>
      <trkpt lat="46.21083" lon="-1.51096">
        <ele>2.8</ele>
        <time>2025-06-30T07:20:13Z</time>
      </trkpt>
      <trkpt lat="46.21086" lon="-1.51102">
        <ele>2.8</ele>
        <time>2025-06-30T07:20:17Z</time>
      </trkpt>
      <trkpt lat="46.21095" lon="-1.5112">
        <ele>3.2</ele>
        <time>2025-06-30T07:20:27Z</time>
      </trkpt>
      <trkpt lat="46.21102" lon="-1.51123">
        <ele>3.2</ele>
        <time>2025-06-30T07:20:33Z</time>
      </trkpt>
      <trkpt lat="46.21114" lon="-1.5112">
        <ele>3.2</ele>
        <time>2025-06-30T07:20:41Z</time>
      </trkpt>
      <trkpt lat="46.2112" lon="-1.51116">
        <ele>3.2</ele>
        <time>2025-06-30T07:20:46Z</time>
      </trkpt>
      <trkpt lat="46.21125" lon="-1.51113">
        <ele>3.4</ele>
        <time>2025-06-30T07:20:50Z</time>
      </trkpt>
      <trkpt lat="46.21137" lon="-1.51106">
        <ele>3.4</ele>
        <time>2025-06-30T07:21:00Z</time>
      </trkpt>
      <trkpt lat="46.21147" lon="-1.511">
        <ele>3.6</ele>
        <time>2025-06-30T07:21:08Z</time>
      </trkpt>
      <trkpt lat="46.21148" lon="-1.51099">
        <ele>3.6</ele>
        <time>2025-06-30T07:21:09Z</time>
      </trkpt>
      <trkpt lat="46.21162" lon="-1.51094">
        <ele>3.6</ele>
        <time>2025-06-30T07:21:19Z</time>
      </trkpt>
      <trkpt lat="46.21174" lon="-1.51086">
        <ele>3.8</ele>
        <time>2025-06-30T07:21:29Z</time>
      </trkpt>
      <trkpt lat="46.21187" lon="-1.51078">
        <ele>3.8</ele>
        <time>2025-06-30T07:21:39Z</time>
      </trkpt>
      <trkpt lat="46.21197" lon="-1.5107">
        <ele>3.8</ele>
        <time>2025-06-30T07:21:47Z</time>
      </trkpt>
      <trkpt lat="46.21206" lon="-1.51065">
        <ele>3.8</ele>
        <time>2025-06-30T07:21:55Z</time>
      </trkpt>
      <trkpt lat="46.21206" lon="-1.51063">
        <ele>3.8</ele>
        <time>2025-06-30T07:21:56Z</time>
      </trkpt>
      <trkpt lat="46.21206" lon="-1.51061">
        <ele>3.8</ele>
        <time>2025-06-30T07:21:57Z</time>
      </trkpt>
      <trkpt lat="46.21202" lon="-1.51054">
        <ele>3.4</ele>
        <time>2025-06-30T07:22:01Z</time>
      </trkpt>
      <trkpt lat="46.21202" lon="-1.51052">
        <ele>3.2</ele>
        <time>2025-06-30T07:22:02Z</time>
      </trkpt>
      <trkpt lat="46.21196" lon="-1.5103">
        <ele>2.6</ele>
        <time>2025-06-30T07:22:14Z</time>
      </trkpt>
      <trkpt lat="46.21196" lon="-1.51028">
        <ele>2.4</ele>
        <time>2025-06-30T07:22:15Z</time>
      </trkpt>
      <trkpt lat="46.21197" lon="-1.51026">
        <ele>2.4</ele>
        <time>2025-06-30T07:22:17Z</time>
      </trkpt>
      <trkpt lat="46.21199" lon="-1.51023">
        <ele>2.2</ele>
        <time>2025-06-30T07:22:19Z</time>
      </trkpt>
      <trkpt lat="46.21201" lon="-1.51021">
        <ele>2.2</ele>
        <time>2025-06-30T07:22:21Z</time>
      </trkpt>
      <trkpt lat="46.21202" lon="-1.51018">
        <ele>2.4</ele>
        <time>2025-06-30T07:22:27Z</time>
      </trkpt>
      <trkpt lat="46.21202" lon="-1.51017">
        <ele>2.4</ele>
        <time>2025-06-30T07:22:33Z</time>
      </trkpt>
      <trkpt lat="46.21202" lon="-1.51018">
        <ele>2.4</ele>
        <time>2025-06-30T07:22:37Z</time>
      </trkpt>
      <trkpt lat="46.21202" lon="-1.51018">
        <ele>2.4</ele>
        <time>2025-06-30T07:22:40Z</time>
      </trkpt>
      <trkpt lat="46.21207" lon="-1.51014">
        <ele>2.2</ele>
        <time>2025-06-30T07:22:44Z</time>
      </trkpt>
      <trkpt lat="46.21209" lon="-1.51011">
        <ele>2.2</ele>
        <time>2025-06-30T07:22:46Z</time>
      </trkpt>
      <trkpt lat="46.21216" lon="-1.51007">
        <ele>2.2</ele>
        <time>2025-06-30T07:22:50Z</time>
      </trkpt>
      <trkpt lat="46.21223" lon="-1.50999">
        <ele>1.4</ele>
        <time>2025-06-30T07:22:57Z</time>
      </trkpt>
      <trkpt lat="46.21223" lon="-1.50997">
        <ele>1.4</ele>
        <time>2025-06-30T07:22:59Z</time>
      </trkpt>
      <trkpt lat="46.21223" lon="-1.50997">
        <ele>1.4</ele>
        <time>2025-06-30T07:23:00Z</time>
      </trkpt>
      <trkpt lat="46.21222" lon="-1.50997">
        <ele>2.2</ele>
        <time>2025-06-30T07:23:02Z</time>
      </trkpt>
      <trkpt lat="46.2122" lon="-1.50997">
        <ele>2.2</ele>
        <time>2025-06-30T07:23:05Z</time>
      </trkpt>
      <trkpt lat="46.21218" lon="-1.50999">
        <ele>2.2</ele>
        <time>2025-06-30T07:23:11Z</time>
      </trkpt>
      <trkpt lat="46.21218" lon="-1.50999">
        <ele>2.2</ele>
        <time>2025-06-30T07:23:12Z</time>
      </trkpt>
      <trkpt lat="46.21217" lon="-1.51001">
        <ele>2.4</ele>
        <time>2025-06-30T07:23:37Z</time>
      </trkpt>
      <trkpt lat="46.21217" lon="-1.51001">
        <ele>2.6</ele>
        <time>2025-06-30T07:23:39Z</time>
      </trkpt>
      <trkpt lat="46.2122" lon="-1.51">
        <ele>1.6</ele>
        <time>2025-06-30T07:23:52Z</time>
      </trkpt>
      <trkpt lat="46.2122" lon="-1.51">
        <ele>1.6</ele>
        <time>2025-06-30T07:23:53Z</time>
      </trkpt>
      <trkpt lat="46.21221" lon="-1.51">
        <ele>1.6</ele>
        <time>2025-06-30T07:23:54Z</time>
      </trkpt>
      <trkpt lat="46.21218" lon="-1.51002">
        <ele>1.8</ele>
        <time>2025-06-30T07:24:03Z</time>
      </trkpt>
      <trkpt lat="46.21218" lon="-1.51002">
        <ele>1.6</ele>
        <time>2025-06-30T07:24:09Z</time>
      </trkpt>
      <trkpt lat="46.21217" lon="-1.51002">
        <ele>1.2</ele>
        <time>2025-06-30T07:24:12Z</time>
      </trkpt>
      <trkpt lat="46.21218" lon="-1.51001">
        <ele>1</ele>
        <time>2025-06-30T07:24:19Z</time>
      </trkpt>
      <trkpt lat="46.21218" lon="-1.51001">
        <ele>1</ele>
        <time>2025-06-30T07:24:25Z</time>
      </trkpt>
      <trkpt lat="46.21215" lon="-1.51003">
        <ele>1.2</ele>
        <time>2025-06-30T07:24:28Z</time>
      </trkpt>
      <trkpt lat="46.21208" lon="-1.5101">
        <ele>1.2</ele>
        <time>2025-06-30T07:24:35Z</time>
      </trkpt>
      <trkpt lat="46.21199" lon="-1.51019">
        <ele>1.2</ele>
        <time>2025-06-30T07:24:45Z</time>
      </trkpt>
      <trkpt lat="46.21199" lon="-1.5102">
        <ele>1.4</ele>
        <time>2025-06-30T07:24:46Z</time>
      </trkpt>
      <trkpt lat="46.21195" lon="-1.51022">
        <ele>1.4</ele>
        <time>2025-06-30T07:24:54Z</time>
      </trkpt>
      <trkpt lat="46.21193" lon="-1.51025">
        <ele>1.2</ele>
        <time>2025-06-30T07:25:00Z</time>
      </trkpt>
      <trkpt lat="46.21193" lon="-1.51033">
        <ele>1.4</ele>
        <time>2025-06-30T07:25:05Z</time>
      </trkpt>
      <trkpt lat="46.21198" lon="-1.51041">
        <ele>1.2</ele>
        <time>2025-06-30T07:25:10Z</time>
      </trkpt>
      <trkpt lat="46.21202" lon="-1.51046">
        <ele>1.4</ele>
        <time>2025-06-30T07:25:15Z</time>
      </trkpt>
      <trkpt lat="46.21203" lon="-1.51048">
        <ele>1.4</ele>
        <time>2025-06-30T07:25:17Z</time>
      </trkpt>
      <trkpt lat="46.21204" lon="-1.51056">
        <ele>1.8</ele>
        <time>2025-06-30T07:25:22Z</time>
      </trkpt>
      <trkpt lat="46.21206" lon="-1.51059">
        <ele>3.8</ele>
        <time>2025-06-30T07:25:24Z</time>
      </trkpt>
      <trkpt lat="46.21207" lon="-1.51059">
        <ele>3.8</ele>
        <time>2025-06-30T07:25:25Z</time>
      </trkpt>
      <trkpt lat="46.21214" lon="-1.51055">
        <ele>3.8</ele>
        <time>2025-06-30T07:25:30Z</time>
      </trkpt>
      <trkpt lat="46.21218" lon="-1.51053">
        <ele>3.6</ele>
        <time>2025-06-30T07:25:33Z</time>
      </trkpt>
      <trkpt lat="46.2122" lon="-1.51052">
        <ele>3.6</ele>
        <time>2025-06-30T07:25:34Z</time>
      </trkpt>
      <trkpt lat="46.21231" lon="-1.51042">
        <ele>3.4</ele>
        <time>2025-06-30T07:25:43Z</time>
      </trkpt>
      <trkpt lat="46.21236" lon="-1.51037">
        <ele>1.8</ele>
        <time>2025-06-30T07:25:47Z</time>
      </trkpt>
      <trkpt lat="46.2124" lon="-1.51032">
        <ele>1.6</ele>
        <time>2025-06-30T07:25:51Z</time>
      </trkpt>
      <trkpt lat="46.21247" lon="-1.51018">
        <ele>1.2</ele>
        <time>2025-06-30T07:26:00Z</time>
      </trkpt>
      <trkpt lat="46.21255" lon="-1.50999">
        <ele>1.8</ele>
        <time>2025-06-30T07:26:11Z</time>
      </trkpt>
      <trkpt lat="46.21264" lon="-1.5098">
        <ele>1.8</ele>
        <time>2025-06-30T07:26:22Z</time>
      </trkpt>
      <trkpt lat="46.21265" lon="-1.50976">
        <ele>1.8</ele>
        <time>2025-06-30T07:26:24Z</time>
      </trkpt>
      <trkpt lat="46.21271" lon="-1.50964">
        <ele>1.8</ele>
        <time>2025-06-30T07:26:31Z</time>
      </trkpt>
      <trkpt lat="46.21277" lon="-1.50952">
        <ele>2</ele>
        <time>2025-06-30T07:26:39Z</time>
      </trkpt>
      <trkpt lat="46.21286" lon="-1.50929">
        <ele>1.8</ele>
        <time>2025-06-30T07:26:52Z</time>
      </trkpt>
      <trkpt lat="46.21291" lon="-1.50915">
        <ele>2</ele>
        <time>2025-06-30T07:27:00Z</time>
      </trkpt>
      <trkpt lat="46.21296" lon="-1.50907">
        <ele>2.2</ele>
        <time>2025-06-30T07:27:05Z</time>
      </trkpt>
      <trkpt lat="46.21298" lon="-1.50902">
        <ele>2</ele>
        <time>2025-06-30T07:27:08Z</time>
      </trkpt>
      <trkpt lat="46.21305" lon="-1.50885">
        <ele>2.2</ele>
        <time>2025-06-30T07:27:18Z</time>
      </trkpt>
      <trkpt lat="46.21307" lon="-1.50878">
        <ele>2.4</ele>
        <time>2025-06-30T07:27:22Z</time>
      </trkpt>
      <trkpt lat="46.2131" lon="-1.50872">
        <ele>2.4</ele>
        <time>2025-06-30T07:27:25Z</time>
      </trkpt>
      <trkpt lat="46.21315" lon="-1.50863">
        <ele>2.2</ele>
        <time>2025-06-30T07:27:31Z</time>
      </trkpt>
      <trkpt lat="46.2132" lon="-1.50855">
        <ele>2.8</ele>
        <time>2025-06-30T07:27:36Z</time>
      </trkpt>
      <trkpt lat="46.21322" lon="-1.5085">
        <ele>3</ele>
        <time>2025-06-30T07:27:39Z</time>
      </trkpt>
      <trkpt lat="46.21326" lon="-1.50838">
        <ele>2.4</ele>
        <time>2025-06-30T07:27:45Z</time>
      </trkpt>
      <trkpt lat="46.21327" lon="-1.50835">
        <ele>2.6</ele>
        <time>2025-06-30T07:27:47Z</time>
      </trkpt>
      <trkpt lat="46.21328" lon="-1.5083">
        <ele>2.8</ele>
        <time>2025-06-30T07:27:50Z</time>
      </trkpt>
      <trkpt lat="46.21332" lon="-1.5082">
        <ele>3</ele>
        <time>2025-06-30T07:27:56Z</time>
      </trkpt>
      <trkpt lat="46.2134" lon="-1.50803">
        <ele>2.6</ele>
        <time>2025-06-30T07:28:05Z</time>
      </trkpt>
      <trkpt lat="46.21348" lon="-1.50786">
        <ele>3</ele>
        <time>2025-06-30T07:28:15Z</time>
      </trkpt>
      <trkpt lat="46.21352" lon="-1.5078">
        <ele>3.2</ele>
        <time>2025-06-30T07:28:19Z</time>
      </trkpt>
      <trkpt lat="46.21355" lon="-1.50775">
        <ele>3.6</ele>
        <time>2025-06-30T07:28:22Z</time>
      </trkpt>
      <trkpt lat="46.21356" lon="-1.50772">
        <ele>3.4</ele>
        <time>2025-06-30T07:28:24Z</time>
      </trkpt>
      <trkpt lat="46.21363" lon="-1.5076">
        <ele>3</ele>
        <time>2025-06-30T07:28:31Z</time>
      </trkpt>
      <trkpt lat="46.21367" lon="-1.50752">
        <ele>3</ele>
        <time>2025-06-30T07:28:36Z</time>
      </trkpt>
      <trkpt lat="46.21368" lon="-1.50747">
        <ele>3.2</ele>
        <time>2025-06-30T07:28:39Z</time>
      </trkpt>
      <trkpt lat="46.21376" lon="-1.50732">
        <ele>3.6</ele>
        <time>2025-06-30T07:28:48Z</time>
      </trkpt>
      <trkpt lat="46.21377" lon="-1.5073">
        <ele>3.8</ele>
        <time>2025-06-30T07:28:49Z</time>
      </trkpt>
      <trkpt lat="46.21378" lon="-1.50728">
        <ele>3.8</ele>
        <time>2025-06-30T07:28:50Z</time>
      </trkpt>
      <trkpt lat="46.21385" lon="-1.50718">
        <ele>3.8</ele>
        <time>2025-06-30T07:28:57Z</time>
      </trkpt>
      <trkpt lat="46.21392" lon="-1.50706">
        <ele>3.8</ele>
        <time>2025-06-30T07:29:05Z</time>
      </trkpt>
      <trkpt lat="46.21394" lon="-1.50701">
        <ele>3.6</ele>
        <time>2025-06-30T07:29:08Z</time>
      </trkpt>
      <trkpt lat="46.21395" lon="-1.50698">
        <ele>3.6</ele>
        <time>2025-06-30T07:29:10Z</time>
      </trkpt>
      <trkpt lat="46.21401" lon="-1.50688">
        <ele>4.2</ele>
        <time>2025-06-30T07:29:17Z</time>
      </trkpt>
      <trkpt lat="46.21407" lon="-1.50681">
        <ele>4.2</ele>
        <time>2025-06-30T07:29:22Z</time>
      </trkpt>
      <trkpt lat="46.21412" lon="-1.5067">
        <ele>3.8</ele>
        <time>2025-06-30T07:29:29Z</time>
      </trkpt>
      <trkpt lat="46.21415" lon="-1.50664">
        <ele>4</ele>
        <time>2025-06-30T07:29:33Z</time>
      </trkpt>
      <trkpt lat="46.21418" lon="-1.5066">
        <ele>3.8</ele>
        <time>2025-06-30T07:29:36Z</time>
      </trkpt>
      <trkpt lat="46.2142" lon="-1.50654">
        <ele>3.8</ele>
        <time>2025-06-30T07:29:39Z</time>
      </trkpt>
      <trkpt lat="46.21424" lon="-1.50649">
        <ele>4.2</ele>
        <time>2025-06-30T07:29:43Z</time>
      </trkpt>
      <trkpt lat="46.21428" lon="-1.50641">
        <ele>4.2</ele>
        <time>2025-06-30T07:29:48Z</time>
      </trkpt>
      <trkpt lat="46.2143" lon="-1.50638">
        <ele>4.2</ele>
        <time>2025-06-30T07:29:50Z</time>
      </trkpt>
      <trkpt lat="46.2144" lon="-1.50621">
        <ele>4.2</ele>
        <time>2025-06-30T07:30:01Z</time>
      </trkpt>
      <trkpt lat="46.21446" lon="-1.50608">
        <ele>4.4</ele>
        <time>2025-06-30T07:30:09Z</time>
      </trkpt>
      <trkpt lat="46.21456" lon="-1.50594">
        <ele>4.2</ele>
        <time>2025-06-30T07:30:19Z</time>
      </trkpt>
      <trkpt lat="46.21465" lon="-1.5058">
        <ele>4</ele>
        <time>2025-06-30T07:30:28Z</time>
      </trkpt>
      <trkpt lat="46.21467" lon="-1.50578">
        <ele>4</ele>
        <time>2025-06-30T07:30:30Z</time>
      </trkpt>
      <trkpt lat="46.21471" lon="-1.50571">
        <ele>4</ele>
        <time>2025-06-30T07:30:34Z</time>
      </trkpt>
      <trkpt lat="46.21478" lon="-1.50558">
        <ele>4.2</ele>
        <time>2025-06-30T07:30:42Z</time>
      </trkpt>
      <trkpt lat="46.21485" lon="-1.50544">
        <ele>4.2</ele>
        <time>2025-06-30T07:30:51Z</time>
      </trkpt>
      <trkpt lat="46.21489" lon="-1.50518">
        <ele>4.2</ele>
        <time>2025-06-30T07:31:04Z</time>
      </trkpt>
      <trkpt lat="46.21492" lon="-1.50509">
        <ele>4.2</ele>
        <time>2025-06-30T07:31:10Z</time>
      </trkpt>
      <trkpt lat="46.21494" lon="-1.50492">
        <ele>4.2</ele>
        <time>2025-06-30T07:31:19Z</time>
      </trkpt>
      <trkpt lat="46.21496" lon="-1.50475">
        <ele>4</ele>
        <time>2025-06-30T07:31:28Z</time>
      </trkpt>
      <trkpt lat="46.21499" lon="-1.50456">
        <ele>3.8</ele>
        <time>2025-06-30T07:31:37Z</time>
      </trkpt>
      <trkpt lat="46.21501" lon="-1.50442">
        <ele>3.8</ele>
        <time>2025-06-30T07:31:44Z</time>
      </trkpt>
      <trkpt lat="46.21504" lon="-1.50429">
        <ele>4</ele>
        <time>2025-06-30T07:31:51Z</time>
      </trkpt>
      <trkpt lat="46.21505" lon="-1.50427">
        <ele>4</ele>
        <time>2025-06-30T07:31:52Z</time>
      </trkpt>
      <trkpt lat="46.21506" lon="-1.50422">
        <ele>4</ele>
        <time>2025-06-30T07:31:55Z</time>
      </trkpt>
      <trkpt lat="46.21511" lon="-1.50399">
        <ele>4</ele>
        <time>2025-06-30T07:32:07Z</time>
      </trkpt>
      <trkpt lat="46.21519" lon="-1.50383">
        <ele>4</ele>
        <time>2025-06-30T07:32:16Z</time>
      </trkpt>
      <trkpt lat="46.2152" lon="-1.5038">
        <ele>4</ele>
        <time>2025-06-30T07:32:18Z</time>
      </trkpt>
      <trkpt lat="46.21523" lon="-1.50371">
        <ele>4</ele>
        <time>2025-06-30T07:32:23Z</time>
      </trkpt>
      <trkpt lat="46.21529" lon="-1.5036">
        <ele>3.8</ele>
        <time>2025-06-30T07:32:30Z</time>
      </trkpt>
      <trkpt lat="46.21537" lon="-1.50347">
        <ele>3.8</ele>
        <time>2025-06-30T07:32:39Z</time>
      </trkpt>
      <trkpt lat="46.21544" lon="-1.50331">
        <ele>3.6</ele>
        <time>2025-06-30T07:32:49Z</time>
      </trkpt>
      <trkpt lat="46.21545" lon="-1.50326">
        <ele>3.4</ele>
        <time>2025-06-30T07:32:52Z</time>
      </trkpt>
      <trkpt lat="46.21546" lon="-1.50315">
        <ele>3.4</ele>
        <time>2025-06-30T07:32:57Z</time>
      </trkpt>
      <trkpt lat="46.21546" lon="-1.503">
        <ele>3.2</ele>
        <time>2025-06-30T07:33:07Z</time>
      </trkpt>
      <trkpt lat="46.21546" lon="-1.50298">
        <ele>3.2</ele>
        <time>2025-06-30T07:33:08Z</time>
      </trkpt>
      <trkpt lat="46.21545" lon="-1.50286">
        <ele>3.4</ele>
        <time>2025-06-30T07:33:14Z</time>
      </trkpt>
      <trkpt lat="46.21545" lon="-1.50266">
        <ele>3.4</ele>
        <time>2025-06-30T07:33:25Z</time>
      </trkpt>
      <trkpt lat="46.21545" lon="-1.5026">
        <ele>3.4</ele>
        <time>2025-06-30T07:33:28Z</time>
      </trkpt>
      <trkpt lat="46.21545" lon="-1.50247">
        <ele>3.4</ele>
        <time>2025-06-30T07:33:35Z</time>
      </trkpt>
      <trkpt lat="46.21545" lon="-1.50243">
        <ele>3.2</ele>
        <time>2025-06-30T07:33:37Z</time>
      </trkpt>
      <trkpt lat="46.21546" lon="-1.50224">
        <ele>3</ele>
        <time>2025-06-30T07:33:47Z</time>
      </trkpt>
      <trkpt lat="46.21547" lon="-1.50212">
        <ele>3</ele>
        <time>2025-06-30T07:33:54Z</time>
      </trkpt>
      <trkpt lat="46.2155" lon="-1.502">
        <ele>3</ele>
        <time>2025-06-30T07:34:01Z</time>
      </trkpt>
      <trkpt lat="46.21555" lon="-1.50188">
        <ele>2.8</ele>
        <time>2025-06-30T07:34:08Z</time>
      </trkpt>
      <trkpt lat="46.21555" lon="-1.50186">
        <ele>2.6</ele>
        <time>2025-06-30T07:34:09Z</time>
      </trkpt>
      <trkpt lat="46.21561" lon="-1.50172">
        <ele>2.6</ele>
        <time>2025-06-30T07:34:18Z</time>
      </trkpt>
      <trkpt lat="46.21569" lon="-1.50157">
        <ele>2.4</ele>
        <time>2025-06-30T07:34:27Z</time>
      </trkpt>
      <trkpt lat="46.21574" lon="-1.50147">
        <ele>2.4</ele>
        <time>2025-06-30T07:34:34Z</time>
      </trkpt>
      <trkpt lat="46.21574" lon="-1.50145">
        <ele>2.4</ele>
        <time>2025-06-30T07:34:35Z</time>
      </trkpt>
      <trkpt lat="46.21574" lon="-1.50144">
        <ele>2.4</ele>
        <time>2025-06-30T07:34:36Z</time>
      </trkpt>
      <trkpt lat="46.21577" lon="-1.50138">
        <ele>2.4</ele>
        <time>2025-06-30T07:34:39Z</time>
      </trkpt>
      <trkpt lat="46.21581" lon="-1.50129">
        <ele>2.2</ele>
        <time>2025-06-30T07:34:45Z</time>
      </trkpt>
      <trkpt lat="46.21588" lon="-1.50118">
        <ele>2.2</ele>
        <time>2025-06-30T07:34:54Z</time>
      </trkpt>
      <trkpt lat="46.21592" lon="-1.50113">
        <ele>2</ele>
        <time>2025-06-30T07:34:58Z</time>
      </trkpt>
      <trkpt lat="46.21598" lon="-1.50102">
        <ele>2</ele>
        <time>2025-06-30T07:35:05Z</time>
      </trkpt>
      <trkpt lat="46.21606" lon="-1.50089">
        <ele>2</ele>
        <time>2025-06-30T07:35:15Z</time>
      </trkpt>
      <trkpt lat="46.21607" lon="-1.50089">
        <ele>2</ele>
        <time>2025-06-30T07:35:19Z</time>
      </trkpt>
      <trkpt lat="46.21617" lon="-1.50089">
        <ele>2</ele>
        <time>2025-06-30T07:35:26Z</time>
      </trkpt>
      <trkpt lat="46.21628" lon="-1.50085">
        <ele>1.8</ele>
        <time>2025-06-30T07:35:34Z</time>
      </trkpt>
      <trkpt lat="46.21637" lon="-1.50075">
        <ele>1.6</ele>
        <time>2025-06-30T07:35:42Z</time>
      </trkpt>
      <trkpt lat="46.21639" lon="-1.50073">
        <ele>1.6</ele>
        <time>2025-06-30T07:35:44Z</time>
      </trkpt>
      <trkpt lat="46.21642" lon="-1.50068">
        <ele>1.6</ele>
        <time>2025-06-30T07:35:48Z</time>
      </trkpt>
      <trkpt lat="46.2165" lon="-1.50051">
        <ele>1.6</ele>
        <time>2025-06-30T07:35:58Z</time>
      </trkpt>
      <trkpt lat="46.21656" lon="-1.50036">
        <ele>1.8</ele>
        <time>2025-06-30T07:36:07Z</time>
      </trkpt>
      <trkpt lat="46.21658" lon="-1.5003">
        <ele>2</ele>
        <time>2025-06-30T07:36:10Z</time>
      </trkpt>
      <trkpt lat="46.21659" lon="-1.50023">
        <ele>2</ele>
        <time>2025-06-30T07:36:13Z</time>
      </trkpt>
      <trkpt lat="46.21659" lon="-1.50017">
        <ele>1.8</ele>
        <time>2025-06-30T07:36:16Z</time>
      </trkpt>
      <trkpt lat="46.21659" lon="-1.50015">
        <ele>1.8</ele>
        <time>2025-06-30T07:36:17Z</time>
      </trkpt>
      <trkpt lat="46.21659" lon="-1.50013">
        <ele>1.6</ele>
        <time>2025-06-30T07:36:18Z</time>
      </trkpt>
      <trkpt lat="46.21659" lon="-1.49995">
        <ele>1.8</ele>
        <time>2025-06-30T07:36:27Z</time>
      </trkpt>
      <trkpt lat="46.21657" lon="-1.49978">
        <ele>1.6</ele>
        <time>2025-06-30T07:36:36Z</time>
      </trkpt>
      <trkpt lat="46.21655" lon="-1.49961">
        <ele>1.6</ele>
        <time>2025-06-30T07:36:44Z</time>
      </trkpt>
      <trkpt lat="46.2165" lon="-1.49938">
        <ele>1.6</ele>
        <time>2025-06-30T07:36:56Z</time>
      </trkpt>
      <trkpt lat="46.21646" lon="-1.49926">
        <ele>1.8</ele>
        <time>2025-06-30T07:37:03Z</time>
      </trkpt>
      <trkpt lat="46.21641" lon="-1.49914">
        <ele>1.8</ele>
        <time>2025-06-30T07:37:11Z</time>
      </trkpt>
      <trkpt lat="46.21633" lon="-1.49894">
        <ele>1.8</ele>
        <time>2025-06-30T07:37:23Z</time>
      </trkpt>
      <trkpt lat="46.21627" lon="-1.49877">
        <ele>1.4</ele>
        <time>2025-06-30T07:37:33Z</time>
      </trkpt>
      <trkpt lat="46.2162" lon="-1.4986">
        <ele>1.6</ele>
        <time>2025-06-30T07:37:43Z</time>
      </trkpt>
      <trkpt lat="46.21614" lon="-1.49841">
        <ele>1.4</ele>
        <time>2025-06-30T07:37:54Z</time>
      </trkpt>
      <trkpt lat="46.21611" lon="-1.49834">
        <ele>1.2</ele>
        <time>2025-06-30T07:37:58Z</time>
      </trkpt>
      <trkpt lat="46.21608" lon="-1.4983">
        <ele>1</ele>
        <time>2025-06-30T07:38:01Z</time>
      </trkpt>
      <trkpt lat="46.21605" lon="-1.49827">
        <ele>1</ele>
        <time>2025-06-30T07:38:04Z</time>
      </trkpt>
      <trkpt lat="46.21598" lon="-1.49821">
        <ele>1.2</ele>
        <time>2025-06-30T07:38:11Z</time>
      </trkpt>
      <trkpt lat="46.21595" lon="-1.49814">
        <ele>1.2</ele>
        <time>2025-06-30T07:38:15Z</time>
      </trkpt>
      <trkpt lat="46.21593" lon="-1.49804">
        <ele>0.80000000000001</ele>
        <time>2025-06-30T07:38:22Z</time>
      </trkpt>
      <trkpt lat="46.21592" lon="-1.49801">
        <ele>0.80000000000001</ele>
        <time>2025-06-30T07:38:23Z</time>
      </trkpt>
      <trkpt lat="46.21592" lon="-1.49791">
        <ele>0.39999999999998</ele>
        <time>2025-06-30T07:38:29Z</time>
      </trkpt>
      <trkpt lat="46.21591" lon="-1.49791">
        <ele>0.39999999999998</ele>
        <time>2025-06-30T07:38:33Z</time>
      </trkpt>
      <trkpt lat="46.21592" lon="-1.49793">
        <ele>0.19999999999999</ele>
        <time>2025-06-30T07:38:45Z</time>
      </trkpt>
      <trkpt lat="46.21592" lon="-1.49793">
        <ele>0.19999999999999</ele>
        <time>2025-06-30T07:38:52Z</time>
      </trkpt>
      <trkpt lat="46.21592" lon="-1.49793">
        <ele>0.19999999999999</ele>
        <time>2025-06-30T07:39:02Z</time>
      </trkpt>
      <trkpt lat="46.21592" lon="-1.49792">
        <ele>0.19999999999999</ele>
        <time>2025-06-30T07:39:09Z</time>
      </trkpt>
      <trkpt lat="46.21592" lon="-1.49792">
        <ele>0.19999999999999</ele>
        <time>2025-06-30T07:39:11Z</time>
      </trkpt>
      <trkpt lat="46.21592" lon="-1.49792">
        <ele>-0.19999999999999</ele>
        <time>2025-06-30T07:39:24Z</time>
      </trkpt>
      <trkpt lat="46.21592" lon="-1.49792">
        <ele>-0.19999999999999</ele>
        <time>2025-06-30T07:39:26Z</time>
      </trkpt>
      <trkpt lat="46.21592" lon="-1.49789">
        <ele>-0.60000000000002</ele>
        <time>2025-06-30T07:39:33Z</time>
      </trkpt>
      <trkpt lat="46.2159" lon="-1.49786">
        <ele>-0.60000000000002</ele>
        <time>2025-06-30T07:39:47Z</time>
      </trkpt>
      <trkpt lat="46.21588" lon="-1.49779">
        <ele>-0.39999999999998</ele>
        <time>2025-06-30T07:39:50Z</time>
      </trkpt>
      <trkpt lat="46.21587" lon="-1.49777">
        <ele>-0.39999999999998</ele>
        <time>2025-06-30T07:39:51Z</time>
      </trkpt>
      <trkpt lat="46.21582" lon="-1.49763">
        <ele>-0.60000000000002</ele>
        <time>2025-06-30T07:39:56Z</time>
      </trkpt>
      <trkpt lat="46.21574" lon="-1.49741">
        <ele>-0.39999999999998</ele>
        <time>2025-06-30T07:40:09Z</time>
      </trkpt>
      <trkpt lat="46.21567" lon="-1.49722">
        <ele>-0.39999999999998</ele>
        <time>2025-06-30T07:40:20Z</time>
      </trkpt>
      <trkpt lat="46.21561" lon="-1.49699">
        <ele>-0.39999999999998</ele>
        <time>2025-06-30T07:40:32Z</time>
      </trkpt>
      <trkpt lat="46.21558" lon="-1.49684">
        <ele>-0.39999999999998</ele>
        <time>2025-06-30T07:40:40Z</time>
      </trkpt>
      <trkpt lat="46.21556" lon="-1.49676">
        <ele>-0.39999999999998</ele>
        <time>2025-06-30T07:40:44Z</time>
      </trkpt>
      <trkpt lat="46.21553" lon="-1.4966">
        <ele>-0.19999999999999</ele>
        <time>2025-06-30T07:40:53Z</time>
      </trkpt>
      <trkpt lat="46.21548" lon="-1.49644">
        <ele>-0.19999999999999</ele>
        <time>2025-06-30T07:41:03Z</time>
      </trkpt>
      <trkpt lat="46.21546" lon="-1.49641">
        <ele>-0.39999999999998</ele>
        <time>2025-06-30T07:41:05Z</time>
      </trkpt>
      <trkpt lat="46.21544" lon="-1.49638">
        <ele>-0.39999999999998</ele>
        <time>2025-06-30T07:41:07Z</time>
      </trkpt>
      <trkpt lat="46.21537" lon="-1.4963">
        <ele>-0.60000000000002</ele>
        <time>2025-06-30T07:41:13Z</time>
      </trkpt>
      <trkpt lat="46.21526" lon="-1.49621">
        <ele>-0.60000000000002</ele>
        <time>2025-06-30T07:41:22Z</time>
      </trkpt>
      <trkpt lat="46.21514" lon="-1.49612">
        <ele>-0.39999999999998</ele>
        <time>2025-06-30T07:41:32Z</time>
      </trkpt>
      <trkpt lat="46.21507" lon="-1.49609">
        <ele>-0.39999999999998</ele>
        <time>2025-06-30T07:41:37Z</time>
      </trkpt>
      <trkpt lat="46.21506" lon="-1.49608">
        <ele>-0.39999999999998</ele>
        <time>2025-06-30T07:41:38Z</time>
      </trkpt>
      <trkpt lat="46.21503" lon="-1.49607">
        <ele>-0.39999999999998</ele>
        <time>2025-06-30T07:41:40Z</time>
      </trkpt>
      <trkpt lat="46.21494" lon="-1.49606">
        <ele>-0.60000000000002</ele>
        <time>2025-06-30T07:41:47Z</time>
      </trkpt>
      <trkpt lat="46.21487" lon="-1.49615">
        <ele>-0.60000000000002</ele>
        <time>2025-06-30T07:41:54Z</time>
      </trkpt>
      <trkpt lat="46.21479" lon="-1.49631">
        <ele>-0.80000000000001</ele>
        <time>2025-06-30T07:42:04Z</time>
      </trkpt>
      <trkpt lat="46.21468" lon="-1.49642">
        <ele>-0.80000000000001</ele>
        <time>2025-06-30T07:42:14Z</time>
      </trkpt>
      <trkpt lat="46.21465" lon="-1.49645">
        <ele>-1</ele>
        <time>2025-06-30T07:42:17Z</time>
      </trkpt>
      <trkpt lat="46.21463" lon="-1.49644">
        <ele>-1</ele>
        <time>2025-06-30T07:42:19Z</time>
      </trkpt>
      <trkpt lat="46.2146" lon="-1.49641">
        <ele>-1</ele>
        <time>2025-06-30T07:42:21Z</time>
      </trkpt>
      <trkpt lat="46.21458" lon="-1.49632">
        <ele>-0.80000000000001</ele>
        <time>2025-06-30T07:42:27Z</time>
      </trkpt>
      <trkpt lat="46.21456" lon="-1.49629">
        <ele>-1</ele>
        <time>2025-06-30T07:42:30Z</time>
      </trkpt>
      <trkpt lat="46.21456" lon="-1.49626">
        <ele>-1</ele>
        <time>2025-06-30T07:42:31Z</time>
      </trkpt>
      <trkpt lat="46.21453" lon="-1.49619">
        <ele>-1</ele>
        <time>2025-06-30T07:42:35Z</time>
      </trkpt>
      <trkpt lat="46.21449" lon="-1.49609">
        <ele>-1.2</ele>
        <time>2025-06-30T07:42:41Z</time>
      </trkpt>
      <trkpt lat="46.21445" lon="-1.49602">
        <ele>-1.2</ele>
        <time>2025-06-30T07:42:45Z</time>
      </trkpt>
      <trkpt lat="46.21435" lon="-1.49589">
        <ele>-0.80000000000001</ele>
        <time>2025-06-30T07:42:55Z</time>
      </trkpt>
      <trkpt lat="46.21425" lon="-1.49569">
        <ele>-0.60000000000002</ele>
        <time>2025-06-30T07:43:08Z</time>
      </trkpt>
      <trkpt lat="46.21413" lon="-1.49554">
        <ele>-0.60000000000002</ele>
        <time>2025-06-30T07:43:20Z</time>
      </trkpt>
      <trkpt lat="46.21404" lon="-1.49538">
        <ele>-0.60000000000002</ele>
        <time>2025-06-30T07:43:31Z</time>
      </trkpt>
      <trkpt lat="46.21395" lon="-1.49525">
        <ele>-0.80000000000001</ele>
        <time>2025-06-30T07:43:40Z</time>
      </trkpt>
      <trkpt lat="46.21395" lon="-1.49523">
        <ele>-0.80000000000001</ele>
        <time>2025-06-30T07:43:41Z</time>
      </trkpt>
      <trkpt lat="46.21387" lon="-1.49509">
        <ele>-0.60000000000002</ele>
        <time>2025-06-30T07:43:51Z</time>
      </trkpt>
      <trkpt lat="46.21378" lon="-1.49493">
        <ele>-0.60000000000002</ele>
        <time>2025-06-30T07:44:02Z</time>
      </trkpt>
      <trkpt lat="46.21372" lon="-1.49486">
        <ele>-0.60000000000002</ele>
        <time>2025-06-30T07:44:07Z</time>
      </trkpt>
      <trkpt lat="46.21365" lon="-1.49477">
        <ele>-0.60000000000002</ele>
        <time>2025-06-30T07:44:14Z</time>
      </trkpt>
      <trkpt lat="46.21353" lon="-1.49459">
        <ele>-0.60000000000002</ele>
        <time>2025-06-30T07:44:28Z</time>
      </trkpt>
      <trkpt lat="46.21345" lon="-1.49449">
        <ele>-0.39999999999998</ele>
        <time>2025-06-30T07:44:36Z</time>
      </trkpt>
      <trkpt lat="46.21343" lon="-1.49445">
        <ele>-0.60000000000002</ele>
        <time>2025-06-30T07:44:38Z</time>
      </trkpt>
      <trkpt lat="46.21332" lon="-1.49428">
        <ele>-0.39999999999998</ele>
        <time>2025-06-30T07:44:49Z</time>
      </trkpt>
      <trkpt lat="46.21329" lon="-1.49423">
        <ele>-0.39999999999998</ele>
        <time>2025-06-30T07:44:53Z</time>
      </trkpt>
      <trkpt lat="46.21324" lon="-1.49415">
        <ele>-0.60000000000002</ele>
        <time>2025-06-30T07:44:58Z</time>
      </trkpt>
      <trkpt lat="46.2132" lon="-1.49409">
        <ele>-0.60000000000002</ele>
        <time>2025-06-30T07:45:03Z</time>
      </trkpt>
      <trkpt lat="46.21317" lon="-1.49405">
        <ele>-0.39999999999998</ele>
        <time>2025-06-30T07:45:06Z</time>
      </trkpt>
      <trkpt lat="46.21315" lon="-1.494">
        <ele>-0.39999999999998</ele>
        <time>2025-06-30T07:45:09Z</time>
      </trkpt>
      <trkpt lat="46.21313" lon="-1.49395">
        <ele>-0.39999999999998</ele>
        <time>2025-06-30T07:45:12Z</time>
      </trkpt>
      <trkpt lat="46.21306" lon="-1.49382">
        <ele>-0.60000000000002</ele>
        <time>2025-06-30T07:45:20Z</time>
      </trkpt>
      <trkpt lat="46.21304" lon="-1.49379">
        <ele>-0.60000000000002</ele>
        <time>2025-06-30T07:45:22Z</time>
      </trkpt>
      <trkpt lat="46.21297" lon="-1.49368">
        <ele>-0.60000000000002</ele>
        <time>2025-06-30T07:45:30Z</time>
      </trkpt>
      <trkpt lat="46.21288" lon="-1.49357">
        <ele>-0.60000000000002</ele>
        <time>2025-06-30T07:45:40Z</time>
      </trkpt>
      <trkpt lat="46.21274" lon="-1.49351">
        <ele>-0.60000000000002</ele>
        <time>2025-06-30T07:45:50Z</time>
      </trkpt>
      <trkpt lat="46.21263" lon="-1.49349">
        <ele>-0.39999999999998</ele>
        <time>2025-06-30T07:45:58Z</time>
      </trkpt>
      <trkpt lat="46.21254" lon="-1.49349">
        <ele>-0.39999999999998</ele>
        <time>2025-06-30T07:46:06Z</time>
      </trkpt>
      <trkpt lat="46.21255" lon="-1.49349">
        <ele>-0.60000000000002</ele>
        <time>2025-06-30T07:46:11Z</time>
      </trkpt>
      <trkpt lat="46.21255" lon="-1.4935">
        <ele>-0.39999999999998</ele>
        <time>2025-06-30T07:46:20Z</time>
      </trkpt>
      <trkpt lat="46.21255" lon="-1.4935">
        <ele>-0.19999999999999</ele>
        <time>2025-06-30T07:46:23Z</time>
      </trkpt>
      <trkpt lat="46.21255" lon="-1.4935">
        <ele>-0.80000000000001</ele>
        <time>2025-06-30T07:46:30Z</time>
      </trkpt>
      <trkpt lat="46.21252" lon="-1.49353">
        <ele>-0.60000000000002</ele>
        <time>2025-06-30T07:46:36Z</time>
      </trkpt>
      <trkpt lat="46.21249" lon="-1.49357">
        <ele>-0.60000000000002</ele>
        <time>2025-06-30T07:46:38Z</time>
      </trkpt>
      <trkpt lat="46.21242" lon="-1.49374">
        <ele>-0.39999999999998</ele>
        <time>2025-06-30T07:46:47Z</time>
      </trkpt>
      <trkpt lat="46.21242" lon="-1.49376">
        <ele>-0.39999999999998</ele>
        <time>2025-06-30T07:46:48Z</time>
      </trkpt>
      <trkpt lat="46.21239" lon="-1.49395">
        <ele>-0.60000000000002</ele>
        <time>2025-06-30T07:46:58Z</time>
      </trkpt>
      <trkpt lat="46.21237" lon="-1.49407">
        <ele>-0.60000000000002</ele>
        <time>2025-06-30T07:47:04Z</time>
      </trkpt>
      <trkpt lat="46.21237" lon="-1.49411">
        <ele>-0.60000000000002</ele>
        <time>2025-06-30T07:47:06Z</time>
      </trkpt>
      <trkpt lat="46.21236" lon="-1.49414">
        <ele>-0.60000000000002</ele>
        <time>2025-06-30T07:47:08Z</time>
      </trkpt>
      <trkpt lat="46.21235" lon="-1.49426">
        <ele>-0.60000000000002</ele>
        <time>2025-06-30T07:47:14Z</time>
      </trkpt>
      <trkpt lat="46.21234" lon="-1.49435">
        <ele>-0.19999999999999</ele>
        <time>2025-06-30T07:47:19Z</time>
      </trkpt>
      <trkpt lat="46.21233" lon="-1.49437">
        <ele>-0.19999999999999</ele>
        <time>2025-06-30T07:47:20Z</time>
      </trkpt>
      <trkpt lat="46.21231" lon="-1.49457">
        <ele>-0.19999999999999</ele>
        <time>2025-06-30T07:47:30Z</time>
      </trkpt>
      <trkpt lat="46.21227" lon="-1.49477">
        <ele>-0.19999999999999</ele>
        <time>2025-06-30T07:47:40Z</time>
      </trkpt>
      <trkpt lat="46.21226" lon="-1.49482">
        <ele>-0.19999999999999</ele>
        <time>2025-06-30T07:47:43Z</time>
      </trkpt>
      <trkpt lat="46.21223" lon="-1.49496">
        <ele>0.19999999999999</ele>
        <time>2025-06-30T07:47:50Z</time>
      </trkpt>
      <trkpt lat="46.21222" lon="-1.49497">
        <ele>0.19999999999999</ele>
        <time>2025-06-30T07:47:51Z</time>
      </trkpt>
      <trkpt lat="46.21218" lon="-1.49499">
        <ele>0.19999999999999</ele>
        <time>2025-06-30T07:47:54Z</time>
      </trkpt>
      <trkpt lat="46.21215" lon="-1.49498">
        <ele>0.19999999999999</ele>
        <time>2025-06-30T07:47:57Z</time>
      </trkpt>
      <trkpt lat="46.21207" lon="-1.49489">
        <ele>0.60000000000002</ele>
        <time>2025-06-30T07:48:04Z</time>
      </trkpt>
      <trkpt lat="46.21204" lon="-1.49482">
        <ele>0.80000000000001</ele>
        <time>2025-06-30T07:48:08Z</time>
      </trkpt>
      <trkpt lat="46.21199" lon="-1.49475">
        <ele>0.80000000000001</ele>
        <time>2025-06-30T07:48:12Z</time>
      </trkpt>
      <trkpt lat="46.21191" lon="-1.4946">
        <ele>1</ele>
        <time>2025-06-30T07:48:22Z</time>
      </trkpt>
      <trkpt lat="46.21182" lon="-1.49446">
        <ele>1</ele>
        <time>2025-06-30T07:48:32Z</time>
      </trkpt>
      <trkpt lat="46.21179" lon="-1.49442">
        <ele>1</ele>
        <time>2025-06-30T07:48:35Z</time>
      </trkpt>
      <trkpt lat="46.21168" lon="-1.49431">
        <ele>1.6</ele>
        <time>2025-06-30T07:48:45Z</time>
      </trkpt>
      <trkpt lat="46.21165" lon="-1.49428">
        <ele>1.4</ele>
        <time>2025-06-30T07:48:48Z</time>
      </trkpt>
      <trkpt lat="46.21146" lon="-1.49421">
        <ele>1.6</ele>
        <time>2025-06-30T07:49:02Z</time>
      </trkpt>
      <trkpt lat="46.21129" lon="-1.49417">
        <ele>1.6</ele>
        <time>2025-06-30T07:49:15Z</time>
      </trkpt>
      <trkpt lat="46.21117" lon="-1.49413">
        <ele>1.6</ele>
        <time>2025-06-30T07:49:24Z</time>
      </trkpt>
      <trkpt lat="46.21104" lon="-1.49406">
        <ele>1.6</ele>
        <time>2025-06-30T07:49:35Z</time>
      </trkpt>
      <trkpt lat="46.21091" lon="-1.49398">
        <ele>1.6</ele>
        <time>2025-06-30T07:49:45Z</time>
      </trkpt>
      <trkpt lat="46.21089" lon="-1.49396">
        <ele>1.8</ele>
        <time>2025-06-30T07:49:47Z</time>
      </trkpt>
      <trkpt lat="46.2108" lon="-1.49395">
        <ele>2</ele>
        <time>2025-06-30T07:49:54Z</time>
      </trkpt>
      <trkpt lat="46.2107" lon="-1.49405">
        <ele>1.8</ele>
        <time>2025-06-30T07:50:02Z</time>
      </trkpt>
      <trkpt lat="46.21063" lon="-1.4942">
        <ele>1.4</ele>
        <time>2025-06-30T07:50:12Z</time>
      </trkpt>
      <trkpt lat="46.21052" lon="-1.49441">
        <ele>1.2</ele>
        <time>2025-06-30T07:50:25Z</time>
      </trkpt>
      <trkpt lat="46.2105" lon="-1.49443">
        <ele>1.2</ele>
        <time>2025-06-30T07:50:26Z</time>
      </trkpt>
      <trkpt lat="46.21043" lon="-1.49457">
        <ele>1.4</ele>
        <time>2025-06-30T07:50:35Z</time>
      </trkpt>
      <trkpt lat="46.21035" lon="-1.49471">
        <ele>1.2</ele>
        <time>2025-06-30T07:50:45Z</time>
      </trkpt>
      <trkpt lat="46.21026" lon="-1.49484">
        <ele>1.4</ele>
        <time>2025-06-30T07:50:55Z</time>
      </trkpt>
      <trkpt lat="46.21017" lon="-1.49499">
        <ele>1.4</ele>
        <time>2025-06-30T07:51:06Z</time>
      </trkpt>
      <trkpt lat="46.21015" lon="-1.49503">
        <ele>1.4</ele>
        <time>2025-06-30T07:51:08Z</time>
      </trkpt>
      <trkpt lat="46.21006" lon="-1.4952">
        <ele>1.6</ele>
        <time>2025-06-30T07:51:18Z</time>
      </trkpt>
      <trkpt lat="46.21002" lon="-1.49528">
        <ele>1.4</ele>
        <time>2025-06-30T07:51:24Z</time>
      </trkpt>
      <trkpt lat="46.20998" lon="-1.49533">
        <ele>1.4</ele>
        <time>2025-06-30T07:51:28Z</time>
      </trkpt>
      <trkpt lat="46.20992" lon="-1.49544">
        <ele>1.6</ele>
        <time>2025-06-30T07:51:36Z</time>
      </trkpt>
      <trkpt lat="46.20984" lon="-1.49564">
        <ele>1.8</ele>
        <time>2025-06-30T07:51:47Z</time>
      </trkpt>
      <trkpt lat="46.20976" lon="-1.49572">
        <ele>2</ele>
        <time>2025-06-30T07:51:55Z</time>
      </trkpt>
      <trkpt lat="46.20965" lon="-1.49581">
        <ele>2.2</ele>
        <time>2025-06-30T07:52:04Z</time>
      </trkpt>
      <trkpt lat="46.2096" lon="-1.49585">
        <ele>2.2</ele>
        <time>2025-06-30T07:52:08Z</time>
      </trkpt>
      <trkpt lat="46.20949" lon="-1.49597">
        <ele>2.2</ele>
        <time>2025-06-30T07:52:18Z</time>
      </trkpt>
      <trkpt lat="46.20937" lon="-1.49608">
        <ele>2</ele>
        <time>2025-06-30T07:52:29Z</time>
      </trkpt>
      <trkpt lat="46.20937" lon="-1.4961">
        <ele>2.2</ele>
        <time>2025-06-30T07:52:30Z</time>
      </trkpt>
      <trkpt lat="46.20932" lon="-1.49616">
        <ele>2.2</ele>
        <time>2025-06-30T07:52:35Z</time>
      </trkpt>
      <trkpt lat="46.20922" lon="-1.49631">
        <ele>2</ele>
        <time>2025-06-30T07:52:46Z</time>
      </trkpt>
      <trkpt lat="46.2092" lon="-1.49633">
        <ele>2</ele>
        <time>2025-06-30T07:52:48Z</time>
      </trkpt>
      <trkpt lat="46.20915" lon="-1.49631">
        <ele>2.2</ele>
        <time>2025-06-30T07:52:52Z</time>
      </trkpt>
      <trkpt lat="46.20906" lon="-1.49619">
        <ele>2.2</ele>
        <time>2025-06-30T07:53:01Z</time>
      </trkpt>
      <trkpt lat="46.20904" lon="-1.49616">
        <ele>2.4</ele>
        <time>2025-06-30T07:53:08Z</time>
      </trkpt>
      <trkpt lat="46.20901" lon="-1.49611">
        <ele>2.2</ele>
        <time>2025-06-30T07:53:12Z</time>
      </trkpt>
      <trkpt lat="46.209" lon="-1.4961">
        <ele>2.2</ele>
        <time>2025-06-30T07:53:13Z</time>
      </trkpt>
      <trkpt lat="46.20892" lon="-1.49599">
        <ele>2.4</ele>
        <time>2025-06-30T07:53:21Z</time>
      </trkpt>
      <trkpt lat="46.20881" lon="-1.49585">
        <ele>2.4</ele>
        <time>2025-06-30T07:53:32Z</time>
      </trkpt>
      <trkpt lat="46.20881" lon="-1.49583">
        <ele>2.4</ele>
        <time>2025-06-30T07:53:33Z</time>
      </trkpt>
      <trkpt lat="46.20871" lon="-1.49569">
        <ele>2.4</ele>
        <time>2025-06-30T07:53:42Z</time>
      </trkpt>
      <trkpt lat="46.20864" lon="-1.49561">
        <ele>2.2</ele>
        <time>2025-06-30T07:53:49Z</time>
      </trkpt>
      <trkpt lat="46.20863" lon="-1.49559">
        <ele>2.2</ele>
        <time>2025-06-30T07:53:50Z</time>
      </trkpt>
      <trkpt lat="46.20854" lon="-1.49547">
        <ele>1.8</ele>
        <time>2025-06-30T07:53:59Z</time>
      </trkpt>
      <trkpt lat="46.20846" lon="-1.49536">
        <ele>1.6</ele>
        <time>2025-06-30T07:54:07Z</time>
      </trkpt>
      <trkpt lat="46.20841" lon="-1.49527">
        <ele>1.4</ele>
        <time>2025-06-30T07:54:13Z</time>
      </trkpt>
      <trkpt lat="46.20837" lon="-1.49521">
        <ele>1.4</ele>
        <time>2025-06-30T07:54:17Z</time>
      </trkpt>
      <trkpt lat="46.20829" lon="-1.49512">
        <ele>1.6</ele>
        <time>2025-06-30T07:54:24Z</time>
      </trkpt>
      <trkpt lat="46.20822" lon="-1.49502">
        <ele>1.2</ele>
        <time>2025-06-30T07:54:32Z</time>
      </trkpt>
      <trkpt lat="46.20815" lon="-1.49492">
        <ele>1.2</ele>
        <time>2025-06-30T07:54:39Z</time>
      </trkpt>
      <trkpt lat="46.20814" lon="-1.4949">
        <ele>1.2</ele>
        <time>2025-06-30T07:54:40Z</time>
      </trkpt>
      <trkpt lat="46.20814" lon="-1.4949">
        <ele>1.2</ele>
        <time>2025-06-30T07:54:41Z</time>
      </trkpt>
      <trkpt lat="46.20806" lon="-1.49477">
        <ele>1</ele>
        <time>2025-06-30T07:54:49Z</time>
      </trkpt>
      <trkpt lat="46.20799" lon="-1.49463">
        <ele>1</ele>
        <time>2025-06-30T07:54:58Z</time>
      </trkpt>
      <trkpt lat="46.20795" lon="-1.49454">
        <ele>0.80000000000001</ele>
        <time>2025-06-30T07:55:04Z</time>
      </trkpt>
      <trkpt lat="46.20791" lon="-1.49448">
        <ele>0.60000000000002</ele>
        <time>2025-06-30T07:55:08Z</time>
      </trkpt>
      <trkpt lat="46.20783" lon="-1.49433">
        <ele>0.39999999999998</ele>
        <time>2025-06-30T07:55:18Z</time>
      </trkpt>
      <trkpt lat="46.20775" lon="-1.4942">
        <ele>0.60000000000002</ele>
        <time>2025-06-30T07:55:28Z</time>
      </trkpt>
      <trkpt lat="46.20764" lon="-1.49403">
        <ele>0.39999999999998</ele>
        <time>2025-06-30T07:55:40Z</time>
      </trkpt>
      <trkpt lat="46.20764" lon="-1.49402">
        <ele>0.39999999999998</ele>
        <time>2025-06-30T07:55:41Z</time>
      </trkpt>
      <trkpt lat="46.20756" lon="-1.49393">
        <ele>0.39999999999998</ele>
        <time>2025-06-30T07:55:48Z</time>
      </trkpt>
      <trkpt lat="46.2075" lon="-1.49384">
        <ele>0.19999999999999</ele>
        <time>2025-06-30T07:55:55Z</time>
      </trkpt>
      <trkpt lat="46.20743" lon="-1.49376">
        <ele>0.19999999999999</ele>
        <time>2025-06-30T07:56:01Z</time>
      </trkpt>
      <trkpt lat="46.20741" lon="-1.49374">
        <ele>0.19999999999999</ele>
        <time>2025-06-30T07:56:03Z</time>
      </trkpt>
      <trkpt lat="46.20737" lon="-1.49369">
        <ele>0.19999999999999</ele>
        <time>2025-06-30T07:56:07Z</time>
      </trkpt>
      <trkpt lat="46.20736" lon="-1.49368">
        <ele>0.19999999999999</ele>
        <time>2025-06-30T07:56:08Z</time>
      </trkpt>
      <trkpt lat="46.20733" lon="-1.49364">
        <ele>0.19999999999999</ele>
        <time>2025-06-30T07:56:12Z</time>
      </trkpt>
      <trkpt lat="46.20724" lon="-1.49359">
        <ele>0.19999999999999</ele>
        <time>2025-06-30T07:56:19Z</time>
      </trkpt>
      <trkpt lat="46.20712" lon="-1.49355">
        <ele>-0.19999999999999</ele>
        <time>2025-06-30T07:56:29Z</time>
      </trkpt>
      <trkpt lat="46.20709" lon="-1.49351">
        <ele>-0.39999999999998</ele>
        <time>2025-06-30T07:56:32Z</time>
      </trkpt>
      <trkpt lat="46.20709" lon="-1.49349">
        <ele>-0.39999999999998</ele>
        <time>2025-06-30T07:56:33Z</time>
      </trkpt>
      <trkpt lat="46.2071" lon="-1.49334">
        <ele>-0.60000000000002</ele>
        <time>2025-06-30T07:56:41Z</time>
      </trkpt>
      <trkpt lat="46.20712" lon="-1.49332">
        <ele>-0.80000000000001</ele>
        <time>2025-06-30T07:56:47Z</time>
      </trkpt>
      <trkpt lat="46.20709" lon="-1.49326">
        <ele>-0.80000000000001</ele>
        <time>2025-06-30T07:56:59Z</time>
      </trkpt>
      <trkpt lat="46.20706" lon="-1.49313">
        <ele>-1.4</ele>
        <time>2025-06-30T07:57:05Z</time>
      </trkpt>
      <trkpt lat="46.20704" lon="-1.49307">
        <ele>-2</ele>
        <time>2025-06-30T07:57:08Z</time>
      </trkpt>
      <trkpt lat="46.20691" lon="-1.49289">
        <ele>-1.8</ele>
        <time>2025-06-30T07:57:20Z</time>
      </trkpt>
      <trkpt lat="46.20682" lon="-1.49283">
        <ele>-2</ele>
        <time>2025-06-30T07:57:27Z</time>
      </trkpt>
      <trkpt lat="46.20681" lon="-1.4928">
        <ele>-1.8</ele>
        <time>2025-06-30T07:57:29Z</time>
      </trkpt>
      <trkpt lat="46.20681" lon="-1.49278">
        <ele>-1.8</ele>
        <time>2025-06-30T07:57:30Z</time>
      </trkpt>
      <trkpt lat="46.20681" lon="-1.49278">
        <ele>-1.8</ele>
        <time>2025-06-30T07:57:31Z</time>
      </trkpt>
      <trkpt lat="46.20674" lon="-1.49269">
        <ele>-1.8</ele>
        <time>2025-06-30T07:57:37Z</time>
      </trkpt>
      <trkpt lat="46.20672" lon="-1.49269">
        <ele>-1.8</ele>
        <time>2025-06-30T07:57:38Z</time>
      </trkpt>
      <trkpt lat="46.20665" lon="-1.49266">
        <ele>-2</ele>
        <time>2025-06-30T07:57:43Z</time>
      </trkpt>
      <trkpt lat="46.20653" lon="-1.49263">
        <ele>-1.8</ele>
        <time>2025-06-30T07:57:51Z</time>
      </trkpt>
      <trkpt lat="46.20649" lon="-1.49262">
        <ele>-1.8</ele>
        <time>2025-06-30T07:57:54Z</time>
      </trkpt>
      <trkpt lat="46.20647" lon="-1.49262">
        <ele>-1.8</ele>
        <time>2025-06-30T07:57:55Z</time>
      </trkpt>
      <trkpt lat="46.20645" lon="-1.49261">
        <ele>-1.8</ele>
        <time>2025-06-30T07:57:57Z</time>
      </trkpt>
      <trkpt lat="46.20642" lon="-1.49258">
        <ele>-2</ele>
        <time>2025-06-30T07:58:00Z</time>
      </trkpt>
      <trkpt lat="46.20638" lon="-1.49245">
        <ele>-1.8</ele>
        <time>2025-06-30T07:58:07Z</time>
      </trkpt>
      <trkpt lat="46.20638" lon="-1.49243">
        <ele>-1.8</ele>
        <time>2025-06-30T07:58:08Z</time>
      </trkpt>
      <trkpt lat="46.20635" lon="-1.49227">
        <ele>-2</ele>
        <time>2025-06-30T07:58:17Z</time>
      </trkpt>
      <trkpt lat="46.20627" lon="-1.49219">
        <ele>-1.8</ele>
        <time>2025-06-30T07:58:24Z</time>
      </trkpt>
      <trkpt lat="46.20616" lon="-1.4922">
        <ele>-1.8</ele>
        <time>2025-06-30T07:58:32Z</time>
      </trkpt>
      <trkpt lat="46.20603" lon="-1.49224">
        <ele>-1.6</ele>
        <time>2025-06-30T07:58:42Z</time>
      </trkpt>
      <trkpt lat="46.20589" lon="-1.49225">
        <ele>-2</ele>
        <time>2025-06-30T07:58:51Z</time>
      </trkpt>
      <trkpt lat="46.20579" lon="-1.49215">
        <ele>-1.8</ele>
        <time>2025-06-30T07:59:00Z</time>
      </trkpt>
      <trkpt lat="46.20577" lon="-1.49212">
        <ele>-1.8</ele>
        <time>2025-06-30T07:59:02Z</time>
      </trkpt>
      <trkpt lat="46.20576" lon="-1.49202">
        <ele>-1.8</ele>
        <time>2025-06-30T07:59:07Z</time>
      </trkpt>
      <trkpt lat="46.20576" lon="-1.492">
        <ele>-1.8</ele>
        <time>2025-06-30T07:59:08Z</time>
      </trkpt>
      <trkpt lat="46.20575" lon="-1.49196">
        <ele>-1.8</ele>
        <time>2025-06-30T07:59:10Z</time>
      </trkpt>
      <trkpt lat="46.20574" lon="-1.49192">
        <ele>-1.8</ele>
        <time>2025-06-30T07:59:12Z</time>
      </trkpt>
      <trkpt lat="46.20571" lon="-1.49181">
        <ele>-1.8</ele>
        <time>2025-06-30T07:59:18Z</time>
      </trkpt>
      <trkpt lat="46.20563" lon="-1.49176">
        <ele>-1.8</ele>
        <time>2025-06-30T07:59:24Z</time>
      </trkpt>
      <trkpt lat="46.20556" lon="-1.49179">
        <ele>-2</ele>
        <time>2025-06-30T07:59:29Z</time>
      </trkpt>
      <trkpt lat="46.20553" lon="-1.49181">
        <ele>-2</ele>
        <time>2025-06-30T07:59:31Z</time>
      </trkpt>
      <trkpt lat="46.20552" lon="-1.49182">
        <ele>-2</ele>
        <time>2025-06-30T07:59:32Z</time>
      </trkpt>
      <trkpt lat="46.20544" lon="-1.4919">
        <ele>-2</ele>
        <time>2025-06-30T07:59:39Z</time>
      </trkpt>
      <trkpt lat="46.20534" lon="-1.49202">
        <ele>-2</ele>
        <time>2025-06-30T07:59:48Z</time>
      </trkpt>
      <trkpt lat="46.20525" lon="-1.49216">
        <ele>-1.6</ele>
        <time>2025-06-30T07:59:58Z</time>
      </trkpt>
      <trkpt lat="46.20518" lon="-1.49239">
        <ele>-1.2</ele>
        <time>2025-06-30T08:00:11Z</time>
      </trkpt>
      <trkpt lat="46.20518" lon="-1.49245">
        <ele>-1.2</ele>
        <time>2025-06-30T08:00:15Z</time>
      </trkpt>
      <trkpt lat="46.20517" lon="-1.49259">
        <ele>-1.4</ele>
        <time>2025-06-30T08:00:22Z</time>
      </trkpt>
      <trkpt lat="46.20515" lon="-1.49279">
        <ele>-1.8</ele>
        <time>2025-06-30T08:00:32Z</time>
      </trkpt>
      <trkpt lat="46.20511" lon="-1.49298">
        <ele>-1.8</ele>
        <time>2025-06-30T08:00:42Z</time>
      </trkpt>
      <trkpt lat="46.20505" lon="-1.49318">
        <ele>-1.6</ele>
        <time>2025-06-30T08:00:52Z</time>
      </trkpt>
      <trkpt lat="46.20505" lon="-1.49321">
        <ele>-1.6</ele>
        <time>2025-06-30T08:00:54Z</time>
      </trkpt>
      <trkpt lat="46.20504" lon="-1.49331">
        <ele>-1.8</ele>
        <time>2025-06-30T08:00:59Z</time>
      </trkpt>
      <trkpt lat="46.20504" lon="-1.49349">
        <ele>-1.6</ele>
        <time>2025-06-30T08:01:08Z</time>
      </trkpt>
      <trkpt lat="46.20503" lon="-1.49367">
        <ele>-1.4</ele>
        <time>2025-06-30T08:01:17Z</time>
      </trkpt>
      <trkpt lat="46.20498" lon="-1.49387">
        <ele>-1</ele>
        <time>2025-06-30T08:01:28Z</time>
      </trkpt>
      <trkpt lat="46.20488" lon="-1.49393">
        <ele>-0.80000000000001</ele>
        <time>2025-06-30T08:01:36Z</time>
      </trkpt>
      <trkpt lat="46.20476" lon="-1.49392">
        <ele>-0.60000000000002</ele>
        <time>2025-06-30T08:01:44Z</time>
      </trkpt>
      <trkpt lat="46.20466" lon="-1.4939">
        <ele>-0.60000000000002</ele>
        <time>2025-06-30T08:01:52Z</time>
      </trkpt>
      <trkpt lat="46.20464" lon="-1.49391">
        <ele>-0.80000000000001</ele>
        <time>2025-06-30T08:01:54Z</time>
      </trkpt>
      <trkpt lat="46.20461" lon="-1.49393">
        <ele>-1</ele>
        <time>2025-06-30T08:01:57Z</time>
      </trkpt>
      <trkpt lat="46.20459" lon="-1.49393">
        <ele>-0.80000000000001</ele>
        <time>2025-06-30T08:02:02Z</time>
      </trkpt>
      <trkpt lat="46.20459" lon="-1.49393">
        <ele>-0.39999999999998</ele>
        <time>2025-06-30T08:02:11Z</time>
      </trkpt>
      <trkpt lat="46.20458" lon="-1.49393">
        <ele>-0.60000000000002</ele>
        <time>2025-06-30T08:02:32Z</time>
      </trkpt>
      <trkpt lat="46.20452" lon="-1.49396">
        <ele>-1</ele>
        <time>2025-06-30T08:02:41Z</time>
      </trkpt>
      <trkpt lat="46.20438" lon="-1.49402">
        <ele>-1</ele>
        <time>2025-06-30T08:02:50Z</time>
      </trkpt>
      <trkpt lat="46.20431" lon="-1.49409">
        <ele>-1</ele>
        <time>2025-06-30T08:02:56Z</time>
      </trkpt>
      <trkpt lat="46.20428" lon="-1.49412">
        <ele>-1.2</ele>
        <time>2025-06-30T08:02:59Z</time>
      </trkpt>
      <trkpt lat="46.20427" lon="-1.49414">
        <ele>-1.2</ele>
        <time>2025-06-30T08:03:00Z</time>
      </trkpt>
      <trkpt lat="46.20421" lon="-1.49422">
        <ele>-1.4</ele>
        <time>2025-06-30T08:03:05Z</time>
      </trkpt>
      <trkpt lat="46.20419" lon="-1.49427">
        <ele>-1.4</ele>
        <time>2025-06-30T08:03:09Z</time>
      </trkpt>
      <trkpt lat="46.20417" lon="-1.49431">
        <ele>-1.4</ele>
        <time>2025-06-30T08:03:13Z</time>
      </trkpt>
      <trkpt lat="46.20416" lon="-1.49433">
        <ele>-1.4</ele>
        <time>2025-06-30T08:03:15Z</time>
      </trkpt>
      <trkpt lat="46.20403" lon="-1.4945">
        <ele>-1.4</ele>
        <time>2025-06-30T08:03:27Z</time>
      </trkpt>
      <trkpt lat="46.20394" lon="-1.49466">
        <ele>-1.6</ele>
        <time>2025-06-30T08:03:37Z</time>
      </trkpt>
      <trkpt lat="46.20385" lon="-1.49483">
        <ele>-1.6</ele>
        <time>2025-06-30T08:03:47Z</time>
      </trkpt>
      <trkpt lat="46.20374" lon="-1.49504">
        <ele>-2</ele>
        <time>2025-06-30T08:04:00Z</time>
      </trkpt>
      <trkpt lat="46.20373" lon="-1.49506">
        <ele>-2</ele>
        <time>2025-06-30T08:04:01Z</time>
      </trkpt>
      <trkpt lat="46.20367" lon="-1.49531">
        <ele>-1.6</ele>
        <time>2025-06-30T08:04:13Z</time>
      </trkpt>
      <trkpt lat="46.20362" lon="-1.49553">
        <ele>-1.4</ele>
        <time>2025-06-30T08:04:25Z</time>
      </trkpt>
      <trkpt lat="46.20358" lon="-1.49566">
        <ele>-1</ele>
        <time>2025-06-30T08:04:33Z</time>
      </trkpt>
      <trkpt lat="46.20355" lon="-1.49581">
        <ele>-0.39999999999998</ele>
        <time>2025-06-30T08:04:42Z</time>
      </trkpt>
      <trkpt lat="46.20351" lon="-1.49593">
        <ele>-0.39999999999998</ele>
        <time>2025-06-30T08:04:49Z</time>
      </trkpt>
      <trkpt lat="46.20352" lon="-1.49596">
        <ele>-0.39999999999998</ele>
        <time>2025-06-30T08:04:51Z</time>
      </trkpt>
      <trkpt lat="46.20352" lon="-1.49614">
        <ele>-0.19999999999999</ele>
        <time>2025-06-30T08:05:00Z</time>
      </trkpt>
      <trkpt lat="46.20353" lon="-1.49618">
        <ele>-0.19999999999999</ele>
        <time>2025-06-30T08:05:02Z</time>
      </trkpt>
      <trkpt lat="46.20355" lon="-1.49626">
        <ele>-0.39999999999998</ele>
        <time>2025-06-30T08:05:07Z</time>
      </trkpt>
      <trkpt lat="46.20358" lon="-1.49645">
        <ele>-0.80000000000001</ele>
        <time>2025-06-30T08:05:17Z</time>
      </trkpt>
      <trkpt lat="46.20353" lon="-1.49661">
        <ele>-0.39999999999998</ele>
        <time>2025-06-30T08:05:26Z</time>
      </trkpt>
      <trkpt lat="46.20346" lon="-1.49673">
        <ele>-0.39999999999998</ele>
        <time>2025-06-30T08:05:35Z</time>
      </trkpt>
      <trkpt lat="46.20338" lon="-1.49682">
        <ele>-0.19999999999999</ele>
        <time>2025-06-30T08:05:43Z</time>
      </trkpt>
      <trkpt lat="46.20337" lon="-1.49685">
        <ele>-0.19999999999999</ele>
        <time>2025-06-30T08:05:45Z</time>
      </trkpt>
      <trkpt lat="46.2033" lon="-1.4969">
        <ele>-0.19999999999999</ele>
        <time>2025-06-30T08:05:51Z</time>
      </trkpt>
      <trkpt lat="46.20327" lon="-1.49691">
        <ele>-0.19999999999999</ele>
        <time>2025-06-30T08:05:54Z</time>
      </trkpt>
      <trkpt lat="46.20326" lon="-1.49692">
        <ele>-0.19999999999999</ele>
        <time>2025-06-30T08:05:57Z</time>
      </trkpt>
      <trkpt lat="46.20325" lon="-1.49689">
        <ele>-0.19999999999999</ele>
        <time>2025-06-30T08:06:01Z</time>
      </trkpt>
      <trkpt lat="46.20324" lon="-1.49687">
        <ele>-0.19999999999999</ele>
        <time>2025-06-30T08:06:03Z</time>
      </trkpt>
      <trkpt lat="46.20319" lon="-1.49673">
        <ele>-0.19999999999999</ele>
        <time>2025-06-30T08:06:11Z</time>
      </trkpt>
      <trkpt lat="46.20313" lon="-1.49658">
        <ele>-0.19999999999999</ele>
        <time>2025-06-30T08:06:21Z</time>
      </trkpt>
      <trkpt lat="46.2031" lon="-1.49648">
        <ele>-0.19999999999999</ele>
        <time>2025-06-30T08:06:27Z</time>
      </trkpt>
      <trkpt lat="46.20308" lon="-1.49643">
        <ele>-0.19999999999999</ele>
        <time>2025-06-30T08:06:30Z</time>
      </trkpt>
      <trkpt lat="46.20305" lon="-1.49637">
        <ele>-0.19999999999999</ele>
        <time>2025-06-30T08:06:33Z</time>
      </trkpt>
      <trkpt lat="46.20297" lon="-1.49621">
        <ele>0.19999999999999</ele>
        <time>2025-06-30T08:06:43Z</time>
      </trkpt>
      <trkpt lat="46.20291" lon="-1.49603">
        <ele>0.19999999999999</ele>
        <time>2025-06-30T08:06:52Z</time>
      </trkpt>
      <trkpt lat="46.20288" lon="-1.49597">
        <ele>0.19999999999999</ele>
        <time>2025-06-30T08:06:55Z</time>
      </trkpt>
      <trkpt lat="46.2028" lon="-1.49578">
        <ele>0.19999999999999</ele>
        <time>2025-06-30T08:07:06Z</time>
      </trkpt>
      <trkpt lat="46.20274" lon="-1.49562">
        <ele>0.39999999999998</ele>
        <time>2025-06-30T08:07:15Z</time>
      </trkpt>
      <trkpt lat="46.20269" lon="-1.49551">
        <ele>0.19999999999999</ele>
        <time>2025-06-30T08:07:22Z</time>
      </trkpt>
      <trkpt lat="46.20268" lon="-1.49547">
        <ele>0.19999999999999</ele>
        <time>2025-06-30T08:07:25Z</time>
      </trkpt>
      <trkpt lat="46.20262" lon="-1.49531">
        <ele>0.19999999999999</ele>
        <time>2025-06-30T08:07:34Z</time>
      </trkpt>
      <trkpt lat="46.20259" lon="-1.49523">
        <ele>0.19999999999999</ele>
        <time>2025-06-30T08:07:38Z</time>
      </trkpt>
      <trkpt lat="46.20255" lon="-1.49513">
        <ele>0.19999999999999</ele>
        <time>2025-06-30T08:07:44Z</time>
      </trkpt>
      <trkpt lat="46.20249" lon="-1.49495">
        <ele>0.19999999999999</ele>
        <time>2025-06-30T08:07:55Z</time>
      </trkpt>
      <trkpt lat="46.20241" lon="-1.49475">
        <ele>0.19999999999999</ele>
        <time>2025-06-30T08:08:06Z</time>
      </trkpt>
      <trkpt lat="46.20233" lon="-1.49456">
        <ele>0.19999999999999</ele>
        <time>2025-06-30T08:08:17Z</time>
      </trkpt>
      <trkpt lat="46.2023" lon="-1.49448">
        <ele>0.19999999999999</ele>
        <time>2025-06-30T08:08:21Z</time>
      </trkpt>
      <trkpt lat="46.20223" lon="-1.49431">
        <ele>-0.19999999999999</ele>
        <time>2025-06-30T08:08:31Z</time>
      </trkpt>
      <trkpt lat="46.20215" lon="-1.4941">
        <ele>-0.39999999999998</ele>
        <time>2025-06-30T08:08:43Z</time>
      </trkpt>
      <trkpt lat="46.2021" lon="-1.49393">
        <ele>-0.60000000000002</ele>
        <time>2025-06-30T08:08:52Z</time>
      </trkpt>
      <trkpt lat="46.2021" lon="-1.49381">
        <ele>-0.60000000000002</ele>
        <time>2025-06-30T08:08:58Z</time>
      </trkpt>
      <trkpt lat="46.20211" lon="-1.49366">
        <ele>-1.2</ele>
        <time>2025-06-30T08:09:06Z</time>
      </trkpt>
      <trkpt lat="46.2021" lon="-1.49364">
        <ele>-1.2</ele>
        <time>2025-06-30T08:09:07Z</time>
      </trkpt>
      <trkpt lat="46.2021" lon="-1.49353">
        <ele>-1.4</ele>
        <time>2025-06-30T08:09:12Z</time>
      </trkpt>
      <trkpt lat="46.2021" lon="-1.4935">
        <ele>-1.2</ele>
        <time>2025-06-30T08:09:15Z</time>
      </trkpt>
      <trkpt lat="46.20211" lon="-1.49342">
        <ele>-1.2</ele>
        <time>2025-06-30T08:09:22Z</time>
      </trkpt>
      <trkpt lat="46.20213" lon="-1.49333">
        <ele>-1.2</ele>
        <time>2025-06-30T08:09:27Z</time>
      </trkpt>
      <trkpt lat="46.20213" lon="-1.49331">
        <ele>-1.4</ele>
        <time>2025-06-30T08:09:29Z</time>
      </trkpt>
      <trkpt lat="46.20212" lon="-1.4933">
        <ele>-1.2</ele>
        <time>2025-06-30T08:09:33Z</time>
      </trkpt>
      <trkpt lat="46.20212" lon="-1.4933">
        <ele>-1.2</ele>
        <time>2025-06-30T08:09:34Z</time>
      </trkpt>
      <trkpt lat="46.20213" lon="-1.49332">
        <ele>-1.2</ele>
        <time>2025-06-30T08:09:40Z</time>
      </trkpt>
      <trkpt lat="46.20213" lon="-1.49332">
        <ele>-1.4</ele>
        <time>2025-06-30T08:09:42Z</time>
      </trkpt>
      <trkpt lat="46.20214" lon="-1.49324">
        <ele>-1.4</ele>
        <time>2025-06-30T08:09:49Z</time>
      </trkpt>
      <trkpt lat="46.2022" lon="-1.49299">
        <ele>-1.8</ele>
        <time>2025-06-30T08:09:58Z</time>
      </trkpt>
      <trkpt lat="46.2022" lon="-1.49297">
        <ele>-1.8</ele>
        <time>2025-06-30T08:09:59Z</time>
      </trkpt>
      <trkpt lat="46.20222" lon="-1.49286">
        <ele>-1.8</ele>
        <time>2025-06-30T08:10:06Z</time>
      </trkpt>
      <trkpt lat="46.20222" lon="-1.4928">
        <ele>-2</ele>
        <time>2025-06-30T08:10:08Z</time>
      </trkpt>
      <trkpt lat="46.20223" lon="-1.49264">
        <ele>-1.8</ele>
        <time>2025-06-30T08:10:16Z</time>
      </trkpt>
      <trkpt lat="46.20225" lon="-1.49251">
        <ele>-2</ele>
        <time>2025-06-30T08:10:24Z</time>
      </trkpt>
      <trkpt lat="46.20225" lon="-1.49251">
        <ele>-2</ele>
        <time>2025-06-30T08:10:30Z</time>
      </trkpt>
      <trkpt lat="46.20224" lon="-1.49245">
        <ele>-1.6</ele>
        <time>2025-06-30T08:10:36Z</time>
      </trkpt>
      <trkpt lat="46.20225" lon="-1.49228">
        <ele>-2.2</ele>
        <time>2025-06-30T08:10:46Z</time>
      </trkpt>
      <trkpt lat="46.20223" lon="-1.49219">
        <ele>-2.4</ele>
        <time>2025-06-30T08:10:50Z</time>
      </trkpt>
      <trkpt lat="46.20222" lon="-1.49211">
        <ele>-2.2</ele>
        <time>2025-06-30T08:10:55Z</time>
      </trkpt>
      <trkpt lat="46.20222" lon="-1.49209">
        <ele>-2.2</ele>
        <time>2025-06-30T08:10:56Z</time>
      </trkpt>
      <trkpt lat="46.20218" lon="-1.49192">
        <ele>-2.2</ele>
        <time>2025-06-30T08:11:07Z</time>
      </trkpt>
      <trkpt lat="46.20217" lon="-1.49189">
        <ele>-2.2</ele>
        <time>2025-06-30T08:11:09Z</time>
      </trkpt>
      <trkpt lat="46.20213" lon="-1.49175">
        <ele>-2.2</ele>
        <time>2025-06-30T08:11:17Z</time>
      </trkpt>
      <trkpt lat="46.2021" lon="-1.49166">
        <ele>-2.2</ele>
        <time>2025-06-30T08:11:23Z</time>
      </trkpt>
      <trkpt lat="46.20208" lon="-1.4916">
        <ele>-2.2</ele>
        <time>2025-06-30T08:11:28Z</time>
      </trkpt>
      <trkpt lat="46.20205" lon="-1.49141">
        <ele>-2</ele>
        <time>2025-06-30T08:11:37Z</time>
      </trkpt>
      <trkpt lat="46.202" lon="-1.49132">
        <ele>-2</ele>
        <time>2025-06-30T08:11:43Z</time>
      </trkpt>
      <trkpt lat="46.202" lon="-1.49126">
        <ele>-2</ele>
        <time>2025-06-30T08:11:46Z</time>
      </trkpt>
      <trkpt lat="46.20195" lon="-1.4911">
        <ele>-2</ele>
        <time>2025-06-30T08:11:55Z</time>
      </trkpt>
      <trkpt lat="46.20189" lon="-1.49092">
        <ele>-1.8</ele>
        <time>2025-06-30T08:12:05Z</time>
      </trkpt>
      <trkpt lat="46.20184" lon="-1.49077">
        <ele>-1.8</ele>
        <time>2025-06-30T08:12:13Z</time>
      </trkpt>
      <trkpt lat="46.2018" lon="-1.49062">
        <ele>-1.8</ele>
        <time>2025-06-30T08:12:21Z</time>
      </trkpt>
      <trkpt lat="46.20178" lon="-1.49055">
        <ele>-1.8</ele>
        <time>2025-06-30T08:12:24Z</time>
      </trkpt>
      <trkpt lat="46.20172" lon="-1.49036">
        <ele>-1.6</ele>
        <time>2025-06-30T08:12:34Z</time>
      </trkpt>
      <trkpt lat="46.2017" lon="-1.49028">
        <ele>-1.8</ele>
        <time>2025-06-30T08:12:38Z</time>
      </trkpt>
      <trkpt lat="46.20167" lon="-1.49019">
        <ele>-1.6</ele>
        <time>2025-06-30T08:12:43Z</time>
      </trkpt>
      <trkpt lat="46.20164" lon="-1.49005">
        <ele>-1.8</ele>
        <time>2025-06-30T08:12:51Z</time>
      </trkpt>
      <trkpt lat="46.20161" lon="-1.48993">
        <ele>-1.8</ele>
        <time>2025-06-30T08:12:57Z</time>
      </trkpt>
      <trkpt lat="46.2016" lon="-1.48988">
        <ele>-1.8</ele>
        <time>2025-06-30T08:13:00Z</time>
      </trkpt>
      <trkpt lat="46.20155" lon="-1.4897">
        <ele>-2</ele>
        <time>2025-06-30T08:13:10Z</time>
      </trkpt>
      <trkpt lat="46.20152" lon="-1.48961">
        <ele>-2.2</ele>
        <time>2025-06-30T08:13:15Z</time>
      </trkpt>
      <trkpt lat="46.2015" lon="-1.48954">
        <ele>-2</ele>
        <time>2025-06-30T08:13:19Z</time>
      </trkpt>
      <trkpt lat="46.20143" lon="-1.48931">
        <ele>-2.2</ele>
        <time>2025-06-30T08:13:32Z</time>
      </trkpt>
      <trkpt lat="46.20142" lon="-1.48928">
        <ele>-2</ele>
        <time>2025-06-30T08:13:34Z</time>
      </trkpt>
      <trkpt lat="46.2014" lon="-1.48922">
        <ele>-2</ele>
        <time>2025-06-30T08:13:38Z</time>
      </trkpt>
      <trkpt lat="46.20135" lon="-1.48904">
        <ele>-2</ele>
        <time>2025-06-30T08:13:47Z</time>
      </trkpt>
      <trkpt lat="46.2013" lon="-1.48887">
        <ele>-2</ele>
        <time>2025-06-30T08:13:56Z</time>
      </trkpt>
      <trkpt lat="46.20126" lon="-1.48873">
        <ele>-2</ele>
        <time>2025-06-30T08:14:04Z</time>
      </trkpt>
      <trkpt lat="46.20122" lon="-1.48862">
        <ele>-2</ele>
        <time>2025-06-30T08:14:11Z</time>
      </trkpt>
      <trkpt lat="46.20122" lon="-1.4886">
        <ele>-2</ele>
        <time>2025-06-30T08:14:12Z</time>
      </trkpt>
      <trkpt lat="46.20119" lon="-1.4885">
        <ele>-2.2</ele>
        <time>2025-06-30T08:14:17Z</time>
      </trkpt>
      <trkpt lat="46.20118" lon="-1.48846">
        <ele>-2</ele>
        <time>2025-06-30T08:14:19Z</time>
      </trkpt>
      <trkpt lat="46.20115" lon="-1.48832">
        <ele>-2</ele>
        <time>2025-06-30T08:14:26Z</time>
      </trkpt>
      <trkpt lat="46.20111" lon="-1.48816">
        <ele>-1.8</ele>
        <time>2025-06-30T08:14:36Z</time>
      </trkpt>
      <trkpt lat="46.2011" lon="-1.48811">
        <ele>-1.8</ele>
        <time>2025-06-30T08:14:38Z</time>
      </trkpt>
      <trkpt lat="46.20107" lon="-1.48794">
        <ele>-1.4</ele>
        <time>2025-06-30T08:14:47Z</time>
      </trkpt>
      <trkpt lat="46.20107" lon="-1.48793">
        <ele>-1.4</ele>
        <time>2025-06-30T08:14:48Z</time>
      </trkpt>
      <trkpt lat="46.20106" lon="-1.48788">
        <ele>-1.4</ele>
        <time>2025-06-30T08:14:51Z</time>
      </trkpt>
      <trkpt lat="46.20105" lon="-1.48782">
        <ele>-1.4</ele>
        <time>2025-06-30T08:14:54Z</time>
      </trkpt>
      <trkpt lat="46.20103" lon="-1.48775">
        <ele>-1.2</ele>
        <time>2025-06-30T08:14:58Z</time>
      </trkpt>
      <trkpt lat="46.20103" lon="-1.48772">
        <ele>-1</ele>
        <time>2025-06-30T08:15:00Z</time>
      </trkpt>
      <trkpt lat="46.20102" lon="-1.48765">
        <ele>-0.60000000000002</ele>
        <time>2025-06-30T08:15:03Z</time>
      </trkpt>
      <trkpt lat="46.20102" lon="-1.48758">
        <ele>-0.60000000000002</ele>
        <time>2025-06-30T08:15:07Z</time>
      </trkpt>
      <trkpt lat="46.20102" lon="-1.48752">
        <ele>-0.39999999999998</ele>
        <time>2025-06-30T08:15:10Z</time>
      </trkpt>
      <trkpt lat="46.20102" lon="-1.48749">
        <ele>-0.39999999999998</ele>
        <time>2025-06-30T08:15:12Z</time>
      </trkpt>
      <trkpt lat="46.20102" lon="-1.48741">
        <ele>-0.39999999999998</ele>
        <time>2025-06-30T08:15:16Z</time>
      </trkpt>
      <trkpt lat="46.20103" lon="-1.4873">
        <ele>-0.19999999999999</ele>
        <time>2025-06-30T08:15:22Z</time>
      </trkpt>
      <trkpt lat="46.20103" lon="-1.48728">
        <ele>-0.19999999999999</ele>
        <time>2025-06-30T08:15:23Z</time>
      </trkpt>
      <trkpt lat="46.20104" lon="-1.48726">
        <ele>-0.19999999999999</ele>
        <time>2025-06-30T08:15:24Z</time>
      </trkpt>
      <trkpt lat="46.20104" lon="-1.48723">
        <ele>-0.19999999999999</ele>
        <time>2025-06-30T08:15:25Z</time>
      </trkpt>
      <trkpt lat="46.20108" lon="-1.48713">
        <ele>-0.60000000000002</ele>
        <time>2025-06-30T08:15:31Z</time>
      </trkpt>
      <trkpt lat="46.20108" lon="-1.48711">
        <ele>-0.60000000000002</ele>
        <time>2025-06-30T08:15:32Z</time>
      </trkpt>
      <trkpt lat="46.20108" lon="-1.48709">
        <ele>-0.39999999999998</ele>
        <time>2025-06-30T08:15:33Z</time>
      </trkpt>
      <trkpt lat="46.20109" lon="-1.48708">
        <ele>-0.19999999999999</ele>
        <time>2025-06-30T08:15:34Z</time>
      </trkpt>
      <trkpt lat="46.2011" lon="-1.48699">
        <ele>-0.19999999999999</ele>
        <time>2025-06-30T08:15:39Z</time>
      </trkpt>
      <trkpt lat="46.20109" lon="-1.48697">
        <ele>-0.19999999999999</ele>
        <time>2025-06-30T08:15:40Z</time>
      </trkpt>
      <trkpt lat="46.20104" lon="-1.48694">
        <ele>-0.19999999999999</ele>
        <time>2025-06-30T08:15:44Z</time>
      </trkpt>
      <trkpt lat="46.20096" lon="-1.48693">
        <ele>-0.39999999999998</ele>
        <time>2025-06-30T08:15:50Z</time>
      </trkpt>
      <trkpt lat="46.20085" lon="-1.48691">
        <ele>-0.19999999999999</ele>
        <time>2025-06-30T08:15:59Z</time>
      </trkpt>
      <trkpt lat="46.20081" lon="-1.48689">
        <ele>-0.19999999999999</ele>
        <time>2025-06-30T08:16:04Z</time>
      </trkpt>
      <trkpt lat="46.2008" lon="-1.48689">
        <ele>-0.19999999999999</ele>
        <time>2025-06-30T08:16:05Z</time>
      </trkpt>
      <trkpt lat="46.20076" lon="-1.48684">
        <ele>-0.19999999999999</ele>
        <time>2025-06-30T08:16:09Z</time>
      </trkpt>
      <trkpt lat="46.20075" lon="-1.48684">
        <ele>-0.19999999999999</ele>
        <time>2025-06-30T08:16:10Z</time>
      </trkpt>
      <trkpt lat="46.20074" lon="-1.48684">
        <ele>-0.19999999999999</ele>
        <time>2025-06-30T08:16:11Z</time>
      </trkpt>
      <trkpt lat="46.20073" lon="-1.48685">
        <ele>0.19999999999999</ele>
        <time>2025-06-30T08:16:12Z</time>
      </trkpt>
      <trkpt lat="46.20061" lon="-1.4869">
        <ele>0.39999999999998</ele>
        <time>2025-06-30T08:16:21Z</time>
      </trkpt>
      <trkpt lat="46.20056" lon="-1.48694">
        <ele>0.60000000000002</ele>
        <time>2025-06-30T08:16:25Z</time>
      </trkpt>
      <trkpt lat="46.20051" lon="-1.48699">
        <ele>0.80000000000001</ele>
        <time>2025-06-30T08:16:29Z</time>
      </trkpt>
      <trkpt lat="46.20049" lon="-1.48701">
        <ele>0.80000000000001</ele>
        <time>2025-06-30T08:16:32Z</time>
      </trkpt>
      <trkpt lat="46.20047" lon="-1.48701">
        <ele>1</ele>
        <time>2025-06-30T08:16:34Z</time>
      </trkpt>
      <trkpt lat="46.20044" lon="-1.48707">
        <ele>1.6</ele>
        <time>2025-06-30T08:16:40Z</time>
      </trkpt>
      <trkpt lat="46.20043" lon="-1.48708">
        <ele>1.8</ele>
        <time>2025-06-30T08:16:41Z</time>
      </trkpt>
      <trkpt lat="46.20043" lon="-1.48716">
        <ele>1.8</ele>
        <time>2025-06-30T08:16:45Z</time>
      </trkpt>
      <trkpt lat="46.20042" lon="-1.48725">
        <ele>2</ele>
        <time>2025-06-30T08:16:51Z</time>
      </trkpt>
      <trkpt lat="46.20041" lon="-1.4874">
        <ele>2.4</ele>
        <time>2025-06-30T08:17:00Z</time>
      </trkpt>
      <trkpt lat="46.20041" lon="-1.48745">
        <ele>2.2</ele>
        <time>2025-06-30T08:17:03Z</time>
      </trkpt>
      <trkpt lat="46.20037" lon="-1.48766">
        <ele>2</ele>
        <time>2025-06-30T08:17:14Z</time>
      </trkpt>
      <trkpt lat="46.20032" lon="-1.48784">
        <ele>2</ele>
        <time>2025-06-30T08:17:23Z</time>
      </trkpt>
      <trkpt lat="46.20032" lon="-1.48788">
        <ele>2</ele>
        <time>2025-06-30T08:17:25Z</time>
      </trkpt>
      <trkpt lat="46.20031" lon="-1.4879">
        <ele>2</ele>
        <time>2025-06-30T08:17:26Z</time>
      </trkpt>
      <trkpt lat="46.20029" lon="-1.48801">
        <ele>2</ele>
        <time>2025-06-30T08:17:32Z</time>
      </trkpt>
      <trkpt lat="46.20028" lon="-1.48808">
        <ele>2.2</ele>
        <time>2025-06-30T08:17:37Z</time>
      </trkpt>
      <trkpt lat="46.20027" lon="-1.48813">
        <ele>2.2</ele>
        <time>2025-06-30T08:17:40Z</time>
      </trkpt>
      <trkpt lat="46.20024" lon="-1.48832">
        <ele>2.8</ele>
        <time>2025-06-30T08:17:49Z</time>
      </trkpt>
      <trkpt lat="46.20024" lon="-1.48835">
        <ele>3</ele>
        <time>2025-06-30T08:17:51Z</time>
      </trkpt>
      <trkpt lat="46.20021" lon="-1.4884">
        <ele>3.2</ele>
        <time>2025-06-30T08:17:55Z</time>
      </trkpt>
      <trkpt lat="46.20019" lon="-1.48847">
        <ele>3.4</ele>
        <time>2025-06-30T08:17:59Z</time>
      </trkpt>
      <trkpt lat="46.20018" lon="-1.48861">
        <ele>3</ele>
        <time>2025-06-30T08:18:07Z</time>
      </trkpt>
      <trkpt lat="46.20016" lon="-1.48868">
        <ele>3</ele>
        <time>2025-06-30T08:18:14Z</time>
      </trkpt>
      <trkpt lat="46.20016" lon="-1.48869">
        <ele>3</ele>
        <time>2025-06-30T08:18:15Z</time>
      </trkpt>
      <trkpt lat="46.20015" lon="-1.4888">
        <ele>3.4</ele>
        <time>2025-06-30T08:18:21Z</time>
      </trkpt>
      <trkpt lat="46.20014" lon="-1.48885">
        <ele>3.4</ele>
        <time>2025-06-30T08:18:24Z</time>
      </trkpt>
      <trkpt lat="46.20014" lon="-1.48889">
        <ele>3.4</ele>
        <time>2025-06-30T08:18:26Z</time>
      </trkpt>
      <trkpt lat="46.20013" lon="-1.48895">
        <ele>3.4</ele>
        <time>2025-06-30T08:18:29Z</time>
      </trkpt>
      <trkpt lat="46.20011" lon="-1.48901">
        <ele>3.8</ele>
        <time>2025-06-30T08:18:33Z</time>
      </trkpt>
      <trkpt lat="46.20011" lon="-1.48904">
        <ele>3.8</ele>
        <time>2025-06-30T08:18:35Z</time>
      </trkpt>
      <trkpt lat="46.20009" lon="-1.48911">
        <ele>3.8</ele>
        <time>2025-06-30T08:18:39Z</time>
      </trkpt>
      <trkpt lat="46.20007" lon="-1.48915">
        <ele>3.8</ele>
        <time>2025-06-30T08:18:41Z</time>
      </trkpt>
      <trkpt lat="46.20002" lon="-1.48927">
        <ele>4</ele>
        <time>2025-06-30T08:18:49Z</time>
      </trkpt>
      <trkpt lat="46.20001" lon="-1.4893">
        <ele>3.8</ele>
        <time>2025-06-30T08:18:51Z</time>
      </trkpt>
      <trkpt lat="46.2" lon="-1.48937">
        <ele>4</ele>
        <time>2025-06-30T08:18:55Z</time>
      </trkpt>
      <trkpt lat="46.19997" lon="-1.48945">
        <ele>4</ele>
        <time>2025-06-30T08:19:00Z</time>
      </trkpt>
      <trkpt lat="46.19995" lon="-1.48947">
        <ele>4</ele>
        <time>2025-06-30T08:19:03Z</time>
      </trkpt>
      <trkpt lat="46.19991" lon="-1.48956">
        <ele>4.2</ele>
        <time>2025-06-30T08:19:10Z</time>
      </trkpt>
      <trkpt lat="46.19984" lon="-1.48972">
        <ele>4.4</ele>
        <time>2025-06-30T08:19:20Z</time>
      </trkpt>
      <trkpt lat="46.19982" lon="-1.48975">
        <ele>4.4</ele>
        <time>2025-06-30T08:19:25Z</time>
      </trkpt>
      <trkpt lat="46.19978" lon="-1.48986">
        <ele>4.4</ele>
        <time>2025-06-30T08:19:31Z</time>
      </trkpt>
      <trkpt lat="46.19973" lon="-1.48997">
        <ele>4.4</ele>
        <time>2025-06-30T08:19:38Z</time>
      </trkpt>
      <trkpt lat="46.19972" lon="-1.48999">
        <ele>4.4</ele>
        <time>2025-06-30T08:19:39Z</time>
      </trkpt>
      <trkpt lat="46.19969" lon="-1.49006">
        <ele>4.6</ele>
        <time>2025-06-30T08:19:43Z</time>
      </trkpt>
      <trkpt lat="46.19967" lon="-1.49012">
        <ele>4.6</ele>
        <time>2025-06-30T08:19:47Z</time>
      </trkpt>
      <trkpt lat="46.19958" lon="-1.4903">
        <ele>4.8</ele>
        <time>2025-06-30T08:19:58Z</time>
      </trkpt>
      <trkpt lat="46.19954" lon="-1.49039">
        <ele>4.6</ele>
        <time>2025-06-30T08:20:04Z</time>
      </trkpt>
      <trkpt lat="46.19952" lon="-1.49042">
        <ele>4.6</ele>
        <time>2025-06-30T08:20:06Z</time>
      </trkpt>
      <trkpt lat="46.19948" lon="-1.4905">
        <ele>4.8</ele>
        <time>2025-06-30T08:20:11Z</time>
      </trkpt>
      <trkpt lat="46.19945" lon="-1.49055">
        <ele>4.8</ele>
        <time>2025-06-30T08:20:14Z</time>
      </trkpt>
      <trkpt lat="46.19937" lon="-1.49068">
        <ele>4.8</ele>
        <time>2025-06-30T08:20:23Z</time>
      </trkpt>
      <trkpt lat="46.19929" lon="-1.49084">
        <ele>5</ele>
        <time>2025-06-30T08:20:34Z</time>
      </trkpt>
      <trkpt lat="46.19921" lon="-1.49096">
        <ele>5</ele>
        <time>2025-06-30T08:20:43Z</time>
      </trkpt>
      <trkpt lat="46.19919" lon="-1.49098">
        <ele>5</ele>
        <time>2025-06-30T08:20:46Z</time>
      </trkpt>
      <trkpt lat="46.19917" lon="-1.491">
        <ele>5.2</ele>
        <time>2025-06-30T08:20:52Z</time>
      </trkpt>
      <trkpt lat="46.19914" lon="-1.49106">
        <ele>5.2</ele>
        <time>2025-06-30T08:21:00Z</time>
      </trkpt>
      <trkpt lat="46.19913" lon="-1.49106">
        <ele>5</ele>
        <time>2025-06-30T08:21:10Z</time>
      </trkpt>
      <trkpt lat="46.19913" lon="-1.49106">
        <ele>5</ele>
        <time>2025-06-30T08:21:11Z</time>
      </trkpt>
      <trkpt lat="46.19911" lon="-1.4911">
        <ele>5.2</ele>
        <time>2025-06-30T08:21:51Z</time>
      </trkpt>
      <trkpt lat="46.19908" lon="-1.49116">
        <ele>5</ele>
        <time>2025-06-30T08:22:00Z</time>
      </trkpt>
      <trkpt lat="46.19903" lon="-1.49121">
        <ele>5</ele>
        <time>2025-06-30T08:22:06Z</time>
      </trkpt>
      <trkpt lat="46.199" lon="-1.49122">
        <ele>4.6</ele>
        <time>2025-06-30T08:22:11Z</time>
      </trkpt>
      <trkpt lat="46.199" lon="-1.49122">
        <ele>4.6</ele>
        <time>2025-06-30T08:22:13Z</time>
      </trkpt>
      <trkpt lat="46.19898" lon="-1.49123">
        <ele>4.4</ele>
        <time>2025-06-30T08:22:21Z</time>
      </trkpt>
      <trkpt lat="46.19894" lon="-1.49129">
        <ele>4.4</ele>
        <time>2025-06-30T08:22:27Z</time>
      </trkpt>
      <trkpt lat="46.19884" lon="-1.49143">
        <ele>4.2</ele>
        <time>2025-06-30T08:22:38Z</time>
      </trkpt>
      <trkpt lat="46.19876" lon="-1.49152">
        <ele>4.4</ele>
        <time>2025-06-30T08:22:46Z</time>
      </trkpt>
      <trkpt lat="46.19867" lon="-1.49163">
        <ele>4.4</ele>
        <time>2025-06-30T08:22:54Z</time>
      </trkpt>
      <trkpt lat="46.19865" lon="-1.49165">
        <ele>4.4</ele>
        <time>2025-06-30T08:22:56Z</time>
      </trkpt>
      <trkpt lat="46.19856" lon="-1.49176">
        <ele>4.4</ele>
        <time>2025-06-30T08:23:05Z</time>
      </trkpt>
      <trkpt lat="46.19848" lon="-1.49185">
        <ele>4.2</ele>
        <time>2025-06-30T08:23:12Z</time>
      </trkpt>
      <trkpt lat="46.19838" lon="-1.49196">
        <ele>4.4</ele>
        <time>2025-06-30T08:23:21Z</time>
      </trkpt>
      <trkpt lat="46.19826" lon="-1.4921">
        <ele>4.4</ele>
        <time>2025-06-30T08:23:33Z</time>
      </trkpt>
      <trkpt lat="46.19812" lon="-1.49227">
        <ele>4.4</ele>
        <time>2025-06-30T08:23:46Z</time>
      </trkpt>
      <trkpt lat="46.19806" lon="-1.49231">
        <ele>4.2</ele>
        <time>2025-06-30T08:23:51Z</time>
      </trkpt>
      <trkpt lat="46.19803" lon="-1.49234">
        <ele>4.2</ele>
        <time>2025-06-30T08:23:54Z</time>
      </trkpt>
      <trkpt lat="46.19798" lon="-1.49238">
        <ele>4.2</ele>
        <time>2025-06-30T08:23:59Z</time>
      </trkpt>
      <trkpt lat="46.19795" lon="-1.4924">
        <ele>4.4</ele>
        <time>2025-06-30T08:24:02Z</time>
      </trkpt>
      <trkpt lat="46.19789" lon="-1.49248">
        <ele>4.2</ele>
        <time>2025-06-30T08:24:09Z</time>
      </trkpt>
      <trkpt lat="46.19779" lon="-1.4926">
        <ele>4.2</ele>
        <time>2025-06-30T08:24:18Z</time>
      </trkpt>
      <trkpt lat="46.19767" lon="-1.49275">
        <ele>4.4</ele>
        <time>2025-06-30T08:24:30Z</time>
      </trkpt>
      <trkpt lat="46.19762" lon="-1.49285">
        <ele>4.4</ele>
        <time>2025-06-30T08:24:36Z</time>
      </trkpt>
      <trkpt lat="46.19759" lon="-1.49291">
        <ele>4.6</ele>
        <time>2025-06-30T08:24:40Z</time>
      </trkpt>
      <trkpt lat="46.19758" lon="-1.49293">
        <ele>4.6</ele>
        <time>2025-06-30T08:24:41Z</time>
      </trkpt>
      <trkpt lat="46.19748" lon="-1.49309">
        <ele>4.4</ele>
        <time>2025-06-30T08:24:52Z</time>
      </trkpt>
      <trkpt lat="46.19743" lon="-1.49314">
        <ele>4.4</ele>
        <time>2025-06-30T08:24:57Z</time>
      </trkpt>
      <trkpt lat="46.19738" lon="-1.49324">
        <ele>4.4</ele>
        <time>2025-06-30T08:25:03Z</time>
      </trkpt>
      <trkpt lat="46.19737" lon="-1.49325">
        <ele>4.4</ele>
        <time>2025-06-30T08:25:04Z</time>
      </trkpt>
      <trkpt lat="46.19724" lon="-1.49344">
        <ele>4.4</ele>
        <time>2025-06-30T08:25:16Z</time>
      </trkpt>
      <trkpt lat="46.19716" lon="-1.49359">
        <ele>4.4</ele>
        <time>2025-06-30T08:25:26Z</time>
      </trkpt>
      <trkpt lat="46.19714" lon="-1.49362">
        <ele>4.4</ele>
        <time>2025-06-30T08:25:28Z</time>
      </trkpt>
      <trkpt lat="46.19706" lon="-1.49372">
        <ele>4.4</ele>
        <time>2025-06-30T08:25:36Z</time>
      </trkpt>
      <trkpt lat="46.19694" lon="-1.49388">
        <ele>4.6</ele>
        <time>2025-06-30T08:25:48Z</time>
      </trkpt>
      <trkpt lat="46.19684" lon="-1.49402">
        <ele>4.6</ele>
        <time>2025-06-30T08:25:59Z</time>
      </trkpt>
      <trkpt lat="46.19673" lon="-1.49423">
        <ele>4.4</ele>
        <time>2025-06-30T08:26:12Z</time>
      </trkpt>
      <trkpt lat="46.19671" lon="-1.49426">
        <ele>4.4</ele>
        <time>2025-06-30T08:26:14Z</time>
      </trkpt>
      <trkpt lat="46.19661" lon="-1.49442">
        <ele>4.2</ele>
        <time>2025-06-30T08:26:27Z</time>
      </trkpt>
      <trkpt lat="46.1966" lon="-1.49444">
        <ele>4.4</ele>
        <time>2025-06-30T08:26:28Z</time>
      </trkpt>
      <trkpt lat="46.19657" lon="-1.49448">
        <ele>4.4</ele>
        <time>2025-06-30T08:26:31Z</time>
      </trkpt>
      <trkpt lat="46.19652" lon="-1.49457">
        <ele>4.4</ele>
        <time>2025-06-30T08:26:37Z</time>
      </trkpt>
      <trkpt lat="46.19648" lon="-1.49462">
        <ele>4.4</ele>
        <time>2025-06-30T08:26:41Z</time>
      </trkpt>
      <trkpt lat="46.19646" lon="-1.49464">
        <ele>4.4</ele>
        <time>2025-06-30T08:26:43Z</time>
      </trkpt>
      <trkpt lat="46.19645" lon="-1.49467">
        <ele>4.4</ele>
        <time>2025-06-30T08:26:45Z</time>
      </trkpt>
      <trkpt lat="46.19637" lon="-1.49482">
        <ele>4.4</ele>
        <time>2025-06-30T08:26:55Z</time>
      </trkpt>
      <trkpt lat="46.19636" lon="-1.49483">
        <ele>4.4</ele>
        <time>2025-06-30T08:26:56Z</time>
      </trkpt>
      <trkpt lat="46.19628" lon="-1.49497">
        <ele>4.4</ele>
        <time>2025-06-30T08:27:06Z</time>
      </trkpt>
      <trkpt lat="46.19623" lon="-1.49509">
        <ele>4.4</ele>
        <time>2025-06-30T08:27:14Z</time>
      </trkpt>
      <trkpt lat="46.19617" lon="-1.49521">
        <ele>4.4</ele>
        <time>2025-06-30T08:27:22Z</time>
      </trkpt>
      <trkpt lat="46.19615" lon="-1.49527">
        <ele>4.4</ele>
        <time>2025-06-30T08:27:26Z</time>
      </trkpt>
      <trkpt lat="46.19615" lon="-1.49527">
        <ele>4.6</ele>
        <time>2025-06-30T08:27:31Z</time>
      </trkpt>
      <trkpt lat="46.19611" lon="-1.49535">
        <ele>4.4</ele>
        <time>2025-06-30T08:27:36Z</time>
      </trkpt>
      <trkpt lat="46.19608" lon="-1.49545">
        <ele>4.6</ele>
        <time>2025-06-30T08:27:42Z</time>
      </trkpt>
      <trkpt lat="46.19602" lon="-1.49565">
        <ele>4.4</ele>
        <time>2025-06-30T08:27:52Z</time>
      </trkpt>
      <trkpt lat="46.196" lon="-1.4957">
        <ele>4.4</ele>
        <time>2025-06-30T08:27:55Z</time>
      </trkpt>
      <trkpt lat="46.19599" lon="-1.49573">
        <ele>4.4</ele>
        <time>2025-06-30T08:27:57Z</time>
      </trkpt>
      <trkpt lat="46.19598" lon="-1.49576">
        <ele>4.4</ele>
        <time>2025-06-30T08:27:59Z</time>
      </trkpt>
      <trkpt lat="46.19595" lon="-1.49583">
        <ele>4.4</ele>
        <time>2025-06-30T08:28:03Z</time>
      </trkpt>
      <trkpt lat="46.19589" lon="-1.496">
        <ele>4.4</ele>
        <time>2025-06-30T08:28:13Z</time>
      </trkpt>
      <trkpt lat="46.19585" lon="-1.4961">
        <ele>4.2</ele>
        <time>2025-06-30T08:28:20Z</time>
      </trkpt>
      <trkpt lat="46.19584" lon="-1.49613">
        <ele>4.2</ele>
        <time>2025-06-30T08:28:22Z</time>
      </trkpt>
      <trkpt lat="46.19584" lon="-1.49614">
        <ele>4.4</ele>
        <time>2025-06-30T08:28:23Z</time>
      </trkpt>
      <trkpt lat="46.19577" lon="-1.49639">
        <ele>4.4</ele>
        <time>2025-06-30T08:28:37Z</time>
      </trkpt>
      <trkpt lat="46.19571" lon="-1.49654">
        <ele>4.6</ele>
        <time>2025-06-30T08:28:46Z</time>
      </trkpt>
      <trkpt lat="46.1957" lon="-1.49655">
        <ele>4.6</ele>
        <time>2025-06-30T08:28:47Z</time>
      </trkpt>
      <trkpt lat="46.19569" lon="-1.49658">
        <ele>4.6</ele>
        <time>2025-06-30T08:28:49Z</time>
      </trkpt>
      <trkpt lat="46.19569" lon="-1.4966">
        <ele>4.6</ele>
        <time>2025-06-30T08:28:50Z</time>
      </trkpt>
      <trkpt lat="46.19566" lon="-1.49673">
        <ele>4.6</ele>
        <time>2025-06-30T08:28:57Z</time>
      </trkpt>
      <trkpt lat="46.19564" lon="-1.49687">
        <ele>4.4</ele>
        <time>2025-06-30T08:29:05Z</time>
      </trkpt>
      <trkpt lat="46.19562" lon="-1.49698">
        <ele>4.8</ele>
        <time>2025-06-30T08:29:12Z</time>
      </trkpt>
      <trkpt lat="46.19558" lon="-1.49715">
        <ele>4.4</ele>
        <time>2025-06-30T08:29:22Z</time>
      </trkpt>
      <trkpt lat="46.19556" lon="-1.49718">
        <ele>4.4</ele>
        <time>2025-06-30T08:29:24Z</time>
      </trkpt>
      <trkpt lat="46.19554" lon="-1.49728">
        <ele>4.4</ele>
        <time>2025-06-30T08:29:29Z</time>
      </trkpt>
      <trkpt lat="46.19551" lon="-1.49739">
        <ele>4.6</ele>
        <time>2025-06-30T08:29:35Z</time>
      </trkpt>
      <trkpt lat="46.19548" lon="-1.49756">
        <ele>4.4</ele>
        <time>2025-06-30T08:29:44Z</time>
      </trkpt>
      <trkpt lat="46.19544" lon="-1.49768">
        <ele>4.4</ele>
        <time>2025-06-30T08:29:52Z</time>
      </trkpt>
      <trkpt lat="46.19542" lon="-1.49778">
        <ele>4.4</ele>
        <time>2025-06-30T08:30:00Z</time>
      </trkpt>
      <trkpt lat="46.19538" lon="-1.4979">
        <ele>4.6</ele>
        <time>2025-06-30T08:30:07Z</time>
      </trkpt>
      <trkpt lat="46.19534" lon="-1.49806">
        <ele>4.6</ele>
        <time>2025-06-30T08:30:15Z</time>
      </trkpt>
      <trkpt lat="46.19533" lon="-1.49807">
        <ele>4.6</ele>
        <time>2025-06-30T08:30:16Z</time>
      </trkpt>
      <trkpt lat="46.1953" lon="-1.49821">
        <ele>4.6</ele>
        <time>2025-06-30T08:30:24Z</time>
      </trkpt>
      <trkpt lat="46.19525" lon="-1.4984">
        <ele>4.6</ele>
        <time>2025-06-30T08:30:34Z</time>
      </trkpt>
      <trkpt lat="46.19519" lon="-1.49856">
        <ele>4.6</ele>
        <time>2025-06-30T08:30:45Z</time>
      </trkpt>
      <trkpt lat="46.19513" lon="-1.49875">
        <ele>4.6</ele>
        <time>2025-06-30T08:30:58Z</time>
      </trkpt>
      <trkpt lat="46.19506" lon="-1.49894">
        <ele>4.4</ele>
        <time>2025-06-30T08:31:09Z</time>
      </trkpt>
      <trkpt lat="46.195" lon="-1.49906">
        <ele>4.6</ele>
        <time>2025-06-30T08:31:18Z</time>
      </trkpt>
      <trkpt lat="46.19499" lon="-1.4991">
        <ele>4.6</ele>
        <time>2025-06-30T08:31:20Z</time>
      </trkpt>
      <trkpt lat="46.19492" lon="-1.49925">
        <ele>4.6</ele>
        <time>2025-06-30T08:31:31Z</time>
      </trkpt>
      <trkpt lat="46.19488" lon="-1.49935">
        <ele>4.6</ele>
        <time>2025-06-30T08:31:36Z</time>
      </trkpt>
      <trkpt lat="46.19486" lon="-1.49941">
        <ele>4.6</ele>
        <time>2025-06-30T08:31:40Z</time>
      </trkpt>
      <trkpt lat="46.1948" lon="-1.49952">
        <ele>4.6</ele>
        <time>2025-06-30T08:31:49Z</time>
      </trkpt>
      <trkpt lat="46.1948" lon="-1.49952">
        <ele>4.6</ele>
        <time>2025-06-30T08:31:50Z</time>
      </trkpt>
      <trkpt lat="46.1948" lon="-1.49952">
        <ele>4.6</ele>
        <time>2025-06-30T08:31:51Z</time>
      </trkpt>
      <trkpt lat="46.1947" lon="-1.49968">
        <ele>4.6</ele>
        <time>2025-06-30T08:32:03Z</time>
      </trkpt>
      <trkpt lat="46.19469" lon="-1.49971">
        <ele>4.6</ele>
        <time>2025-06-30T08:32:05Z</time>
      </trkpt>
      <trkpt lat="46.19467" lon="-1.49977">
        <ele>4.6</ele>
        <time>2025-06-30T08:32:08Z</time>
      </trkpt>
      <trkpt lat="46.19465" lon="-1.49983">
        <ele>4.6</ele>
        <time>2025-06-30T08:32:14Z</time>
      </trkpt>
      <trkpt lat="46.1946" lon="-1.49995">
        <ele>4.8</ele>
        <time>2025-06-30T08:32:21Z</time>
      </trkpt>
      <trkpt lat="46.19457" lon="-1.50001">
        <ele>4.8</ele>
        <time>2025-06-30T08:32:25Z</time>
      </trkpt>
      <trkpt lat="46.19448" lon="-1.50018">
        <ele>4.6</ele>
        <time>2025-06-30T08:32:36Z</time>
      </trkpt>
      <trkpt lat="46.19441" lon="-1.50032">
        <ele>4.6</ele>
        <time>2025-06-30T08:32:45Z</time>
      </trkpt>
      <trkpt lat="46.19437" lon="-1.50044">
        <ele>4.4</ele>
        <time>2025-06-30T08:32:53Z</time>
      </trkpt>
      <trkpt lat="46.19431" lon="-1.50064">
        <ele>4</ele>
        <time>2025-06-30T08:33:06Z</time>
      </trkpt>
      <trkpt lat="46.19427" lon="-1.5008">
        <ele>4</ele>
        <time>2025-06-30T08:33:16Z</time>
      </trkpt>
      <trkpt lat="46.19427" lon="-1.5008">
        <ele>4</ele>
        <time>2025-06-30T08:33:19Z</time>
      </trkpt>
      <trkpt lat="46.19426" lon="-1.50079">
        <ele>4</ele>
        <time>2025-06-30T08:33:53Z</time>
      </trkpt>
      <trkpt lat="46.19426" lon="-1.50079">
        <ele>4</ele>
        <time>2025-06-30T08:33:54Z</time>
      </trkpt>
      <trkpt lat="46.19426" lon="-1.50079">
        <ele>3.8</ele>
        <time>2025-06-30T08:33:57Z</time>
      </trkpt>
      <trkpt lat="46.19422" lon="-1.5009">
        <ele>3.4</ele>
        <time>2025-06-30T08:34:02Z</time>
      </trkpt>
      <trkpt lat="46.19416" lon="-1.50107">
        <ele>3.2</ele>
        <time>2025-06-30T08:34:10Z</time>
      </trkpt>
      <trkpt lat="46.19416" lon="-1.50109">
        <ele>3</ele>
        <time>2025-06-30T08:34:11Z</time>
      </trkpt>
      <trkpt lat="46.19409" lon="-1.50125">
        <ele>3</ele>
        <time>2025-06-30T08:34:20Z</time>
      </trkpt>
      <trkpt lat="46.19403" lon="-1.50146">
        <ele>3</ele>
        <time>2025-06-30T08:34:32Z</time>
      </trkpt>
      <trkpt lat="46.19397" lon="-1.50166">
        <ele>2.8</ele>
        <time>2025-06-30T08:34:43Z</time>
      </trkpt>
      <trkpt lat="46.19396" lon="-1.5017">
        <ele>3</ele>
        <time>2025-06-30T08:34:46Z</time>
      </trkpt>
      <trkpt lat="46.19395" lon="-1.50177">
        <ele>3</ele>
        <time>2025-06-30T08:34:50Z</time>
      </trkpt>
      <trkpt lat="46.19394" lon="-1.50179">
        <ele>3</ele>
        <time>2025-06-30T08:34:53Z</time>
      </trkpt>
      <trkpt lat="46.19394" lon="-1.50182">
        <ele>3</ele>
        <time>2025-06-30T08:34:58Z</time>
      </trkpt>
      <trkpt lat="46.19392" lon="-1.50191">
        <ele>2.8</ele>
        <time>2025-06-30T08:35:05Z</time>
      </trkpt>
      <trkpt lat="46.1939" lon="-1.50198">
        <ele>2.8</ele>
        <time>2025-06-30T08:35:09Z</time>
      </trkpt>
      <trkpt lat="46.1939" lon="-1.50203">
        <ele>2.8</ele>
        <time>2025-06-30T08:35:12Z</time>
      </trkpt>
      <trkpt lat="46.1939" lon="-1.50205">
        <ele>2.8</ele>
        <time>2025-06-30T08:35:13Z</time>
      </trkpt>
      <trkpt lat="46.19388" lon="-1.5021">
        <ele>2.6</ele>
        <time>2025-06-30T08:35:17Z</time>
      </trkpt>
      <trkpt lat="46.19388" lon="-1.50211">
        <ele>2.6</ele>
        <time>2025-06-30T08:35:18Z</time>
      </trkpt>
      <trkpt lat="46.19387" lon="-1.50214">
        <ele>2.8</ele>
        <time>2025-06-30T08:35:20Z</time>
      </trkpt>
      <trkpt lat="46.19386" lon="-1.5023">
        <ele>3</ele>
        <time>2025-06-30T08:35:31Z</time>
      </trkpt>
      <trkpt lat="46.19386" lon="-1.50245">
        <ele>2.8</ele>
        <time>2025-06-30T08:35:41Z</time>
      </trkpt>
      <trkpt lat="46.19384" lon="-1.50249">
        <ele>2.8</ele>
        <time>2025-06-30T08:35:45Z</time>
      </trkpt>
      <trkpt lat="46.19384" lon="-1.50251">
        <ele>2.8</ele>
        <time>2025-06-30T08:35:47Z</time>
      </trkpt>
      <trkpt lat="46.19384" lon="-1.50257">
        <ele>2.8</ele>
        <time>2025-06-30T08:35:55Z</time>
      </trkpt>
      <trkpt lat="46.19384" lon="-1.50264">
        <ele>2.8</ele>
        <time>2025-06-30T08:36:04Z</time>
      </trkpt>
      <trkpt lat="46.19381" lon="-1.50272">
        <ele>2.4</ele>
        <time>2025-06-30T08:36:11Z</time>
      </trkpt>
      <trkpt lat="46.1938" lon="-1.50276">
        <ele>2.8</ele>
        <time>2025-06-30T08:36:20Z</time>
      </trkpt>
      <trkpt lat="46.1938" lon="-1.50277">
        <ele>3</ele>
        <time>2025-06-30T08:36:25Z</time>
      </trkpt>
      <trkpt lat="46.19381" lon="-1.50274">
        <ele>2.8</ele>
        <time>2025-06-30T08:36:56Z</time>
      </trkpt>
      <trkpt lat="46.19382" lon="-1.50274">
        <ele>2.8</ele>
        <time>2025-06-30T08:36:57Z</time>
      </trkpt>
      <trkpt lat="46.19382" lon="-1.5027">
        <ele>1.8</ele>
        <time>2025-06-30T08:37:03Z</time>
      </trkpt>
      <trkpt lat="46.19382" lon="-1.50269">
        <ele>1.4</ele>
        <time>2025-06-30T08:37:04Z</time>
      </trkpt>
      <trkpt lat="46.19382" lon="-1.50269">
        <ele>0.60000000000002</ele>
        <time>2025-06-30T08:37:08Z</time>
      </trkpt>
      <trkpt lat="46.1938" lon="-1.5027">
        <ele>-0.80000000000001</ele>
        <time>2025-06-30T08:37:14Z</time>
      </trkpt>
      <trkpt lat="46.19378" lon="-1.50274">
        <ele>-1.2</ele>
        <time>2025-06-30T08:37:16Z</time>
      </trkpt>
      <trkpt lat="46.19376" lon="-1.50276">
        <ele>-1.2</ele>
        <time>2025-06-30T08:37:17Z</time>
      </trkpt>
      <trkpt lat="46.19371" lon="-1.50283">
        <ele>-1.6</ele>
        <time>2025-06-30T08:37:21Z</time>
      </trkpt>
      <trkpt lat="46.1937" lon="-1.50288">
        <ele>-1.8</ele>
        <time>2025-06-30T08:37:24Z</time>
      </trkpt>
      <trkpt lat="46.19371" lon="-1.50298">
        <ele>-2</ele>
        <time>2025-06-30T08:37:31Z</time>
      </trkpt>
      <trkpt lat="46.1937" lon="-1.50303">
        <ele>-2</ele>
        <time>2025-06-30T08:37:38Z</time>
      </trkpt>
      <trkpt lat="46.1937" lon="-1.50308">
        <ele>-2</ele>
        <time>2025-06-30T08:37:43Z</time>
      </trkpt>
      <trkpt lat="46.1937" lon="-1.50316">
        <ele>-1.8</ele>
        <time>2025-06-30T08:37:49Z</time>
      </trkpt>
      <trkpt lat="46.19369" lon="-1.50322">
        <ele>-2</ele>
        <time>2025-06-30T08:37:54Z</time>
      </trkpt>
      <trkpt lat="46.19368" lon="-1.50324">
        <ele>-2</ele>
        <time>2025-06-30T08:37:56Z</time>
      </trkpt>
      <trkpt lat="46.19368" lon="-1.50328">
        <ele>-1.8</ele>
        <time>2025-06-30T08:37:59Z</time>
      </trkpt>
      <trkpt lat="46.19367" lon="-1.5033">
        <ele>-1.8</ele>
        <time>2025-06-30T08:38:00Z</time>
      </trkpt>
      <trkpt lat="46.19367" lon="-1.50336">
        <ele>-2</ele>
        <time>2025-06-30T08:38:04Z</time>
      </trkpt>
      <trkpt lat="46.19367" lon="-1.50343">
        <ele>-2.2</ele>
        <time>2025-06-30T08:38:11Z</time>
      </trkpt>
      <trkpt lat="46.19366" lon="-1.50347">
        <ele>-2.2</ele>
        <time>2025-06-30T08:38:21Z</time>
      </trkpt>
      <trkpt lat="46.19365" lon="-1.50366">
        <ele>-2</ele>
        <time>2025-06-30T08:38:32Z</time>
      </trkpt>
      <trkpt lat="46.19363" lon="-1.50382">
        <ele>-2.2</ele>
        <time>2025-06-30T08:38:41Z</time>
      </trkpt>
      <trkpt lat="46.1936" lon="-1.50401">
        <ele>-2</ele>
        <time>2025-06-30T08:38:52Z</time>
      </trkpt>
      <trkpt lat="46.1936" lon="-1.50402">
        <ele>-2</ele>
        <time>2025-06-30T08:38:53Z</time>
      </trkpt>
      <trkpt lat="46.1936" lon="-1.50411">
        <ele>-2</ele>
        <time>2025-06-30T08:38:59Z</time>
      </trkpt>
      <trkpt lat="46.19361" lon="-1.50419">
        <ele>-1.8</ele>
        <time>2025-06-30T08:39:04Z</time>
      </trkpt>
      <trkpt lat="46.19361" lon="-1.50432">
        <ele>-1.6</ele>
        <time>2025-06-30T08:39:11Z</time>
      </trkpt>
      <trkpt lat="46.19362" lon="-1.50444">
        <ele>-1.6</ele>
        <time>2025-06-30T08:39:18Z</time>
      </trkpt>
      <trkpt lat="46.19364" lon="-1.50458">
        <ele>-1.2</ele>
        <time>2025-06-30T08:39:28Z</time>
      </trkpt>
      <trkpt lat="46.19366" lon="-1.50462">
        <ele>-0.60000000000002</ele>
        <time>2025-06-30T08:39:31Z</time>
      </trkpt>
      <trkpt lat="46.19369" lon="-1.50464">
        <ele>0.60000000000002</ele>
        <time>2025-06-30T08:39:35Z</time>
      </trkpt>
      <trkpt lat="46.1937" lon="-1.50465">
        <ele>0.80000000000001</ele>
        <time>2025-06-30T08:39:36Z</time>
      </trkpt>
      <trkpt lat="46.1937" lon="-1.50466">
        <ele>1.2</ele>
        <time>2025-06-30T08:39:37Z</time>
      </trkpt>
      <trkpt lat="46.19371" lon="-1.50466">
        <ele>1.6</ele>
        <time>2025-06-30T08:39:38Z</time>
      </trkpt>
      <trkpt lat="46.19373" lon="-1.50467">
        <ele>2.2</ele>
        <time>2025-06-30T08:39:40Z</time>
      </trkpt>
      <trkpt lat="46.19373" lon="-1.50466">
        <ele>2.6</ele>
        <time>2025-06-30T08:39:42Z</time>
      </trkpt>
      <trkpt lat="46.19374" lon="-1.50465">
        <ele>2.8</ele>
        <time>2025-06-30T08:39:43Z</time>
      </trkpt>
      <trkpt lat="46.19374" lon="-1.5046">
        <ele>3.2</ele>
        <time>2025-06-30T08:39:46Z</time>
      </trkpt>
      <trkpt lat="46.19374" lon="-1.50458">
        <ele>3.4</ele>
        <time>2025-06-30T08:39:49Z</time>
      </trkpt>
      <trkpt lat="46.19374" lon="-1.50458">
        <ele>3.4</ele>
        <time>2025-06-30T08:39:50Z</time>
      </trkpt>
      <trkpt lat="46.19374" lon="-1.50457">
        <ele>3.6</ele>
        <time>2025-06-30T08:39:54Z</time>
      </trkpt>
      <trkpt lat="46.19374" lon="-1.50457">
        <ele>3.2</ele>
        <time>2025-06-30T08:39:59Z</time>
      </trkpt>
      <trkpt lat="46.19378" lon="-1.5046">
        <ele>3</ele>
        <time>2025-06-30T08:40:04Z</time>
      </trkpt>
      <trkpt lat="46.19381" lon="-1.50461">
        <ele>2.6</ele>
        <time>2025-06-30T08:40:05Z</time>
      </trkpt>
      <trkpt lat="46.19387" lon="-1.50467">
        <ele>1.8</ele>
        <time>2025-06-30T08:40:10Z</time>
      </trkpt>
      <trkpt lat="46.19389" lon="-1.50469">
        <ele>1.6</ele>
        <time>2025-06-30T08:40:12Z</time>
      </trkpt>
      <trkpt lat="46.19396" lon="-1.50481">
        <ele>1.2</ele>
        <time>2025-06-30T08:40:20Z</time>
      </trkpt>
      <trkpt lat="46.19401" lon="-1.50493">
        <ele>1.2</ele>
        <time>2025-06-30T08:40:28Z</time>
      </trkpt>
      <trkpt lat="46.19403" lon="-1.50497">
        <ele>1.4</ele>
        <time>2025-06-30T08:40:30Z</time>
      </trkpt>
      <trkpt lat="46.19404" lon="-1.505">
        <ele>1.4</ele>
        <time>2025-06-30T08:40:33Z</time>
      </trkpt>
      <trkpt lat="46.19409" lon="-1.50505">
        <ele>1.4</ele>
        <time>2025-06-30T08:40:37Z</time>
      </trkpt>
      <trkpt lat="46.1941" lon="-1.50507">
        <ele>1.6</ele>
        <time>2025-06-30T08:40:38Z</time>
      </trkpt>
      <trkpt lat="46.19414" lon="-1.50513">
        <ele>1.8</ele>
        <time>2025-06-30T08:40:43Z</time>
      </trkpt>
      <trkpt lat="46.19415" lon="-1.50514">
        <ele>2</ele>
        <time>2025-06-30T08:40:44Z</time>
      </trkpt>
      <trkpt lat="46.19422" lon="-1.50523">
        <ele>2.4</ele>
        <time>2025-06-30T08:40:51Z</time>
      </trkpt>
      <trkpt lat="46.19426" lon="-1.50528">
        <ele>2.2</ele>
        <time>2025-06-30T08:40:55Z</time>
      </trkpt>
      <trkpt lat="46.19429" lon="-1.50532">
        <ele>1.8</ele>
        <time>2025-06-30T08:40:58Z</time>
      </trkpt>
      <trkpt lat="46.19431" lon="-1.50534">
        <ele>1.6</ele>
        <time>2025-06-30T08:41:00Z</time>
      </trkpt>
      <trkpt lat="46.19434" lon="-1.50537">
        <ele>1.6</ele>
        <time>2025-06-30T08:41:02Z</time>
      </trkpt>
      <trkpt lat="46.19442" lon="-1.50549">
        <ele>1.8</ele>
        <time>2025-06-30T08:41:11Z</time>
      </trkpt>
      <trkpt lat="46.19448" lon="-1.50558">
        <ele>2.2</ele>
        <time>2025-06-30T08:41:19Z</time>
      </trkpt>
      <trkpt lat="46.19449" lon="-1.50559">
        <ele>2.2</ele>
        <time>2025-06-30T08:41:20Z</time>
      </trkpt>
      <trkpt lat="46.19453" lon="-1.50566">
        <ele>2.4</ele>
        <time>2025-06-30T08:41:25Z</time>
      </trkpt>
      <trkpt lat="46.19461" lon="-1.50576">
        <ele>2.2</ele>
        <time>2025-06-30T08:41:32Z</time>
      </trkpt>
      <trkpt lat="46.19469" lon="-1.50591">
        <ele>2.6</ele>
        <time>2025-06-30T08:41:42Z</time>
      </trkpt>
      <trkpt lat="46.19472" lon="-1.50598">
        <ele>2.6</ele>
        <time>2025-06-30T08:41:47Z</time>
      </trkpt>
      <trkpt lat="46.19476" lon="-1.50602">
        <ele>2.4</ele>
        <time>2025-06-30T08:41:50Z</time>
      </trkpt>
      <trkpt lat="46.19479" lon="-1.50606">
        <ele>2.4</ele>
        <time>2025-06-30T08:41:53Z</time>
      </trkpt>
      <trkpt lat="46.19478" lon="-1.5061">
        <ele>2.4</ele>
        <time>2025-06-30T08:41:55Z</time>
      </trkpt>
      <trkpt lat="46.19481" lon="-1.50612">
        <ele>2.4</ele>
        <time>2025-06-30T08:41:58Z</time>
      </trkpt>
      <trkpt lat="46.19483" lon="-1.50614">
        <ele>2.4</ele>
        <time>2025-06-30T08:42:00Z</time>
      </trkpt>
      <trkpt lat="46.19491" lon="-1.50622">
        <ele>2.4</ele>
        <time>2025-06-30T08:42:07Z</time>
      </trkpt>
      <trkpt lat="46.19493" lon="-1.50628">
        <ele>2.2</ele>
        <time>2025-06-30T08:42:11Z</time>
      </trkpt>
      <trkpt lat="46.19496" lon="-1.5063">
        <ele>2.2</ele>
        <time>2025-06-30T08:42:13Z</time>
      </trkpt>
      <trkpt lat="46.19497" lon="-1.50631">
        <ele>2.2</ele>
        <time>2025-06-30T08:42:14Z</time>
      </trkpt>
      <trkpt lat="46.19502" lon="-1.50643">
        <ele>2.2</ele>
        <time>2025-06-30T08:42:22Z</time>
      </trkpt>
      <trkpt lat="46.19503" lon="-1.50643">
        <ele>2.2</ele>
        <time>2025-06-30T08:42:23Z</time>
      </trkpt>
      <trkpt lat="46.19509" lon="-1.50654">
        <ele>2.4</ele>
        <time>2025-06-30T08:42:30Z</time>
      </trkpt>
      <trkpt lat="46.19513" lon="-1.50659">
        <ele>2.8</ele>
        <time>2025-06-30T08:42:36Z</time>
      </trkpt>
      <trkpt lat="46.19513" lon="-1.5066">
        <ele>2.8</ele>
        <time>2025-06-30T08:42:37Z</time>
      </trkpt>
      <trkpt lat="46.19516" lon="-1.50662">
        <ele>2.8</ele>
        <time>2025-06-30T08:42:40Z</time>
      </trkpt>
      <trkpt lat="46.19517" lon="-1.50664">
        <ele>2.8</ele>
        <time>2025-06-30T08:42:41Z</time>
      </trkpt>
      <trkpt lat="46.19519" lon="-1.50668">
        <ele>2.8</ele>
        <time>2025-06-30T08:42:43Z</time>
      </trkpt>
      <trkpt lat="46.1952" lon="-1.50676">
        <ele>2.8</ele>
        <time>2025-06-30T08:42:48Z</time>
      </trkpt>
      <trkpt lat="46.19522" lon="-1.50679">
        <ele>2.6</ele>
        <time>2025-06-30T08:42:50Z</time>
      </trkpt>
      <trkpt lat="46.19524" lon="-1.50685">
        <ele>2.6</ele>
        <time>2025-06-30T08:42:53Z</time>
      </trkpt>
      <trkpt lat="46.19525" lon="-1.50686">
        <ele>2.4</ele>
        <time>2025-06-30T08:42:54Z</time>
      </trkpt>
      <trkpt lat="46.19529" lon="-1.50688">
        <ele>2.6</ele>
        <time>2025-06-30T08:42:57Z</time>
      </trkpt>
      <trkpt lat="46.19531" lon="-1.5069">
        <ele>2.6</ele>
        <time>2025-06-30T08:42:58Z</time>
      </trkpt>
      <trkpt lat="46.19537" lon="-1.50699">
        <ele>2.4</ele>
        <time>2025-06-30T08:43:04Z</time>
      </trkpt>
      <trkpt lat="46.19538" lon="-1.50704">
        <ele>2.6</ele>
        <time>2025-06-30T08:43:07Z</time>
      </trkpt>
      <trkpt lat="46.19541" lon="-1.50709">
        <ele>2.6</ele>
        <time>2025-06-30T08:43:10Z</time>
      </trkpt>
      <trkpt lat="46.19548" lon="-1.5072">
        <ele>3</ele>
        <time>2025-06-30T08:43:18Z</time>
      </trkpt>
      <trkpt lat="46.1955" lon="-1.50723">
        <ele>2.6</ele>
        <time>2025-06-30T08:43:21Z</time>
      </trkpt>
      <trkpt lat="46.19552" lon="-1.50728">
        <ele>2.6</ele>
        <time>2025-06-30T08:43:24Z</time>
      </trkpt>
      <trkpt lat="46.19554" lon="-1.50734">
        <ele>2.6</ele>
        <time>2025-06-30T08:43:27Z</time>
      </trkpt>
      <trkpt lat="46.19557" lon="-1.50739">
        <ele>2.6</ele>
        <time>2025-06-30T08:43:30Z</time>
      </trkpt>
      <trkpt lat="46.19558" lon="-1.50741">
        <ele>2.6</ele>
        <time>2025-06-30T08:43:31Z</time>
      </trkpt>
      <trkpt lat="46.19561" lon="-1.50748">
        <ele>3.2</ele>
        <time>2025-06-30T08:43:37Z</time>
      </trkpt>
      <trkpt lat="46.19562" lon="-1.50749">
        <ele>3.2</ele>
        <time>2025-06-30T08:43:38Z</time>
      </trkpt>
      <trkpt lat="46.19563" lon="-1.50751">
        <ele>3.2</ele>
        <time>2025-06-30T08:43:40Z</time>
      </trkpt>
      <trkpt lat="46.19565" lon="-1.50754">
        <ele>3.2</ele>
        <time>2025-06-30T08:43:42Z</time>
      </trkpt>
      <trkpt lat="46.19573" lon="-1.50766">
        <ele>2.6</ele>
        <time>2025-06-30T08:43:51Z</time>
      </trkpt>
      <trkpt lat="46.19575" lon="-1.50769">
        <ele>2.6</ele>
        <time>2025-06-30T08:43:54Z</time>
      </trkpt>
      <trkpt lat="46.19576" lon="-1.50772">
        <ele>2.6</ele>
        <time>2025-06-30T08:43:56Z</time>
      </trkpt>
      <trkpt lat="46.19577" lon="-1.50775">
        <ele>2.6</ele>
        <time>2025-06-30T08:43:58Z</time>
      </trkpt>
      <trkpt lat="46.19579" lon="-1.5078">
        <ele>2.6</ele>
        <time>2025-06-30T08:44:01Z</time>
      </trkpt>
      <trkpt lat="46.19581" lon="-1.50784">
        <ele>3</ele>
        <time>2025-06-30T08:44:04Z</time>
      </trkpt>
      <trkpt lat="46.19582" lon="-1.50785">
        <ele>3.2</ele>
        <time>2025-06-30T08:44:05Z</time>
      </trkpt>
      <trkpt lat="46.19586" lon="-1.5079">
        <ele>2.8</ele>
        <time>2025-06-30T08:44:09Z</time>
      </trkpt>
      <trkpt lat="46.19589" lon="-1.50793">
        <ele>2.8</ele>
        <time>2025-06-30T08:44:11Z</time>
      </trkpt>
      <trkpt lat="46.19589" lon="-1.50794">
        <ele>2.8</ele>
        <time>2025-06-30T08:44:12Z</time>
      </trkpt>
      <trkpt lat="46.19592" lon="-1.50799">
        <ele>2.6</ele>
        <time>2025-06-30T08:44:16Z</time>
      </trkpt>
      <trkpt lat="46.19595" lon="-1.5081">
        <ele>2.6</ele>
        <time>2025-06-30T08:44:23Z</time>
      </trkpt>
      <trkpt lat="46.19598" lon="-1.50813">
        <ele>2.6</ele>
        <time>2025-06-30T08:44:25Z</time>
      </trkpt>
      <trkpt lat="46.19604" lon="-1.5082">
        <ele>2.6</ele>
        <time>2025-06-30T08:44:30Z</time>
      </trkpt>
      <trkpt lat="46.19604" lon="-1.50821">
        <ele>2.6</ele>
        <time>2025-06-30T08:44:31Z</time>
      </trkpt>
      <trkpt lat="46.19607" lon="-1.50825">
        <ele>2.8</ele>
        <time>2025-06-30T08:44:34Z</time>
      </trkpt>
      <trkpt lat="46.19608" lon="-1.50826">
        <ele>2.8</ele>
        <time>2025-06-30T08:44:35Z</time>
      </trkpt>
      <trkpt lat="46.19617" lon="-1.50839">
        <ele>2.6</ele>
        <time>2025-06-30T08:44:45Z</time>
      </trkpt>
      <trkpt lat="46.19619" lon="-1.50842">
        <ele>2.6</ele>
        <time>2025-06-30T08:44:48Z</time>
      </trkpt>
      <trkpt lat="46.19621" lon="-1.50849">
        <ele>2.6</ele>
        <time>2025-06-30T08:44:52Z</time>
      </trkpt>
      <trkpt lat="46.19625" lon="-1.50864">
        <ele>2.8</ele>
        <time>2025-06-30T08:45:00Z</time>
      </trkpt>
      <trkpt lat="46.19632" lon="-1.50877">
        <ele>2.6</ele>
        <time>2025-06-30T08:45:08Z</time>
      </trkpt>
      <trkpt lat="46.19636" lon="-1.50882">
        <ele>2.6</ele>
        <time>2025-06-30T08:45:13Z</time>
      </trkpt>
      <trkpt lat="46.19636" lon="-1.50883">
        <ele>2.6</ele>
        <time>2025-06-30T08:45:14Z</time>
      </trkpt>
      <trkpt lat="46.19641" lon="-1.50895">
        <ele>2.6</ele>
        <time>2025-06-30T08:45:21Z</time>
      </trkpt>
      <trkpt lat="46.19647" lon="-1.50908">
        <ele>2.6</ele>
        <time>2025-06-30T08:45:30Z</time>
      </trkpt>
      <trkpt lat="46.19649" lon="-1.50912">
        <ele>2.6</ele>
        <time>2025-06-30T08:45:32Z</time>
      </trkpt>
      <trkpt lat="46.19653" lon="-1.50918">
        <ele>2.4</ele>
        <time>2025-06-30T08:45:36Z</time>
      </trkpt>
      <trkpt lat="46.1966" lon="-1.50928">
        <ele>2.4</ele>
        <time>2025-06-30T08:45:44Z</time>
      </trkpt>
      <trkpt lat="46.19663" lon="-1.50933">
        <ele>2.4</ele>
        <time>2025-06-30T08:45:47Z</time>
      </trkpt>
      <trkpt lat="46.19665" lon="-1.50942">
        <ele>2.6</ele>
        <time>2025-06-30T08:45:52Z</time>
      </trkpt>
      <trkpt lat="46.1967" lon="-1.50954">
        <ele>2.6</ele>
        <time>2025-06-30T08:46:00Z</time>
      </trkpt>
      <trkpt lat="46.19672" lon="-1.50956">
        <ele>2.6</ele>
        <time>2025-06-30T08:46:02Z</time>
      </trkpt>
      <trkpt lat="46.19675" lon="-1.50963">
        <ele>2.6</ele>
        <time>2025-06-30T08:46:07Z</time>
      </trkpt>
      <trkpt lat="46.19676" lon="-1.50967">
        <ele>2.6</ele>
        <time>2025-06-30T08:46:09Z</time>
      </trkpt>
      <trkpt lat="46.19679" lon="-1.50979">
        <ele>2.6</ele>
        <time>2025-06-30T08:46:16Z</time>
      </trkpt>
      <trkpt lat="46.1968" lon="-1.5098">
        <ele>2.6</ele>
        <time>2025-06-30T08:46:17Z</time>
      </trkpt>
      <trkpt lat="46.1968" lon="-1.50982">
        <ele>2.6</ele>
        <time>2025-06-30T08:46:18Z</time>
      </trkpt>
      <trkpt lat="46.19681" lon="-1.50984">
        <ele>2.8</ele>
        <time>2025-06-30T08:46:22Z</time>
      </trkpt>
      <trkpt lat="46.19683" lon="-1.50993">
        <ele>2.6</ele>
        <time>2025-06-30T08:46:28Z</time>
      </trkpt>
      <trkpt lat="46.19685" lon="-1.50996">
        <ele>2.6</ele>
        <time>2025-06-30T08:46:30Z</time>
      </trkpt>
      <trkpt lat="46.19688" lon="-1.50998">
        <ele>2.6</ele>
        <time>2025-06-30T08:46:33Z</time>
      </trkpt>
      <trkpt lat="46.19689" lon="-1.51">
        <ele>2.6</ele>
        <time>2025-06-30T08:46:34Z</time>
      </trkpt>
      <trkpt lat="46.19697" lon="-1.51006">
        <ele>2.4</ele>
        <time>2025-06-30T08:46:41Z</time>
      </trkpt>
      <trkpt lat="46.19702" lon="-1.51016">
        <ele>2.6</ele>
        <time>2025-06-30T08:46:48Z</time>
      </trkpt>
      <trkpt lat="46.19702" lon="-1.5102">
        <ele>3</ele>
        <time>2025-06-30T08:46:51Z</time>
      </trkpt>
      <trkpt lat="46.197" lon="-1.51022">
        <ele>3.2</ele>
        <time>2025-06-30T08:46:53Z</time>
      </trkpt>
      <trkpt lat="46.19699" lon="-1.51022">
        <ele>3.4</ele>
        <time>2025-06-30T08:46:54Z</time>
      </trkpt>
      <trkpt lat="46.19694" lon="-1.51026">
        <ele>3.8</ele>
        <time>2025-06-30T08:46:59Z</time>
      </trkpt>
      <trkpt lat="46.19688" lon="-1.51028">
        <ele>4.2</ele>
        <time>2025-06-30T08:47:03Z</time>
      </trkpt>
      <trkpt lat="46.19687" lon="-1.51029">
        <ele>4.4</ele>
        <time>2025-06-30T08:47:04Z</time>
      </trkpt>
      <trkpt lat="46.19686" lon="-1.51031">
        <ele>4.4</ele>
        <time>2025-06-30T08:47:05Z</time>
      </trkpt>
      <trkpt lat="46.19686" lon="-1.51034">
        <ele>4.8</ele>
        <time>2025-06-30T08:47:08Z</time>
      </trkpt>
      <trkpt lat="46.19687" lon="-1.51035">
        <ele>4.8</ele>
        <time>2025-06-30T08:47:09Z</time>
      </trkpt>
      <trkpt lat="46.1969" lon="-1.51045">
        <ele>5</ele>
        <time>2025-06-30T08:47:14Z</time>
      </trkpt>
      <trkpt lat="46.19695" lon="-1.51053">
        <ele>5.2</ele>
        <time>2025-06-30T08:47:20Z</time>
      </trkpt>
      <trkpt lat="46.19704" lon="-1.51074">
        <ele>5</ele>
        <time>2025-06-30T08:47:32Z</time>
      </trkpt>
      <trkpt lat="46.19705" lon="-1.51078">
        <ele>5</ele>
        <time>2025-06-30T08:47:34Z</time>
      </trkpt>
      <trkpt lat="46.19711" lon="-1.51091">
        <ele>4.8</ele>
        <time>2025-06-30T08:47:42Z</time>
      </trkpt>
      <trkpt lat="46.19718" lon="-1.51108">
        <ele>4.8</ele>
        <time>2025-06-30T08:47:52Z</time>
      </trkpt>
      <trkpt lat="46.19725" lon="-1.51125">
        <ele>4.8</ele>
        <time>2025-06-30T08:48:01Z</time>
      </trkpt>
      <trkpt lat="46.19731" lon="-1.51138">
        <ele>4.6</ele>
        <time>2025-06-30T08:48:09Z</time>
      </trkpt>
      <trkpt lat="46.19738" lon="-1.51153">
        <ele>4.6</ele>
        <time>2025-06-30T08:48:18Z</time>
      </trkpt>
      <trkpt lat="46.19741" lon="-1.51161">
        <ele>4.6</ele>
        <time>2025-06-30T08:48:23Z</time>
      </trkpt>
      <trkpt lat="46.19743" lon="-1.51168">
        <ele>4.4</ele>
        <time>2025-06-30T08:48:27Z</time>
      </trkpt>
      <trkpt lat="46.19751" lon="-1.51182">
        <ele>4.4</ele>
        <time>2025-06-30T08:48:36Z</time>
      </trkpt>
      <trkpt lat="46.19759" lon="-1.51203">
        <ele>4.4</ele>
        <time>2025-06-30T08:48:47Z</time>
      </trkpt>
      <trkpt lat="46.19766" lon="-1.51221">
        <ele>4.4</ele>
        <time>2025-06-30T08:48:58Z</time>
      </trkpt>
      <trkpt lat="46.19772" lon="-1.51234">
        <ele>4.8</ele>
        <time>2025-06-30T08:49:06Z</time>
      </trkpt>
      <trkpt lat="46.19779" lon="-1.51246">
        <ele>4.8</ele>
        <time>2025-06-30T08:49:14Z</time>
      </trkpt>
      <trkpt lat="46.1978" lon="-1.51249">
        <ele>5</ele>
        <time>2025-06-30T08:49:16Z</time>
      </trkpt>
      <trkpt lat="46.19786" lon="-1.51264">
        <ele>5</ele>
        <time>2025-06-30T08:49:24Z</time>
      </trkpt>
      <trkpt lat="46.19791" lon="-1.51274">
        <ele>5</ele>
        <time>2025-06-30T08:49:30Z</time>
      </trkpt>
      <trkpt lat="46.19798" lon="-1.51289">
        <ele>5</ele>
        <time>2025-06-30T08:49:39Z</time>
      </trkpt>
      <trkpt lat="46.19807" lon="-1.51308">
        <ele>5</ele>
        <time>2025-06-30T08:49:51Z</time>
      </trkpt>
      <trkpt lat="46.19814" lon="-1.51324">
        <ele>4.8</ele>
        <time>2025-06-30T08:50:00Z</time>
      </trkpt>
      <trkpt lat="46.19818" lon="-1.51335">
        <ele>4.8</ele>
        <time>2025-06-30T08:50:06Z</time>
      </trkpt>
      <trkpt lat="46.19828" lon="-1.51356">
        <ele>4.4</ele>
        <time>2025-06-30T08:50:19Z</time>
      </trkpt>
      <trkpt lat="46.19835" lon="-1.51372">
        <ele>4.6</ele>
        <time>2025-06-30T08:50:28Z</time>
      </trkpt>
      <trkpt lat="46.19844" lon="-1.51394">
        <ele>4.6</ele>
        <time>2025-06-30T08:50:40Z</time>
      </trkpt>
      <trkpt lat="46.19851" lon="-1.51409">
        <ele>4.6</ele>
        <time>2025-06-30T08:50:49Z</time>
      </trkpt>
      <trkpt lat="46.19859" lon="-1.51427">
        <ele>4.6</ele>
        <time>2025-06-30T08:50:59Z</time>
      </trkpt>
      <trkpt lat="46.19862" lon="-1.51434">
        <ele>4.6</ele>
        <time>2025-06-30T08:51:03Z</time>
      </trkpt>
      <trkpt lat="46.19866" lon="-1.51442">
        <ele>4.6</ele>
        <time>2025-06-30T08:51:08Z</time>
      </trkpt>
      <trkpt lat="46.19872" lon="-1.51456">
        <ele>4.4</ele>
        <time>2025-06-30T08:51:16Z</time>
      </trkpt>
      <trkpt lat="46.19872" lon="-1.51458">
        <ele>4.4</ele>
        <time>2025-06-30T08:51:17Z</time>
      </trkpt>
      <trkpt lat="46.19877" lon="-1.51473">
        <ele>4.6</ele>
        <time>2025-06-30T08:51:25Z</time>
      </trkpt>
      <trkpt lat="46.19884" lon="-1.51493">
        <ele>4.4</ele>
        <time>2025-06-30T08:51:36Z</time>
      </trkpt>
      <trkpt lat="46.19885" lon="-1.51497">
        <ele>4.4</ele>
        <time>2025-06-30T08:51:38Z</time>
      </trkpt>
      <trkpt lat="46.19889" lon="-1.51507">
        <ele>4.2</ele>
        <time>2025-06-30T08:51:44Z</time>
      </trkpt>
      <trkpt lat="46.19891" lon="-1.51513">
        <ele>4.2</ele>
        <time>2025-06-30T08:51:47Z</time>
      </trkpt>
      <trkpt lat="46.19893" lon="-1.5152">
        <ele>4.2</ele>
        <time>2025-06-30T08:51:51Z</time>
      </trkpt>
      <trkpt lat="46.19897" lon="-1.5153">
        <ele>4.2</ele>
        <time>2025-06-30T08:51:56Z</time>
      </trkpt>
      <trkpt lat="46.19899" lon="-1.51538">
        <ele>4.2</ele>
        <time>2025-06-30T08:52:00Z</time>
      </trkpt>
      <trkpt lat="46.19903" lon="-1.51548">
        <ele>4.2</ele>
        <time>2025-06-30T08:52:06Z</time>
      </trkpt>
      <trkpt lat="46.19911" lon="-1.51566">
        <ele>4.2</ele>
        <time>2025-06-30T08:52:17Z</time>
      </trkpt>
      <trkpt lat="46.19917" lon="-1.51582">
        <ele>4.2</ele>
        <time>2025-06-30T08:52:26Z</time>
      </trkpt>
      <trkpt lat="46.19924" lon="-1.51602">
        <ele>4.2</ele>
        <time>2025-06-30T08:52:37Z</time>
      </trkpt>
      <trkpt lat="46.19929" lon="-1.51613">
        <ele>4.2</ele>
        <time>2025-06-30T08:52:44Z</time>
      </trkpt>
      <trkpt lat="46.1993" lon="-1.51617">
        <ele>4.2</ele>
        <time>2025-06-30T08:52:46Z</time>
      </trkpt>
      <trkpt lat="46.19933" lon="-1.51632">
        <ele>4.2</ele>
        <time>2025-06-30T08:52:54Z</time>
      </trkpt>
      <trkpt lat="46.19939" lon="-1.51653">
        <ele>4.2</ele>
        <time>2025-06-30T08:53:04Z</time>
      </trkpt>
      <trkpt lat="46.19945" lon="-1.51668">
        <ele>4.2</ele>
        <time>2025-06-30T08:53:13Z</time>
      </trkpt>
      <trkpt lat="46.19947" lon="-1.51683">
        <ele>4</ele>
        <time>2025-06-30T08:53:20Z</time>
      </trkpt>
      <trkpt lat="46.19952" lon="-1.51701">
        <ele>4.2</ele>
        <time>2025-06-30T08:53:30Z</time>
      </trkpt>
      <trkpt lat="46.19957" lon="-1.51718">
        <ele>4.2</ele>
        <time>2025-06-30T08:53:39Z</time>
      </trkpt>
      <trkpt lat="46.1996" lon="-1.51736">
        <ele>4</ele>
        <time>2025-06-30T08:53:48Z</time>
      </trkpt>
      <trkpt lat="46.19965" lon="-1.51758">
        <ele>4</ele>
        <time>2025-06-30T08:53:58Z</time>
      </trkpt>
      <trkpt lat="46.1997" lon="-1.51775">
        <ele>4</ele>
        <time>2025-06-30T08:54:07Z</time>
      </trkpt>
      <trkpt lat="46.19976" lon="-1.51791">
        <ele>4</ele>
        <time>2025-06-30T08:54:16Z</time>
      </trkpt>
      <trkpt lat="46.19979" lon="-1.51804">
        <ele>3.8</ele>
        <time>2025-06-30T08:54:24Z</time>
      </trkpt>
      <trkpt lat="46.19981" lon="-1.51811">
        <ele>3.8</ele>
        <time>2025-06-30T08:54:27Z</time>
      </trkpt>
      <trkpt lat="46.19985" lon="-1.51828">
        <ele>3.8</ele>
        <time>2025-06-30T08:54:35Z</time>
      </trkpt>
      <trkpt lat="46.19991" lon="-1.51845">
        <ele>3.8</ele>
        <time>2025-06-30T08:54:44Z</time>
      </trkpt>
      <trkpt lat="46.19995" lon="-1.51852">
        <ele>3.8</ele>
        <time>2025-06-30T08:54:49Z</time>
      </trkpt>
      <trkpt lat="46.19998" lon="-1.51859">
        <ele>4</ele>
        <time>2025-06-30T08:54:53Z</time>
      </trkpt>
      <trkpt lat="46.20004" lon="-1.51877">
        <ele>4</ele>
        <time>2025-06-30T08:55:03Z</time>
      </trkpt>
      <trkpt lat="46.20009" lon="-1.51895">
        <ele>3.8</ele>
        <time>2025-06-30T08:55:12Z</time>
      </trkpt>
      <trkpt lat="46.20015" lon="-1.51914">
        <ele>3.8</ele>
        <time>2025-06-30T08:55:23Z</time>
      </trkpt>
      <trkpt lat="46.20021" lon="-1.51935">
        <ele>3.6</ele>
        <time>2025-06-30T08:55:34Z</time>
      </trkpt>
      <trkpt lat="46.20024" lon="-1.51957">
        <ele>3.6</ele>
        <time>2025-06-30T08:55:45Z</time>
      </trkpt>
      <trkpt lat="46.20028" lon="-1.51978">
        <ele>3.6</ele>
        <time>2025-06-30T08:55:56Z</time>
      </trkpt>
      <trkpt lat="46.20033" lon="-1.52001">
        <ele>3.2</ele>
        <time>2025-06-30T08:56:08Z</time>
      </trkpt>
      <trkpt lat="46.2004" lon="-1.52022">
        <ele>3.2</ele>
        <time>2025-06-30T08:56:20Z</time>
      </trkpt>
      <trkpt lat="46.20046" lon="-1.5204">
        <ele>3</ele>
        <time>2025-06-30T08:56:30Z</time>
      </trkpt>
      <trkpt lat="46.20051" lon="-1.52058">
        <ele>3.2</ele>
        <time>2025-06-30T08:56:40Z</time>
      </trkpt>
      <trkpt lat="46.20057" lon="-1.52075">
        <ele>3.2</ele>
        <time>2025-06-30T08:56:49Z</time>
      </trkpt>
      <trkpt lat="46.20061" lon="-1.52085">
        <ele>3.2</ele>
        <time>2025-06-30T08:56:56Z</time>
      </trkpt>
      <trkpt lat="46.20063" lon="-1.5209">
        <ele>3.2</ele>
        <time>2025-06-30T08:56:58Z</time>
      </trkpt>
      <trkpt lat="46.20064" lon="-1.52094">
        <ele>3.2</ele>
        <time>2025-06-30T08:57:00Z</time>
      </trkpt>
      <trkpt lat="46.20066" lon="-1.52107">
        <ele>3</ele>
        <time>2025-06-30T08:57:07Z</time>
      </trkpt>
      <trkpt lat="46.20067" lon="-1.5211">
        <ele>3.2</ele>
        <time>2025-06-30T08:57:09Z</time>
      </trkpt>
      <trkpt lat="46.20072" lon="-1.52133">
        <ele>3.2</ele>
        <time>2025-06-30T08:57:21Z</time>
      </trkpt>
      <trkpt lat="46.20075" lon="-1.52153">
        <ele>3</ele>
        <time>2025-06-30T08:57:31Z</time>
      </trkpt>
      <trkpt lat="46.20081" lon="-1.52175">
        <ele>3</ele>
        <time>2025-06-30T08:57:43Z</time>
      </trkpt>
      <trkpt lat="46.20084" lon="-1.52191">
        <ele>3</ele>
        <time>2025-06-30T08:57:52Z</time>
      </trkpt>
      <trkpt lat="46.2009" lon="-1.52213">
        <ele>3</ele>
        <time>2025-06-30T08:58:03Z</time>
      </trkpt>
      <trkpt lat="46.20094" lon="-1.52231">
        <ele>3</ele>
        <time>2025-06-30T08:58:12Z</time>
      </trkpt>
      <trkpt lat="46.20096" lon="-1.52244">
        <ele>3</ele>
        <time>2025-06-30T08:58:19Z</time>
      </trkpt>
      <trkpt lat="46.20102" lon="-1.52262">
        <ele>3</ele>
        <time>2025-06-30T08:58:29Z</time>
      </trkpt>
      <trkpt lat="46.20104" lon="-1.52274">
        <ele>2.8</ele>
        <time>2025-06-30T08:58:36Z</time>
      </trkpt>
      <trkpt lat="46.20105" lon="-1.52277">
        <ele>2.8</ele>
        <time>2025-06-30T08:58:37Z</time>
      </trkpt>
      <trkpt lat="46.20108" lon="-1.52287">
        <ele>2.8</ele>
        <time>2025-06-30T08:58:43Z</time>
      </trkpt>
      <trkpt lat="46.20111" lon="-1.52314">
        <ele>2.8</ele>
        <time>2025-06-30T08:58:57Z</time>
      </trkpt>
      <trkpt lat="46.20114" lon="-1.52331">
        <ele>2.6</ele>
        <time>2025-06-30T08:59:06Z</time>
      </trkpt>
      <trkpt lat="46.20116" lon="-1.52342">
        <ele>2.6</ele>
        <time>2025-06-30T08:59:13Z</time>
      </trkpt>
      <trkpt lat="46.20117" lon="-1.52357">
        <ele>2</ele>
        <time>2025-06-30T08:59:21Z</time>
      </trkpt>
      <trkpt lat="46.20118" lon="-1.52357">
        <ele>1.8</ele>
        <time>2025-06-30T08:59:22Z</time>
      </trkpt>
      <trkpt lat="46.20122" lon="-1.52355">
        <ele>2</ele>
        <time>2025-06-30T08:59:25Z</time>
      </trkpt>
      <trkpt lat="46.20123" lon="-1.52353">
        <ele>2</ele>
        <time>2025-06-30T08:59:26Z</time>
      </trkpt>
      <trkpt lat="46.20128" lon="-1.52349">
        <ele>2.4</ele>
        <time>2025-06-30T08:59:30Z</time>
      </trkpt>
      <trkpt lat="46.20131" lon="-1.52347">
        <ele>2.4</ele>
        <time>2025-06-30T08:59:32Z</time>
      </trkpt>
      <trkpt lat="46.20132" lon="-1.52346">
        <ele>2.4</ele>
        <time>2025-06-30T08:59:33Z</time>
      </trkpt>
      <trkpt lat="46.20134" lon="-1.52346">
        <ele>2.6</ele>
        <time>2025-06-30T08:59:34Z</time>
      </trkpt>
      <trkpt lat="46.20135" lon="-1.52344">
        <ele>2.6</ele>
        <time>2025-06-30T08:59:36Z</time>
      </trkpt>
      <trkpt lat="46.20139" lon="-1.5234">
        <ele>2.6</ele>
        <time>2025-06-30T08:59:40Z</time>
      </trkpt>
      <trkpt lat="46.20139" lon="-1.52338">
        <ele>2.6</ele>
        <time>2025-06-30T08:59:41Z</time>
      </trkpt>
      <trkpt lat="46.20138" lon="-1.52334">
        <ele>2.6</ele>
        <time>2025-06-30T08:59:44Z</time>
      </trkpt>
      <trkpt lat="46.20137" lon="-1.52339">
        <ele>2.6</ele>
        <time>2025-06-30T08:59:49Z</time>
      </trkpt>
      <trkpt lat="46.2014" lon="-1.52342">
        <ele>2.6</ele>
        <time>2025-06-30T09:03:06Z</time>
      </trkpt>
      <trkpt lat="46.2014" lon="-1.52342">
        <ele>2.6</ele>
        <time>2025-06-30T09:03:07Z</time>
      </trkpt>
      <trkpt lat="46.20141" lon="-1.52342">
        <ele>2.8</ele>
        <time>2025-06-30T09:03:11Z</time>
      </trkpt>
      <trkpt lat="46.20144" lon="-1.52338">
        <ele>2.6</ele>
        <time>2025-06-30T09:03:14Z</time>
      </trkpt>
      <trkpt lat="46.20147" lon="-1.52335">
        <ele>2.8</ele>
        <time>2025-06-30T09:03:16Z</time>
      </trkpt>
      <trkpt lat="46.2015" lon="-1.52332">
        <ele>2.6</ele>
        <time>2025-06-30T09:03:18Z</time>
      </trkpt>
      <trkpt lat="46.20151" lon="-1.52331">
        <ele>2.6</ele>
        <time>2025-06-30T09:03:19Z</time>
      </trkpt>
      <trkpt lat="46.20163" lon="-1.52319">
        <ele>2.6</ele>
        <time>2025-06-30T09:03:30Z</time>
      </trkpt>
      <trkpt lat="46.20173" lon="-1.52317">
        <ele>2.4</ele>
        <time>2025-06-30T09:03:38Z</time>
      </trkpt>
      <trkpt lat="46.20174" lon="-1.52317">
        <ele>2.2</ele>
        <time>2025-06-30T09:03:39Z</time>
      </trkpt>
      <trkpt lat="46.20175" lon="-1.52318">
        <ele>2.2</ele>
        <time>2025-06-30T09:03:40Z</time>
      </trkpt>
      <trkpt lat="46.20178" lon="-1.52323">
        <ele>2.2</ele>
        <time>2025-06-30T09:03:44Z</time>
      </trkpt>
      <trkpt lat="46.20184" lon="-1.52335">
        <ele>1.8</ele>
        <time>2025-06-30T09:03:51Z</time>
      </trkpt>
      <trkpt lat="46.20185" lon="-1.5234">
        <ele>2</ele>
        <time>2025-06-30T09:03:54Z</time>
      </trkpt>
      <trkpt lat="46.20193" lon="-1.52353">
        <ele>1.4</ele>
        <time>2025-06-30T09:04:02Z</time>
      </trkpt>
      <trkpt lat="46.20194" lon="-1.52355">
        <ele>1.4</ele>
        <time>2025-06-30T09:04:03Z</time>
      </trkpt>
      <trkpt lat="46.20201" lon="-1.52369">
        <ele>1.2</ele>
        <time>2025-06-30T09:04:12Z</time>
      </trkpt>
      <trkpt lat="46.20204" lon="-1.52377">
        <ele>1.4</ele>
        <time>2025-06-30T09:04:16Z</time>
      </trkpt>
      <trkpt lat="46.20205" lon="-1.5238">
        <ele>1.4</ele>
        <time>2025-06-30T09:04:18Z</time>
      </trkpt>
      <trkpt lat="46.20208" lon="-1.52383">
        <ele>1.4</ele>
        <time>2025-06-30T09:04:20Z</time>
      </trkpt>
      <trkpt lat="46.20214" lon="-1.52398">
        <ele>1.4</ele>
        <time>2025-06-30T09:04:29Z</time>
      </trkpt>
      <trkpt lat="46.20219" lon="-1.52408">
        <ele>1.4</ele>
        <time>2025-06-30T09:04:35Z</time>
      </trkpt>
      <trkpt lat="46.20221" lon="-1.52412">
        <ele>1.4</ele>
        <time>2025-06-30T09:04:37Z</time>
      </trkpt>
      <trkpt lat="46.20225" lon="-1.52425">
        <ele>1.2</ele>
        <time>2025-06-30T09:04:44Z</time>
      </trkpt>
      <trkpt lat="46.20226" lon="-1.52426">
        <ele>1.2</ele>
        <time>2025-06-30T09:04:45Z</time>
      </trkpt>
      <trkpt lat="46.20227" lon="-1.52429">
        <ele>1.2</ele>
        <time>2025-06-30T09:04:47Z</time>
      </trkpt>
      <trkpt lat="46.20227" lon="-1.52433">
        <ele>1.2</ele>
        <time>2025-06-30T09:04:49Z</time>
      </trkpt>
      <trkpt lat="46.20238" lon="-1.52453">
        <ele>1.2</ele>
        <time>2025-06-30T09:05:00Z</time>
      </trkpt>
      <trkpt lat="46.20246" lon="-1.52468">
        <ele>1.6</ele>
        <time>2025-06-30T09:05:10Z</time>
      </trkpt>
      <trkpt lat="46.20254" lon="-1.52466">
        <ele>1.8</ele>
        <time>2025-06-30T09:05:16Z</time>
      </trkpt>
      <trkpt lat="46.20261" lon="-1.52457">
        <ele>2</ele>
        <time>2025-06-30T09:05:22Z</time>
      </trkpt>
      <trkpt lat="46.20265" lon="-1.52454">
        <ele>2</ele>
        <time>2025-06-30T09:05:25Z</time>
      </trkpt>
      <trkpt lat="46.20273" lon="-1.52448">
        <ele>1.8</ele>
        <time>2025-06-30T09:05:32Z</time>
      </trkpt>
      <trkpt lat="46.20282" lon="-1.52435">
        <ele>2</ele>
        <time>2025-06-30T09:05:39Z</time>
      </trkpt>
      <trkpt lat="46.20289" lon="-1.52431">
        <ele>1.6</ele>
        <time>2025-06-30T09:05:45Z</time>
      </trkpt>
      <trkpt lat="46.2029" lon="-1.52432">
        <ele>1.6</ele>
        <time>2025-06-30T09:05:46Z</time>
      </trkpt>
      <trkpt lat="46.20298" lon="-1.52448">
        <ele>1.2</ele>
        <time>2025-06-30T09:05:56Z</time>
      </trkpt>
      <trkpt lat="46.20298" lon="-1.52452">
        <ele>1.2</ele>
        <time>2025-06-30T09:05:58Z</time>
      </trkpt>
      <trkpt lat="46.20299" lon="-1.52455">
        <ele>1.2</ele>
        <time>2025-06-30T09:05:59Z</time>
      </trkpt>
      <trkpt lat="46.20301" lon="-1.52464">
        <ele>1.2</ele>
        <time>2025-06-30T09:06:04Z</time>
      </trkpt>
      <trkpt lat="46.20309" lon="-1.5248">
        <ele>1</ele>
        <time>2025-06-30T09:06:13Z</time>
      </trkpt>
      <trkpt lat="46.20316" lon="-1.52492">
        <ele>1</ele>
        <time>2025-06-30T09:06:20Z</time>
      </trkpt>
      <trkpt lat="46.20318" lon="-1.52495">
        <ele>1.2</ele>
        <time>2025-06-30T09:06:22Z</time>
      </trkpt>
      <trkpt lat="46.20321" lon="-1.525">
        <ele>1.2</ele>
        <time>2025-06-30T09:06:25Z</time>
      </trkpt>
      <trkpt lat="46.20325" lon="-1.52511">
        <ele>1.2</ele>
        <time>2025-06-30T09:06:31Z</time>
      </trkpt>
      <trkpt lat="46.20327" lon="-1.52528">
        <ele>1.2</ele>
        <time>2025-06-30T09:06:39Z</time>
      </trkpt>
      <trkpt lat="46.20329" lon="-1.52535">
        <ele>1.4</ele>
        <time>2025-06-30T09:06:42Z</time>
      </trkpt>
      <trkpt lat="46.2033" lon="-1.5254">
        <ele>1.4</ele>
        <time>2025-06-30T09:06:45Z</time>
      </trkpt>
      <trkpt lat="46.20333" lon="-1.52553">
        <ele>1.2</ele>
        <time>2025-06-30T09:06:52Z</time>
      </trkpt>
      <trkpt lat="46.20334" lon="-1.52554">
        <ele>1.2</ele>
        <time>2025-06-30T09:06:53Z</time>
      </trkpt>
      <trkpt lat="46.20337" lon="-1.52568">
        <ele>1.4</ele>
        <time>2025-06-30T09:07:01Z</time>
      </trkpt>
      <trkpt lat="46.20342" lon="-1.52575">
        <ele>1.4</ele>
        <time>2025-06-30T09:07:06Z</time>
      </trkpt>
      <trkpt lat="46.20343" lon="-1.52577">
        <ele>1.4</ele>
        <time>2025-06-30T09:07:07Z</time>
      </trkpt>
      <trkpt lat="46.20346" lon="-1.52583">
        <ele>1.4</ele>
        <time>2025-06-30T09:07:10Z</time>
      </trkpt>
      <trkpt lat="46.20346" lon="-1.52587">
        <ele>1.4</ele>
        <time>2025-06-30T09:07:12Z</time>
      </trkpt>
      <trkpt lat="46.20347" lon="-1.52589">
        <ele>1.4</ele>
        <time>2025-06-30T09:07:13Z</time>
      </trkpt>
      <trkpt lat="46.20351" lon="-1.52602">
        <ele>1.4</ele>
        <time>2025-06-30T09:07:20Z</time>
      </trkpt>
      <trkpt lat="46.20355" lon="-1.52607">
        <ele>1.4</ele>
        <time>2025-06-30T09:07:24Z</time>
      </trkpt>
      <trkpt lat="46.20358" lon="-1.52612">
        <ele>1</ele>
        <time>2025-06-30T09:07:28Z</time>
      </trkpt>
      <trkpt lat="46.2036" lon="-1.52616">
        <ele>1</ele>
        <time>2025-06-30T09:07:30Z</time>
      </trkpt>
      <trkpt lat="46.2037" lon="-1.52633">
        <ele>1.4</ele>
        <time>2025-06-30T09:07:40Z</time>
      </trkpt>
      <trkpt lat="46.20369" lon="-1.52649">
        <ele>2</ele>
        <time>2025-06-30T09:07:48Z</time>
      </trkpt>
      <trkpt lat="46.20361" lon="-1.52662">
        <ele>2.4</ele>
        <time>2025-06-30T09:07:57Z</time>
      </trkpt>
      <trkpt lat="46.20357" lon="-1.52665">
        <ele>2.8</ele>
        <time>2025-06-30T09:08:00Z</time>
      </trkpt>
      <trkpt lat="46.20351" lon="-1.52674">
        <ele>2.4</ele>
        <time>2025-06-30T09:08:06Z</time>
      </trkpt>
      <trkpt lat="46.20341" lon="-1.52688">
        <ele>2.8</ele>
        <time>2025-06-30T09:08:17Z</time>
      </trkpt>
      <trkpt lat="46.20329" lon="-1.52702">
        <ele>2.6</ele>
        <time>2025-06-30T09:08:27Z</time>
      </trkpt>
      <trkpt lat="46.20321" lon="-1.52713">
        <ele>2.4</ele>
        <time>2025-06-30T09:08:35Z</time>
      </trkpt>
      <trkpt lat="46.20307" lon="-1.52729">
        <ele>2.6</ele>
        <time>2025-06-30T09:08:47Z</time>
      </trkpt>
      <trkpt lat="46.20305" lon="-1.52732">
        <ele>2.4</ele>
        <time>2025-06-30T09:08:49Z</time>
      </trkpt>
      <trkpt lat="46.20295" lon="-1.52744">
        <ele>2.4</ele>
        <time>2025-06-30T09:08:58Z</time>
      </trkpt>
      <trkpt lat="46.20284" lon="-1.5276">
        <ele>2.2</ele>
        <time>2025-06-30T09:09:09Z</time>
      </trkpt>
      <trkpt lat="46.20279" lon="-1.52769">
        <ele>2.2</ele>
        <time>2025-06-30T09:09:15Z</time>
      </trkpt>
      <trkpt lat="46.20274" lon="-1.52775">
        <ele>2.2</ele>
        <time>2025-06-30T09:09:19Z</time>
      </trkpt>
      <trkpt lat="46.20273" lon="-1.52778">
        <ele>2</ele>
        <time>2025-06-30T09:09:21Z</time>
      </trkpt>
      <trkpt lat="46.20272" lon="-1.52781">
        <ele>2</ele>
        <time>2025-06-30T09:09:23Z</time>
      </trkpt>
      <trkpt lat="46.20272" lon="-1.52785">
        <ele>2</ele>
        <time>2025-06-30T09:09:25Z</time>
      </trkpt>
      <trkpt lat="46.20261" lon="-1.52794">
        <ele>1.8</ele>
        <time>2025-06-30T09:09:33Z</time>
      </trkpt>
      <trkpt lat="46.20253" lon="-1.52802">
        <ele>1.8</ele>
        <time>2025-06-30T09:09:39Z</time>
      </trkpt>
      <trkpt lat="46.2025" lon="-1.52806">
        <ele>1.6</ele>
        <time>2025-06-30T09:09:42Z</time>
      </trkpt>
      <trkpt lat="46.20249" lon="-1.52808">
        <ele>1.6</ele>
        <time>2025-06-30T09:09:43Z</time>
      </trkpt>
      <trkpt lat="46.20242" lon="-1.52817">
        <ele>1.8</ele>
        <time>2025-06-30T09:09:50Z</time>
      </trkpt>
      <trkpt lat="46.20232" lon="-1.52831">
        <ele>1.6</ele>
        <time>2025-06-30T09:10:00Z</time>
      </trkpt>
      <trkpt lat="46.20219" lon="-1.52852">
        <ele>1.8</ele>
        <time>2025-06-30T09:10:13Z</time>
      </trkpt>
      <trkpt lat="46.20208" lon="-1.52864">
        <ele>1.6</ele>
        <time>2025-06-30T09:10:24Z</time>
      </trkpt>
      <trkpt lat="46.20202" lon="-1.52872">
        <ele>1.4</ele>
        <time>2025-06-30T09:10:31Z</time>
      </trkpt>
      <trkpt lat="46.20203" lon="-1.52875">
        <ele>1.2</ele>
        <time>2025-06-30T09:10:33Z</time>
      </trkpt>
      <trkpt lat="46.20205" lon="-1.52886">
        <ele>1.8</ele>
        <time>2025-06-30T09:10:41Z</time>
      </trkpt>
      <trkpt lat="46.20205" lon="-1.52888">
        <ele>1.8</ele>
        <time>2025-06-30T09:10:43Z</time>
      </trkpt>
      <trkpt lat="46.20207" lon="-1.52891">
        <ele>2</ele>
        <time>2025-06-30T09:10:45Z</time>
      </trkpt>
      <trkpt lat="46.20209" lon="-1.52891">
        <ele>2.2</ele>
        <time>2025-06-30T09:10:48Z</time>
      </trkpt>
      <trkpt lat="46.20214" lon="-1.52898">
        <ele>2.6</ele>
        <time>2025-06-30T09:10:54Z</time>
      </trkpt>
      <trkpt lat="46.20214" lon="-1.52898">
        <ele>2.6</ele>
        <time>2025-06-30T09:10:55Z</time>
      </trkpt>
      <trkpt lat="46.20214" lon="-1.52902">
        <ele>2.6</ele>
        <time>2025-06-30T09:10:59Z</time>
      </trkpt>
      <trkpt lat="46.20215" lon="-1.52905">
        <ele>2.8</ele>
        <time>2025-06-30T09:11:01Z</time>
      </trkpt>
      <trkpt lat="46.20219" lon="-1.5292">
        <ele>2.8</ele>
        <time>2025-06-30T09:11:09Z</time>
      </trkpt>
      <trkpt lat="46.20222" lon="-1.52927">
        <ele>2.8</ele>
        <time>2025-06-30T09:11:13Z</time>
      </trkpt>
      <trkpt lat="46.20224" lon="-1.52934">
        <ele>2.8</ele>
        <time>2025-06-30T09:11:17Z</time>
      </trkpt>
      <trkpt lat="46.20226" lon="-1.5294">
        <ele>3</ele>
        <time>2025-06-30T09:11:20Z</time>
      </trkpt>
      <trkpt lat="46.20227" lon="-1.52949">
        <ele>3.2</ele>
        <time>2025-06-30T09:11:25Z</time>
      </trkpt>
      <trkpt lat="46.20231" lon="-1.52966">
        <ele>3</ele>
        <time>2025-06-30T09:11:35Z</time>
      </trkpt>
      <trkpt lat="46.20234" lon="-1.52983">
        <ele>2.8</ele>
        <time>2025-06-30T09:11:44Z</time>
      </trkpt>
      <trkpt lat="46.20236" lon="-1.53001">
        <ele>3.2</ele>
        <time>2025-06-30T09:11:54Z</time>
      </trkpt>
      <trkpt lat="46.20237" lon="-1.53009">
        <ele>3.8</ele>
        <time>2025-06-30T09:11:59Z</time>
      </trkpt>
      <trkpt lat="46.20239" lon="-1.53017">
        <ele>4</ele>
        <time>2025-06-30T09:12:03Z</time>
      </trkpt>
      <trkpt lat="46.2024" lon="-1.53034">
        <ele>4</ele>
        <time>2025-06-30T09:12:12Z</time>
      </trkpt>
      <trkpt lat="46.20242" lon="-1.53044">
        <ele>4.2</ele>
        <time>2025-06-30T09:12:18Z</time>
      </trkpt>
      <trkpt lat="46.20242" lon="-1.5305">
        <ele>4.2</ele>
        <time>2025-06-30T09:12:21Z</time>
      </trkpt>
      <trkpt lat="46.20243" lon="-1.53058">
        <ele>3.8</ele>
        <time>2025-06-30T09:12:25Z</time>
      </trkpt>
      <trkpt lat="46.20242" lon="-1.53061">
        <ele>3.8</ele>
        <time>2025-06-30T09:12:27Z</time>
      </trkpt>
      <trkpt lat="46.20239" lon="-1.53069">
        <ele>3.6</ele>
        <time>2025-06-30T09:12:32Z</time>
      </trkpt>
      <trkpt lat="46.20238" lon="-1.53077">
        <ele>3.6</ele>
        <time>2025-06-30T09:12:36Z</time>
      </trkpt>
      <trkpt lat="46.2024" lon="-1.5309">
        <ele>3.8</ele>
        <time>2025-06-30T09:12:43Z</time>
      </trkpt>
      <trkpt lat="46.20241" lon="-1.53091">
        <ele>3.8</ele>
        <time>2025-06-30T09:12:44Z</time>
      </trkpt>
      <trkpt lat="46.20242" lon="-1.53099">
        <ele>3.6</ele>
        <time>2025-06-30T09:12:49Z</time>
      </trkpt>
      <trkpt lat="46.20243" lon="-1.53103">
        <ele>3.4</ele>
        <time>2025-06-30T09:12:51Z</time>
      </trkpt>
      <trkpt lat="46.20245" lon="-1.53108">
        <ele>3.4</ele>
        <time>2025-06-30T09:12:53Z</time>
      </trkpt>
      <trkpt lat="46.20245" lon="-1.53109">
        <ele>3.4</ele>
        <time>2025-06-30T09:12:54Z</time>
      </trkpt>
      <trkpt lat="46.20243" lon="-1.53122">
        <ele>3</ele>
        <time>2025-06-30T09:13:01Z</time>
      </trkpt>
      <trkpt lat="46.20243" lon="-1.53141">
        <ele>2.8</ele>
        <time>2025-06-30T09:13:11Z</time>
      </trkpt>
      <trkpt lat="46.20243" lon="-1.53143">
        <ele>2.8</ele>
        <time>2025-06-30T09:13:12Z</time>
      </trkpt>
      <trkpt lat="46.20242" lon="-1.53161">
        <ele>2.8</ele>
        <time>2025-06-30T09:13:21Z</time>
      </trkpt>
      <trkpt lat="46.20243" lon="-1.53182">
        <ele>2.6</ele>
        <time>2025-06-30T09:13:31Z</time>
      </trkpt>
      <trkpt lat="46.20243" lon="-1.53184">
        <ele>2.6</ele>
        <time>2025-06-30T09:13:32Z</time>
      </trkpt>
      <trkpt lat="46.20243" lon="-1.5319">
        <ele>2.6</ele>
        <time>2025-06-30T09:13:36Z</time>
      </trkpt>
      <trkpt lat="46.20247" lon="-1.53206">
        <ele>2.6</ele>
        <time>2025-06-30T09:13:44Z</time>
      </trkpt>
      <trkpt lat="46.20246" lon="-1.53221">
        <ele>2.6</ele>
        <time>2025-06-30T09:13:52Z</time>
      </trkpt>
      <trkpt lat="46.20247" lon="-1.53231">
        <ele>3</ele>
        <time>2025-06-30T09:13:58Z</time>
      </trkpt>
      <trkpt lat="46.20255" lon="-1.53236">
        <ele>3.2</ele>
        <time>2025-06-30T09:14:05Z</time>
      </trkpt>
      <trkpt lat="46.20262" lon="-1.53244">
        <ele>3.6</ele>
        <time>2025-06-30T09:14:12Z</time>
      </trkpt>
      <trkpt lat="46.20263" lon="-1.53245">
        <ele>3.8</ele>
        <time>2025-06-30T09:14:13Z</time>
      </trkpt>
      <trkpt lat="46.20265" lon="-1.53246">
        <ele>3.8</ele>
        <time>2025-06-30T09:14:14Z</time>
      </trkpt>
      <trkpt lat="46.20269" lon="-1.53247">
        <ele>4.2</ele>
        <time>2025-06-30T09:14:18Z</time>
      </trkpt>
      <trkpt lat="46.20274" lon="-1.53248">
        <ele>4.6</ele>
        <time>2025-06-30T09:14:21Z</time>
      </trkpt>
      <trkpt lat="46.20282" lon="-1.5325">
        <ele>4.6</ele>
        <time>2025-06-30T09:14:27Z</time>
      </trkpt>
      <trkpt lat="46.20286" lon="-1.53252">
        <ele>4.6</ele>
        <time>2025-06-30T09:14:30Z</time>
      </trkpt>
      <trkpt lat="46.20289" lon="-1.53264">
        <ele>4.8</ele>
        <time>2025-06-30T09:14:36Z</time>
      </trkpt>
      <trkpt lat="46.20289" lon="-1.53273">
        <ele>5</ele>
        <time>2025-06-30T09:14:40Z</time>
      </trkpt>
      <trkpt lat="46.2029" lon="-1.53282">
        <ele>4.8</ele>
        <time>2025-06-30T09:14:45Z</time>
      </trkpt>
      <trkpt lat="46.20292" lon="-1.53291">
        <ele>4.8</ele>
        <time>2025-06-30T09:14:49Z</time>
      </trkpt>
      <trkpt lat="46.20292" lon="-1.53296">
        <ele>4.6</ele>
        <time>2025-06-30T09:14:52Z</time>
      </trkpt>
      <trkpt lat="46.20293" lon="-1.53304">
        <ele>4.4</ele>
        <time>2025-06-30T09:14:56Z</time>
      </trkpt>
      <trkpt lat="46.20295" lon="-1.53314">
        <ele>4.4</ele>
        <time>2025-06-30T09:15:01Z</time>
      </trkpt>
      <trkpt lat="46.20299" lon="-1.5333">
        <ele>4.4</ele>
        <time>2025-06-30T09:15:10Z</time>
      </trkpt>
      <trkpt lat="46.203" lon="-1.53334">
        <ele>4.4</ele>
        <time>2025-06-30T09:15:12Z</time>
      </trkpt>
      <trkpt lat="46.203" lon="-1.53335">
        <ele>4.4</ele>
        <time>2025-06-30T09:15:13Z</time>
      </trkpt>
      <trkpt lat="46.20302" lon="-1.53341">
        <ele>4.2</ele>
        <time>2025-06-30T09:15:16Z</time>
      </trkpt>
      <trkpt lat="46.20305" lon="-1.53358">
        <ele>4.4</ele>
        <time>2025-06-30T09:15:24Z</time>
      </trkpt>
      <trkpt lat="46.20305" lon="-1.5336">
        <ele>4.4</ele>
        <time>2025-06-30T09:15:25Z</time>
      </trkpt>
      <trkpt lat="46.20308" lon="-1.53361">
        <ele>4.2</ele>
        <time>2025-06-30T09:15:27Z</time>
      </trkpt>
      <trkpt lat="46.20313" lon="-1.53364">
        <ele>4</ele>
        <time>2025-06-30T09:15:30Z</time>
      </trkpt>
      <trkpt lat="46.20317" lon="-1.53369">
        <ele>3.8</ele>
        <time>2025-06-30T09:15:34Z</time>
      </trkpt>
      <trkpt lat="46.20318" lon="-1.53373">
        <ele>3.8</ele>
        <time>2025-06-30T09:15:36Z</time>
      </trkpt>
      <trkpt lat="46.20319" lon="-1.53374">
        <ele>3.8</ele>
        <time>2025-06-30T09:15:37Z</time>
      </trkpt>
      <trkpt lat="46.20326" lon="-1.53382">
        <ele>3.8</ele>
        <time>2025-06-30T09:15:43Z</time>
      </trkpt>
      <trkpt lat="46.20328" lon="-1.53386">
        <ele>3.6</ele>
        <time>2025-06-30T09:15:45Z</time>
      </trkpt>
      <trkpt lat="46.20329" lon="-1.53388">
        <ele>3.6</ele>
        <time>2025-06-30T09:15:46Z</time>
      </trkpt>
      <trkpt lat="46.20331" lon="-1.53394">
        <ele>3.4</ele>
        <time>2025-06-30T09:15:49Z</time>
      </trkpt>
      <trkpt lat="46.20333" lon="-1.53395">
        <ele>3.4</ele>
        <time>2025-06-30T09:15:50Z</time>
      </trkpt>
      <trkpt lat="46.20337" lon="-1.53398">
        <ele>3.4</ele>
        <time>2025-06-30T09:15:53Z</time>
      </trkpt>
      <trkpt lat="46.20338" lon="-1.53402">
        <ele>3.4</ele>
        <time>2025-06-30T09:15:55Z</time>
      </trkpt>
      <trkpt lat="46.20339" lon="-1.53403">
        <ele>3.4</ele>
        <time>2025-06-30T09:15:56Z</time>
      </trkpt>
      <trkpt lat="46.20342" lon="-1.53406">
        <ele>3.4</ele>
        <time>2025-06-30T09:15:59Z</time>
      </trkpt>
      <trkpt lat="46.20344" lon="-1.53404">
        <ele>3.6</ele>
        <time>2025-06-30T09:16:02Z</time>
      </trkpt>
      <trkpt lat="46.20347" lon="-1.53395">
        <ele>3.6</ele>
        <time>2025-06-30T09:16:07Z</time>
      </trkpt>
      <trkpt lat="46.20347" lon="-1.53391">
        <ele>3.8</ele>
        <time>2025-06-30T09:16:10Z</time>
      </trkpt>
      <trkpt lat="46.20349" lon="-1.53391">
        <ele>3.8</ele>
        <time>2025-06-30T09:16:12Z</time>
      </trkpt>
      <trkpt lat="46.20349" lon="-1.53391">
        <ele>3.8</ele>
        <time>2025-06-30T09:16:13Z</time>
      </trkpt>
      <trkpt lat="46.20349" lon="-1.53393">
        <ele>3.6</ele>
        <time>2025-06-30T09:16:14Z</time>
      </trkpt>
      <trkpt lat="46.20349" lon="-1.53397">
        <ele>3.6</ele>
        <time>2025-06-30T09:16:17Z</time>
      </trkpt>
      <trkpt lat="46.2035" lon="-1.53399">
        <ele>3.4</ele>
        <time>2025-06-30T09:16:18Z</time>
      </trkpt>
      <trkpt lat="46.20351" lon="-1.53403">
        <ele>3.4</ele>
        <time>2025-06-30T09:16:21Z</time>
      </trkpt>
      <trkpt lat="46.20352" lon="-1.53407">
        <ele>3.4</ele>
        <time>2025-06-30T09:16:23Z</time>
      </trkpt>
      <trkpt lat="46.20353" lon="-1.53409">
        <ele>3.4</ele>
        <time>2025-06-30T09:16:24Z</time>
      </trkpt>
      <trkpt lat="46.20354" lon="-1.53411">
        <ele>3.4</ele>
        <time>2025-06-30T09:16:26Z</time>
      </trkpt>
      <trkpt lat="46.20355" lon="-1.53413">
        <ele>3.4</ele>
        <time>2025-06-30T09:16:27Z</time>
      </trkpt>
      <trkpt lat="46.20355" lon="-1.53414">
        <ele>3.4</ele>
        <time>2025-06-30T09:16:28Z</time>
      </trkpt>
      <trkpt lat="46.20356" lon="-1.53413">
        <ele>3.4</ele>
        <time>2025-06-30T09:16:30Z</time>
      </trkpt>
      <trkpt lat="46.20362" lon="-1.5341">
        <ele>3</ele>
        <time>2025-06-30T09:16:35Z</time>
      </trkpt>
      <trkpt lat="46.20364" lon="-1.5341">
        <ele>3.2</ele>
        <time>2025-06-30T09:16:37Z</time>
      </trkpt>
      <trkpt lat="46.20375" lon="-1.53411">
        <ele>3.6</ele>
        <time>2025-06-30T09:16:43Z</time>
      </trkpt>
      <trkpt lat="46.20376" lon="-1.53412">
        <ele>3.8</ele>
        <time>2025-06-30T09:16:45Z</time>
      </trkpt>
      <trkpt lat="46.20376" lon="-1.53414">
        <ele>4</ele>
        <time>2025-06-30T09:16:47Z</time>
      </trkpt>
      <trkpt lat="46.20376" lon="-1.53415">
        <ele>4</ele>
        <time>2025-06-30T09:16:48Z</time>
      </trkpt>
      <trkpt lat="46.20378" lon="-1.53419">
        <ele>3.8</ele>
        <time>2025-06-30T09:16:51Z</time>
      </trkpt>
      <trkpt lat="46.20379" lon="-1.53422">
        <ele>3.8</ele>
        <time>2025-06-30T09:16:53Z</time>
      </trkpt>
      <trkpt lat="46.2038" lon="-1.53423">
        <ele>3.8</ele>
        <time>2025-06-30T09:16:54Z</time>
      </trkpt>
      <trkpt lat="46.20381" lon="-1.53425">
        <ele>4</ele>
        <time>2025-06-30T09:16:56Z</time>
      </trkpt>
      <trkpt lat="46.20383" lon="-1.53427">
        <ele>4</ele>
        <time>2025-06-30T09:16:58Z</time>
      </trkpt>
      <trkpt lat="46.20389" lon="-1.53434">
        <ele>4</ele>
        <time>2025-06-30T09:17:03Z</time>
      </trkpt>
      <trkpt lat="46.20393" lon="-1.53437">
        <ele>4.4</ele>
        <time>2025-06-30T09:17:08Z</time>
      </trkpt>
      <trkpt lat="46.20397" lon="-1.53437">
        <ele>4.8</ele>
        <time>2025-06-30T09:17:11Z</time>
      </trkpt>
      <trkpt lat="46.20398" lon="-1.53437">
        <ele>4.8</ele>
        <time>2025-06-30T09:17:12Z</time>
      </trkpt>
      <trkpt lat="46.20401" lon="-1.53438">
        <ele>4.8</ele>
        <time>2025-06-30T09:17:14Z</time>
      </trkpt>
      <trkpt lat="46.20409" lon="-1.53439">
        <ele>4.6</ele>
        <time>2025-06-30T09:17:18Z</time>
      </trkpt>
      <trkpt lat="46.2041" lon="-1.5344">
        <ele>4.2</ele>
        <time>2025-06-30T09:17:20Z</time>
      </trkpt>
      <trkpt lat="46.20413" lon="-1.53441">
        <ele>4.2</ele>
        <time>2025-06-30T09:17:23Z</time>
      </trkpt>
      <trkpt lat="46.20415" lon="-1.53444">
        <ele>4</ele>
        <time>2025-06-30T09:17:25Z</time>
      </trkpt>
      <trkpt lat="46.2042" lon="-1.5345">
        <ele>4.2</ele>
        <time>2025-06-30T09:17:30Z</time>
      </trkpt>
      <trkpt lat="46.20422" lon="-1.5345">
        <ele>4.2</ele>
        <time>2025-06-30T09:17:31Z</time>
      </trkpt>
      <trkpt lat="46.20424" lon="-1.5345">
        <ele>4.2</ele>
        <time>2025-06-30T09:17:33Z</time>
      </trkpt>
      <trkpt lat="46.20429" lon="-1.5345">
        <ele>4.2</ele>
        <time>2025-06-30T09:17:36Z</time>
      </trkpt>
      <trkpt lat="46.20443" lon="-1.53452">
        <ele>4.8</ele>
        <time>2025-06-30T09:17:46Z</time>
      </trkpt>
      <trkpt lat="46.20453" lon="-1.53456">
        <ele>5.2</ele>
        <time>2025-06-30T09:17:53Z</time>
      </trkpt>
      <trkpt lat="46.20459" lon="-1.53459">
        <ele>5</ele>
        <time>2025-06-30T09:17:57Z</time>
      </trkpt>
      <trkpt lat="46.20465" lon="-1.53462">
        <ele>4.8</ele>
        <time>2025-06-30T09:18:01Z</time>
      </trkpt>
      <trkpt lat="46.20466" lon="-1.53464">
        <ele>4.8</ele>
        <time>2025-06-30T09:18:02Z</time>
      </trkpt>
      <trkpt lat="46.20471" lon="-1.53465">
        <ele>4.6</ele>
        <time>2025-06-30T09:18:05Z</time>
      </trkpt>
      <trkpt lat="46.20476" lon="-1.53465">
        <ele>4.6</ele>
        <time>2025-06-30T09:18:08Z</time>
      </trkpt>
      <trkpt lat="46.20481" lon="-1.53466">
        <ele>4.6</ele>
        <time>2025-06-30T09:18:11Z</time>
      </trkpt>
      <trkpt lat="46.20484" lon="-1.53467">
        <ele>4.6</ele>
        <time>2025-06-30T09:18:14Z</time>
      </trkpt>
      <trkpt lat="46.20484" lon="-1.53467">
        <ele>4.8</ele>
        <time>2025-06-30T09:18:16Z</time>
      </trkpt>
      <trkpt lat="46.20485" lon="-1.53466">
        <ele>4.8</ele>
        <time>2025-06-30T09:18:18Z</time>
      </trkpt>
      <trkpt lat="46.20486" lon="-1.53467">
        <ele>4.8</ele>
        <time>2025-06-30T09:18:19Z</time>
      </trkpt>
      <trkpt lat="46.20494" lon="-1.53469">
        <ele>4.6</ele>
        <time>2025-06-30T09:18:25Z</time>
      </trkpt>
      <trkpt lat="46.20496" lon="-1.5347">
        <ele>4.6</ele>
        <time>2025-06-30T09:18:27Z</time>
      </trkpt>
      <trkpt lat="46.20499" lon="-1.53472">
        <ele>4.8</ele>
        <time>2025-06-30T09:18:29Z</time>
      </trkpt>
      <trkpt lat="46.20501" lon="-1.53473">
        <ele>4.8</ele>
        <time>2025-06-30T09:18:31Z</time>
      </trkpt>
      <trkpt lat="46.20506" lon="-1.53475">
        <ele>4.6</ele>
        <time>2025-06-30T09:18:37Z</time>
      </trkpt>
      <trkpt lat="46.20512" lon="-1.53474">
        <ele>4.4</ele>
        <time>2025-06-30T09:18:41Z</time>
      </trkpt>
      <trkpt lat="46.20512" lon="-1.53475">
        <ele>4.4</ele>
        <time>2025-06-30T09:18:42Z</time>
      </trkpt>
      <trkpt lat="46.20511" lon="-1.53478">
        <ele>5</ele>
        <time>2025-06-30T09:18:47Z</time>
      </trkpt>
      <trkpt lat="46.20511" lon="-1.53478">
        <ele>5</ele>
        <time>2025-06-30T09:18:48Z</time>
      </trkpt>
      <trkpt lat="46.20518" lon="-1.53481">
        <ele>4.8</ele>
        <time>2025-06-30T09:18:54Z</time>
      </trkpt>
      <trkpt lat="46.20525" lon="-1.53487">
        <ele>4.8</ele>
        <time>2025-06-30T09:19:00Z</time>
      </trkpt>
      <trkpt lat="46.2053" lon="-1.5349">
        <ele>4.6</ele>
        <time>2025-06-30T09:19:05Z</time>
      </trkpt>
      <trkpt lat="46.2053" lon="-1.53489">
        <ele>4.4</ele>
        <time>2025-06-30T09:19:07Z</time>
      </trkpt>
      <trkpt lat="46.20535" lon="-1.53492">
        <ele>4.4</ele>
        <time>2025-06-30T09:19:11Z</time>
      </trkpt>
      <trkpt lat="46.20536" lon="-1.53494">
        <ele>4.4</ele>
        <time>2025-06-30T09:19:12Z</time>
      </trkpt>
      <trkpt lat="46.20542" lon="-1.53497">
        <ele>4.4</ele>
        <time>2025-06-30T09:19:16Z</time>
      </trkpt>
      <trkpt lat="46.2055" lon="-1.53496">
        <ele>4.8</ele>
        <time>2025-06-30T09:19:23Z</time>
      </trkpt>
      <trkpt lat="46.20553" lon="-1.53499">
        <ele>5</ele>
        <time>2025-06-30T09:19:27Z</time>
      </trkpt>
      <trkpt lat="46.20558" lon="-1.53496">
        <ele>5</ele>
        <time>2025-06-30T09:19:34Z</time>
      </trkpt>
      <trkpt lat="46.2057" lon="-1.53497">
        <ele>4.8</ele>
        <time>2025-06-30T09:19:41Z</time>
      </trkpt>
      <trkpt lat="46.20573" lon="-1.53497">
        <ele>4.6</ele>
        <time>2025-06-30T09:19:45Z</time>
      </trkpt>
      <trkpt lat="46.20573" lon="-1.53498">
        <ele>4.6</ele>
        <time>2025-06-30T09:19:47Z</time>
      </trkpt>
      <trkpt lat="46.20575" lon="-1.535">
        <ele>4.6</ele>
        <time>2025-06-30T09:19:50Z</time>
      </trkpt>
      <trkpt lat="46.20576" lon="-1.535">
        <ele>4.6</ele>
        <time>2025-06-30T09:19:51Z</time>
      </trkpt>
      <trkpt lat="46.20583" lon="-1.53503">
        <ele>4.6</ele>
        <time>2025-06-30T09:19:55Z</time>
      </trkpt>
      <trkpt lat="46.20585" lon="-1.53503">
        <ele>4.6</ele>
        <time>2025-06-30T09:19:57Z</time>
      </trkpt>
      <trkpt lat="46.20586" lon="-1.53503">
        <ele>4.6</ele>
        <time>2025-06-30T09:19:58Z</time>
      </trkpt>
      <trkpt lat="46.2059" lon="-1.53503">
        <ele>4.6</ele>
        <time>2025-06-30T09:20:01Z</time>
      </trkpt>
      <trkpt lat="46.20593" lon="-1.53504">
        <ele>4.8</ele>
        <time>2025-06-30T09:20:03Z</time>
      </trkpt>
      <trkpt lat="46.20595" lon="-1.53504">
        <ele>4.6</ele>
        <time>2025-06-30T09:20:04Z</time>
      </trkpt>
      <trkpt lat="46.20597" lon="-1.53507">
        <ele>4.6</ele>
        <time>2025-06-30T09:20:08Z</time>
      </trkpt>
      <trkpt lat="46.20599" lon="-1.5351">
        <ele>4.6</ele>
        <time>2025-06-30T09:20:10Z</time>
      </trkpt>
      <trkpt lat="46.20599" lon="-1.53512">
        <ele>4.6</ele>
        <time>2025-06-30T09:20:11Z</time>
      </trkpt>
      <trkpt lat="46.20599" lon="-1.53513">
        <ele>4.6</ele>
        <time>2025-06-30T09:20:14Z</time>
      </trkpt>
      <trkpt lat="46.20602" lon="-1.53515">
        <ele>4.6</ele>
        <time>2025-06-30T09:20:19Z</time>
      </trkpt>
      <trkpt lat="46.20602" lon="-1.53518">
        <ele>4.4</ele>
        <time>2025-06-30T09:20:23Z</time>
      </trkpt>
      <trkpt lat="46.20604" lon="-1.53518">
        <ele>4.4</ele>
        <time>2025-06-30T09:20:27Z</time>
      </trkpt>
      <trkpt lat="46.20609" lon="-1.53516">
        <ele>4.8</ele>
        <time>2025-06-30T09:20:31Z</time>
      </trkpt>
      <trkpt lat="46.20614" lon="-1.53515">
        <ele>5</ele>
        <time>2025-06-30T09:20:35Z</time>
      </trkpt>
      <trkpt lat="46.20616" lon="-1.53515">
        <ele>5</ele>
        <time>2025-06-30T09:20:36Z</time>
      </trkpt>
      <trkpt lat="46.20618" lon="-1.53514">
        <ele>5.2</ele>
        <time>2025-06-30T09:20:39Z</time>
      </trkpt>
      <trkpt lat="46.20624" lon="-1.53517">
        <ele>5</ele>
        <time>2025-06-30T09:20:43Z</time>
      </trkpt>
      <trkpt lat="46.20634" lon="-1.53519">
        <ele>4.6</ele>
        <time>2025-06-30T09:20:51Z</time>
      </trkpt>
      <trkpt lat="46.20636" lon="-1.5352">
        <ele>4.6</ele>
        <time>2025-06-30T09:20:53Z</time>
      </trkpt>
      <trkpt lat="46.20642" lon="-1.5352">
        <ele>4.6</ele>
        <time>2025-06-30T09:20:57Z</time>
      </trkpt>
      <trkpt lat="46.20648" lon="-1.53521">
        <ele>4.6</ele>
        <time>2025-06-30T09:21:03Z</time>
      </trkpt>
      <trkpt lat="46.2065" lon="-1.53522">
        <ele>4.4</ele>
        <time>2025-06-30T09:21:04Z</time>
      </trkpt>
      <trkpt lat="46.20658" lon="-1.53528">
        <ele>4.6</ele>
        <time>2025-06-30T09:21:10Z</time>
      </trkpt>
      <trkpt lat="46.2066" lon="-1.53529">
        <ele>4.6</ele>
        <time>2025-06-30T09:21:11Z</time>
      </trkpt>
      <trkpt lat="46.20664" lon="-1.5353">
        <ele>4.6</ele>
        <time>2025-06-30T09:21:13Z</time>
      </trkpt>
      <trkpt lat="46.20671" lon="-1.5353">
        <ele>4.6</ele>
        <time>2025-06-30T09:21:17Z</time>
      </trkpt>
      <trkpt lat="46.20672" lon="-1.53531">
        <ele>4.6</ele>
        <time>2025-06-30T09:21:18Z</time>
      </trkpt>
      <trkpt lat="46.20674" lon="-1.53533">
        <ele>4.6</ele>
        <time>2025-06-30T09:21:20Z</time>
      </trkpt>
      <trkpt lat="46.20676" lon="-1.53534">
        <ele>4.6</ele>
        <time>2025-06-30T09:21:22Z</time>
      </trkpt>
      <trkpt lat="46.20682" lon="-1.53534">
        <ele>4.6</ele>
        <time>2025-06-30T09:21:26Z</time>
      </trkpt>
      <trkpt lat="46.20687" lon="-1.53532">
        <ele>4.8</ele>
        <time>2025-06-30T09:21:29Z</time>
      </trkpt>
      <trkpt lat="46.207" lon="-1.5353">
        <ele>5.2</ele>
        <time>2025-06-30T09:21:35Z</time>
      </trkpt>
      <trkpt lat="46.20703" lon="-1.5353">
        <ele>5.2</ele>
        <time>2025-06-30T09:21:38Z</time>
      </trkpt>
      <trkpt lat="46.20704" lon="-1.5353">
        <ele>5.4</ele>
        <time>2025-06-30T09:21:39Z</time>
      </trkpt>
      <trkpt lat="46.20707" lon="-1.53528">
        <ele>5.4</ele>
        <time>2025-06-30T09:21:41Z</time>
      </trkpt>
      <trkpt lat="46.20712" lon="-1.5353">
        <ele>5.4</ele>
        <time>2025-06-30T09:21:44Z</time>
      </trkpt>
      <trkpt lat="46.20717" lon="-1.53541">
        <ele>5</ele>
        <time>2025-06-30T09:21:50Z</time>
      </trkpt>
      <trkpt lat="46.20718" lon="-1.53543">
        <ele>5</ele>
        <time>2025-06-30T09:21:51Z</time>
      </trkpt>
      <trkpt lat="46.20722" lon="-1.53547">
        <ele>4.8</ele>
        <time>2025-06-30T09:21:55Z</time>
      </trkpt>
      <trkpt lat="46.20725" lon="-1.53549">
        <ele>4.8</ele>
        <time>2025-06-30T09:21:57Z</time>
      </trkpt>
      <trkpt lat="46.20736" lon="-1.53548">
        <ele>5</ele>
        <time>2025-06-30T09:22:04Z</time>
      </trkpt>
      <trkpt lat="46.20739" lon="-1.53545">
        <ele>5.2</ele>
        <time>2025-06-30T09:22:07Z</time>
      </trkpt>
      <trkpt lat="46.20741" lon="-1.53541">
        <ele>5</ele>
        <time>2025-06-30T09:22:10Z</time>
      </trkpt>
      <trkpt lat="46.20745" lon="-1.53538">
        <ele>4.8</ele>
        <time>2025-06-30T09:22:13Z</time>
      </trkpt>
      <trkpt lat="46.20749" lon="-1.53524">
        <ele>4.8</ele>
        <time>2025-06-30T09:22:21Z</time>
      </trkpt>
      <trkpt lat="46.20755" lon="-1.53512">
        <ele>4.8</ele>
        <time>2025-06-30T09:22:29Z</time>
      </trkpt>
      <trkpt lat="46.20755" lon="-1.53511">
        <ele>5</ele>
        <time>2025-06-30T09:22:30Z</time>
      </trkpt>
      <trkpt lat="46.20757" lon="-1.53506">
        <ele>5.2</ele>
        <time>2025-06-30T09:22:33Z</time>
      </trkpt>
      <trkpt lat="46.20761" lon="-1.535">
        <ele>5.2</ele>
        <time>2025-06-30T09:22:36Z</time>
      </trkpt>
      <trkpt lat="46.20762" lon="-1.53495">
        <ele>5.2</ele>
        <time>2025-06-30T09:22:39Z</time>
      </trkpt>
      <trkpt lat="46.20763" lon="-1.5349">
        <ele>5.2</ele>
        <time>2025-06-30T09:22:42Z</time>
      </trkpt>
      <trkpt lat="46.20764" lon="-1.53483">
        <ele>5.6</ele>
        <time>2025-06-30T09:22:46Z</time>
      </trkpt>
      <trkpt lat="46.20764" lon="-1.53479">
        <ele>5.8</ele>
        <time>2025-06-30T09:22:48Z</time>
      </trkpt>
      <trkpt lat="46.20765" lon="-1.53478">
        <ele>5.8</ele>
        <time>2025-06-30T09:22:49Z</time>
      </trkpt>
      <trkpt lat="46.20768" lon="-1.53474">
        <ele>5.4</ele>
        <time>2025-06-30T09:22:52Z</time>
      </trkpt>
      <trkpt lat="46.2077" lon="-1.53472">
        <ele>5.6</ele>
        <time>2025-06-30T09:22:54Z</time>
      </trkpt>
      <trkpt lat="46.20771" lon="-1.5347">
        <ele>5.6</ele>
        <time>2025-06-30T09:22:55Z</time>
      </trkpt>
      <trkpt lat="46.20776" lon="-1.53467">
        <ele>5.6</ele>
        <time>2025-06-30T09:22:58Z</time>
      </trkpt>
      <trkpt lat="46.2078" lon="-1.53463">
        <ele>5.6</ele>
        <time>2025-06-30T09:23:01Z</time>
      </trkpt>
      <trkpt lat="46.20782" lon="-1.53461">
        <ele>5.4</ele>
        <time>2025-06-30T09:23:05Z</time>
      </trkpt>
      <trkpt lat="46.20783" lon="-1.53461">
        <ele>5.4</ele>
        <time>2025-06-30T09:23:06Z</time>
      </trkpt>
      <trkpt lat="46.20784" lon="-1.5346">
        <ele>5.4</ele>
        <time>2025-06-30T09:23:07Z</time>
      </trkpt>
      <trkpt lat="46.20785" lon="-1.5346">
        <ele>5.4</ele>
        <time>2025-06-30T09:23:09Z</time>
      </trkpt>
      <trkpt lat="46.20791" lon="-1.53462">
        <ele>5.2</ele>
        <time>2025-06-30T09:23:13Z</time>
      </trkpt>
      <trkpt lat="46.20801" lon="-1.53465">
        <ele>5.2</ele>
        <time>2025-06-30T09:23:20Z</time>
      </trkpt>
      <trkpt lat="46.20813" lon="-1.5347">
        <ele>5</ele>
        <time>2025-06-30T09:23:27Z</time>
      </trkpt>
      <trkpt lat="46.20821" lon="-1.53477">
        <ele>5</ele>
        <time>2025-06-30T09:23:35Z</time>
      </trkpt>
      <trkpt lat="46.20826" lon="-1.53482">
        <ele>5.2</ele>
        <time>2025-06-30T09:23:40Z</time>
      </trkpt>
      <trkpt lat="46.20831" lon="-1.53486">
        <ele>5.2</ele>
        <time>2025-06-30T09:23:44Z</time>
      </trkpt>
      <trkpt lat="46.20832" lon="-1.53487">
        <ele>5.2</ele>
        <time>2025-06-30T09:23:46Z</time>
      </trkpt>
      <trkpt lat="46.20832" lon="-1.53487">
        <ele>5.2</ele>
        <time>2025-06-30T09:23:47Z</time>
      </trkpt>
      <trkpt lat="46.20834" lon="-1.53489">
        <ele>5.2</ele>
        <time>2025-06-30T09:23:50Z</time>
      </trkpt>
      <trkpt lat="46.20836" lon="-1.5349">
        <ele>5</ele>
        <time>2025-06-30T09:23:53Z</time>
      </trkpt>
      <trkpt lat="46.20837" lon="-1.53491">
        <ele>5.2</ele>
        <time>2025-06-30T09:23:55Z</time>
      </trkpt>
      <trkpt lat="46.2084" lon="-1.53491">
        <ele>5.2</ele>
        <time>2025-06-30T09:23:57Z</time>
      </trkpt>
      <trkpt lat="46.20843" lon="-1.53495">
        <ele>5.4</ele>
        <time>2025-06-30T09:24:01Z</time>
      </trkpt>
      <trkpt lat="46.20845" lon="-1.53494">
        <ele>5.6</ele>
        <time>2025-06-30T09:24:03Z</time>
      </trkpt>
      <trkpt lat="46.20847" lon="-1.53495">
        <ele>5.4</ele>
        <time>2025-06-30T09:24:05Z</time>
      </trkpt>
      <trkpt lat="46.20852" lon="-1.53497">
        <ele>5.4</ele>
        <time>2025-06-30T09:24:10Z</time>
      </trkpt>
      <trkpt lat="46.2086" lon="-1.53506">
        <ele>5.6</ele>
        <time>2025-06-30T09:24:18Z</time>
      </trkpt>
      <trkpt lat="46.20862" lon="-1.53509">
        <ele>5.6</ele>
        <time>2025-06-30T09:24:20Z</time>
      </trkpt>
      <trkpt lat="46.20863" lon="-1.53509">
        <ele>5.8</ele>
        <time>2025-06-30T09:24:22Z</time>
      </trkpt>
      <trkpt lat="46.20863" lon="-1.53509">
        <ele>5.8</ele>
        <time>2025-06-30T09:24:23Z</time>
      </trkpt>
      <trkpt lat="46.20866" lon="-1.5351">
        <ele>6</ele>
        <time>2025-06-30T09:24:26Z</time>
      </trkpt>
      <trkpt lat="46.20877" lon="-1.53515">
        <ele>6.2</ele>
        <time>2025-06-30T09:24:34Z</time>
      </trkpt>
      <trkpt lat="46.20877" lon="-1.53516">
        <ele>6.2</ele>
        <time>2025-06-30T09:24:35Z</time>
      </trkpt>
      <trkpt lat="46.20881" lon="-1.53517">
        <ele>6.2</ele>
        <time>2025-06-30T09:24:38Z</time>
      </trkpt>
      <trkpt lat="46.20884" lon="-1.5352">
        <ele>6.2</ele>
        <time>2025-06-30T09:24:41Z</time>
      </trkpt>
      <trkpt lat="46.20893" lon="-1.53523">
        <ele>6</ele>
        <time>2025-06-30T09:24:48Z</time>
      </trkpt>
      <trkpt lat="46.20902" lon="-1.53529">
        <ele>5.6</ele>
        <time>2025-06-30T09:24:57Z</time>
      </trkpt>
      <trkpt lat="46.20916" lon="-1.53535">
        <ele>5.4</ele>
        <time>2025-06-30T09:25:07Z</time>
      </trkpt>
      <trkpt lat="46.20917" lon="-1.53536">
        <ele>5.4</ele>
        <time>2025-06-30T09:25:08Z</time>
      </trkpt>
      <trkpt lat="46.20929" lon="-1.53541">
        <ele>5.6</ele>
        <time>2025-06-30T09:25:17Z</time>
      </trkpt>
      <trkpt lat="46.20941" lon="-1.53547">
        <ele>5.8</ele>
        <time>2025-06-30T09:25:25Z</time>
      </trkpt>
      <trkpt lat="46.20953" lon="-1.53555">
        <ele>5.8</ele>
        <time>2025-06-30T09:25:34Z</time>
      </trkpt>
      <trkpt lat="46.20958" lon="-1.53561">
        <ele>6</ele>
        <time>2025-06-30T09:25:41Z</time>
      </trkpt>
      <trkpt lat="46.20967" lon="-1.53565">
        <ele>6</ele>
        <time>2025-06-30T09:25:48Z</time>
      </trkpt>
      <trkpt lat="46.20973" lon="-1.53567">
        <ele>5.8</ele>
        <time>2025-06-30T09:25:51Z</time>
      </trkpt>
      <trkpt lat="46.20975" lon="-1.53572">
        <ele>5.8</ele>
        <time>2025-06-30T09:25:54Z</time>
      </trkpt>
      <trkpt lat="46.20979" lon="-1.53577">
        <ele>5.8</ele>
        <time>2025-06-30T09:25:58Z</time>
      </trkpt>
      <trkpt lat="46.2098" lon="-1.53578">
        <ele>6</ele>
        <time>2025-06-30T09:26:00Z</time>
      </trkpt>
      <trkpt lat="46.2099" lon="-1.53582">
        <ele>6.6</ele>
        <time>2025-06-30T09:26:08Z</time>
      </trkpt>
      <trkpt lat="46.20991" lon="-1.53583">
        <ele>6.6</ele>
        <time>2025-06-30T09:26:09Z</time>
      </trkpt>
      <trkpt lat="46.20994" lon="-1.53583">
        <ele>6.6</ele>
        <time>2025-06-30T09:26:12Z</time>
      </trkpt>
      <trkpt lat="46.20995" lon="-1.53583">
        <ele>6.6</ele>
        <time>2025-06-30T09:26:13Z</time>
      </trkpt>
      <trkpt lat="46.20996" lon="-1.53583">
        <ele>6.8</ele>
        <time>2025-06-30T09:26:14Z</time>
      </trkpt>
      <trkpt lat="46.21005" lon="-1.53589">
        <ele>6.6</ele>
        <time>2025-06-30T09:26:21Z</time>
      </trkpt>
      <trkpt lat="46.21008" lon="-1.53591">
        <ele>6.2</ele>
        <time>2025-06-30T09:26:23Z</time>
      </trkpt>
      <trkpt lat="46.2101" lon="-1.53592">
        <ele>6</ele>
        <time>2025-06-30T09:26:25Z</time>
      </trkpt>
      <trkpt lat="46.21013" lon="-1.53593">
        <ele>6</ele>
        <time>2025-06-30T09:26:27Z</time>
      </trkpt>
      <trkpt lat="46.21014" lon="-1.53593">
        <ele>5.8</ele>
        <time>2025-06-30T09:26:28Z</time>
      </trkpt>
      <trkpt lat="46.21022" lon="-1.53596">
        <ele>4.8</ele>
        <time>2025-06-30T09:26:35Z</time>
      </trkpt>
      <trkpt lat="46.21023" lon="-1.53597">
        <ele>4.8</ele>
        <time>2025-06-30T09:26:36Z</time>
      </trkpt>
      <trkpt lat="46.21032" lon="-1.53605">
        <ele>4.2</ele>
        <time>2025-06-30T09:26:44Z</time>
      </trkpt>
      <trkpt lat="46.21037" lon="-1.5361">
        <ele>4</ele>
        <time>2025-06-30T09:26:51Z</time>
      </trkpt>
      <trkpt lat="46.21038" lon="-1.53611">
        <ele>4</ele>
        <time>2025-06-30T09:26:52Z</time>
      </trkpt>
      <trkpt lat="46.21047" lon="-1.53614">
        <ele>3.8</ele>
        <time>2025-06-30T09:27:00Z</time>
      </trkpt>
      <trkpt lat="46.21049" lon="-1.53614">
        <ele>4</ele>
        <time>2025-06-30T09:27:01Z</time>
      </trkpt>
      <trkpt lat="46.21051" lon="-1.53615">
        <ele>4</ele>
        <time>2025-06-30T09:27:04Z</time>
      </trkpt>
      <trkpt lat="46.21054" lon="-1.53619">
        <ele>4</ele>
        <time>2025-06-30T09:27:07Z</time>
      </trkpt>
      <trkpt lat="46.21059" lon="-1.53622">
        <ele>4.2</ele>
        <time>2025-06-30T09:27:11Z</time>
      </trkpt>
      <trkpt lat="46.21067" lon="-1.53626">
        <ele>4.2</ele>
        <time>2025-06-30T09:27:16Z</time>
      </trkpt>
      <trkpt lat="46.21073" lon="-1.53631">
        <ele>4.2</ele>
        <time>2025-06-30T09:27:21Z</time>
      </trkpt>
      <trkpt lat="46.21077" lon="-1.53635">
        <ele>4.2</ele>
        <time>2025-06-30T09:27:24Z</time>
      </trkpt>
      <trkpt lat="46.21091" lon="-1.53641">
        <ele>4.4</ele>
        <time>2025-06-30T09:27:34Z</time>
      </trkpt>
      <trkpt lat="46.21104" lon="-1.53647">
        <ele>4.4</ele>
        <time>2025-06-30T09:27:42Z</time>
      </trkpt>
      <trkpt lat="46.21115" lon="-1.53653">
        <ele>4.8</ele>
        <time>2025-06-30T09:27:51Z</time>
      </trkpt>
      <trkpt lat="46.21116" lon="-1.53654">
        <ele>4.8</ele>
        <time>2025-06-30T09:27:52Z</time>
      </trkpt>
      <trkpt lat="46.21118" lon="-1.53657">
        <ele>4.8</ele>
        <time>2025-06-30T09:27:56Z</time>
      </trkpt>
      <trkpt lat="46.21131" lon="-1.53664">
        <ele>5</ele>
        <time>2025-06-30T09:28:04Z</time>
      </trkpt>
      <trkpt lat="46.21137" lon="-1.53666">
        <ele>5</ele>
        <time>2025-06-30T09:28:10Z</time>
      </trkpt>
      <trkpt lat="46.21137" lon="-1.53652">
        <ele>5.2</ele>
        <time>2025-06-30T09:28:17Z</time>
      </trkpt>
      <trkpt lat="46.21136" lon="-1.53641">
        <ele>5</ele>
        <time>2025-06-30T09:28:22Z</time>
      </trkpt>
      <trkpt lat="46.21136" lon="-1.5364">
        <ele>5</ele>
        <time>2025-06-30T09:28:23Z</time>
      </trkpt>
      <trkpt lat="46.21135" lon="-1.53636">
        <ele>5</ele>
        <time>2025-06-30T09:28:25Z</time>
      </trkpt>
      <trkpt lat="46.21133" lon="-1.53622">
        <ele>5</ele>
        <time>2025-06-30T09:28:32Z</time>
      </trkpt>
      <trkpt lat="46.21132" lon="-1.53618">
        <ele>4.8</ele>
        <time>2025-06-30T09:28:34Z</time>
      </trkpt>
      <trkpt lat="46.2113" lon="-1.53599">
        <ele>4.6</ele>
        <time>2025-06-30T09:28:43Z</time>
      </trkpt>
      <trkpt lat="46.21129" lon="-1.53594">
        <ele>4.6</ele>
        <time>2025-06-30T09:28:45Z</time>
      </trkpt>
      <trkpt lat="46.2113" lon="-1.53584">
        <ele>4.4</ele>
        <time>2025-06-30T09:28:50Z</time>
      </trkpt>
      <trkpt lat="46.2113" lon="-1.53567">
        <ele>4.6</ele>
        <time>2025-06-30T09:28:58Z</time>
      </trkpt>
      <trkpt lat="46.2113" lon="-1.53561">
        <ele>4.4</ele>
        <time>2025-06-30T09:29:01Z</time>
      </trkpt>
      <trkpt lat="46.21131" lon="-1.53555">
        <ele>4.4</ele>
        <time>2025-06-30T09:29:04Z</time>
      </trkpt>
      <trkpt lat="46.21134" lon="-1.53533">
        <ele>4.4</ele>
        <time>2025-06-30T09:29:14Z</time>
      </trkpt>
      <trkpt lat="46.21133" lon="-1.53521">
        <ele>4.2</ele>
        <time>2025-06-30T09:29:20Z</time>
      </trkpt>
      <trkpt lat="46.21134" lon="-1.53516">
        <ele>4.2</ele>
        <time>2025-06-30T09:29:23Z</time>
      </trkpt>
      <trkpt lat="46.21134" lon="-1.53515">
        <ele>4.2</ele>
        <time>2025-06-30T09:29:28Z</time>
      </trkpt>
      <trkpt lat="46.21133" lon="-1.53519">
        <ele>3.8</ele>
        <time>2025-06-30T09:29:32Z</time>
      </trkpt>
      <trkpt lat="46.21133" lon="-1.5352">
        <ele>3.8</ele>
        <time>2025-06-30T09:29:33Z</time>
      </trkpt>
      <trkpt lat="46.21131" lon="-1.53511">
        <ele>3.6</ele>
        <time>2025-06-30T09:29:39Z</time>
      </trkpt>
      <trkpt lat="46.21132" lon="-1.53498">
        <ele>3.6</ele>
        <time>2025-06-30T09:29:45Z</time>
      </trkpt>
      <trkpt lat="46.21134" lon="-1.53493">
        <ele>3.4</ele>
        <time>2025-06-30T09:29:47Z</time>
      </trkpt>
      <trkpt lat="46.21133" lon="-1.53479">
        <ele>3.6</ele>
        <time>2025-06-30T09:29:53Z</time>
      </trkpt>
      <trkpt lat="46.21133" lon="-1.53463">
        <ele>3</ele>
        <time>2025-06-30T09:30:01Z</time>
      </trkpt>
      <trkpt lat="46.21132" lon="-1.5344">
        <ele>3</ele>
        <time>2025-06-30T09:30:13Z</time>
      </trkpt>
      <trkpt lat="46.21127" lon="-1.53424">
        <ele>3.2</ele>
        <time>2025-06-30T09:30:21Z</time>
      </trkpt>
      <trkpt lat="46.21125" lon="-1.53407">
        <ele>3.6</ele>
        <time>2025-06-30T09:30:29Z</time>
      </trkpt>
      <trkpt lat="46.21125" lon="-1.53404">
        <ele>3.4</ele>
        <time>2025-06-30T09:30:31Z</time>
      </trkpt>
      <trkpt lat="46.2112" lon="-1.53382">
        <ele>3</ele>
        <time>2025-06-30T09:30:41Z</time>
      </trkpt>
      <trkpt lat="46.21117" lon="-1.53373">
        <ele>3</ele>
        <time>2025-06-30T09:30:46Z</time>
      </trkpt>
      <trkpt lat="46.21116" lon="-1.53364">
        <ele>2.8</ele>
        <time>2025-06-30T09:30:50Z</time>
      </trkpt>
      <trkpt lat="46.21116" lon="-1.53359">
        <ele>2.6</ele>
        <time>2025-06-30T09:30:52Z</time>
      </trkpt>
      <trkpt lat="46.21115" lon="-1.53355">
        <ele>2.6</ele>
        <time>2025-06-30T09:30:54Z</time>
      </trkpt>
      <trkpt lat="46.21117" lon="-1.53339">
        <ele>2.4</ele>
        <time>2025-06-30T09:31:01Z</time>
      </trkpt>
      <trkpt lat="46.21118" lon="-1.53335">
        <ele>2.4</ele>
        <time>2025-06-30T09:31:03Z</time>
      </trkpt>
      <trkpt lat="46.21116" lon="-1.53321">
        <ele>2</ele>
        <time>2025-06-30T09:31:09Z</time>
      </trkpt>
      <trkpt lat="46.21117" lon="-1.53304">
        <ele>2.2</ele>
        <time>2025-06-30T09:31:17Z</time>
      </trkpt>
      <trkpt lat="46.21121" lon="-1.53284">
        <ele>1.8</ele>
        <time>2025-06-30T09:31:27Z</time>
      </trkpt>
      <trkpt lat="46.21123" lon="-1.53276">
        <ele>1.6</ele>
        <time>2025-06-30T09:31:31Z</time>
      </trkpt>
      <trkpt lat="46.21125" lon="-1.53264">
        <ele>1.6</ele>
        <time>2025-06-30T09:31:37Z</time>
      </trkpt>
      <trkpt lat="46.21126" lon="-1.5326">
        <ele>1.6</ele>
        <time>2025-06-30T09:31:39Z</time>
      </trkpt>
      <trkpt lat="46.21126" lon="-1.53258">
        <ele>1.6</ele>
        <time>2025-06-30T09:31:40Z</time>
      </trkpt>
      <trkpt lat="46.21126" lon="-1.53248">
        <ele>1.4</ele>
        <time>2025-06-30T09:31:45Z</time>
      </trkpt>
      <trkpt lat="46.21129" lon="-1.53236">
        <ele>1.6</ele>
        <time>2025-06-30T09:31:52Z</time>
      </trkpt>
      <trkpt lat="46.2113" lon="-1.53234">
        <ele>1.6</ele>
        <time>2025-06-30T09:31:53Z</time>
      </trkpt>
      <trkpt lat="46.21135" lon="-1.53226">
        <ele>1.6</ele>
        <time>2025-06-30T09:31:57Z</time>
      </trkpt>
      <trkpt lat="46.21136" lon="-1.53225">
        <ele>1.6</ele>
        <time>2025-06-30T09:31:58Z</time>
      </trkpt>
      <trkpt lat="46.21137" lon="-1.53222">
        <ele>1.6</ele>
        <time>2025-06-30T09:32:00Z</time>
      </trkpt>
      <trkpt lat="46.21138" lon="-1.53219">
        <ele>1.4</ele>
        <time>2025-06-30T09:32:01Z</time>
      </trkpt>
      <trkpt lat="46.21143" lon="-1.53212">
        <ele>1.2</ele>
        <time>2025-06-30T09:32:06Z</time>
      </trkpt>
      <trkpt lat="46.21144" lon="-1.53211">
        <ele>1.2</ele>
        <time>2025-06-30T09:32:07Z</time>
      </trkpt>
      <trkpt lat="46.21148" lon="-1.53204">
        <ele>1.4</ele>
        <time>2025-06-30T09:32:12Z</time>
      </trkpt>
      <trkpt lat="46.21154" lon="-1.53182">
        <ele>1.4</ele>
        <time>2025-06-30T09:32:23Z</time>
      </trkpt>
      <trkpt lat="46.21155" lon="-1.5317">
        <ele>1.2</ele>
        <time>2025-06-30T09:32:29Z</time>
      </trkpt>
      <trkpt lat="46.21155" lon="-1.53162">
        <ele>1.4</ele>
        <time>2025-06-30T09:32:32Z</time>
      </trkpt>
      <trkpt lat="46.21154" lon="-1.53142">
        <ele>1.6</ele>
        <time>2025-06-30T09:32:41Z</time>
      </trkpt>
      <trkpt lat="46.21153" lon="-1.53124">
        <ele>1.6</ele>
        <time>2025-06-30T09:32:50Z</time>
      </trkpt>
      <trkpt lat="46.21152" lon="-1.53104">
        <ele>1.6</ele>
        <time>2025-06-30T09:33:00Z</time>
      </trkpt>
      <trkpt lat="46.21149" lon="-1.53085">
        <ele>1.8</ele>
        <time>2025-06-30T09:33:09Z</time>
      </trkpt>
      <trkpt lat="46.21145" lon="-1.53068">
        <ele>1.8</ele>
        <time>2025-06-30T09:33:18Z</time>
      </trkpt>
      <trkpt lat="46.21143" lon="-1.53055">
        <ele>1.4</ele>
        <time>2025-06-30T09:33:24Z</time>
      </trkpt>
      <trkpt lat="46.21142" lon="-1.53053">
        <ele>1.4</ele>
        <time>2025-06-30T09:33:25Z</time>
      </trkpt>
      <trkpt lat="46.2114" lon="-1.53045">
        <ele>1.2</ele>
        <time>2025-06-30T09:33:29Z</time>
      </trkpt>
      <trkpt lat="46.21138" lon="-1.53034">
        <ele>1.2</ele>
        <time>2025-06-30T09:33:34Z</time>
      </trkpt>
      <trkpt lat="46.21134" lon="-1.53018">
        <ele>1.2</ele>
        <time>2025-06-30T09:33:43Z</time>
      </trkpt>
      <trkpt lat="46.21129" lon="-1.53001">
        <ele>1.6</ele>
        <time>2025-06-30T09:33:51Z</time>
      </trkpt>
      <trkpt lat="46.21123" lon="-1.52981">
        <ele>1.8</ele>
        <time>2025-06-30T09:34:01Z</time>
      </trkpt>
      <trkpt lat="46.2112" lon="-1.52972">
        <ele>1.6</ele>
        <time>2025-06-30T09:34:06Z</time>
      </trkpt>
      <trkpt lat="46.21117" lon="-1.52964">
        <ele>1.4</ele>
        <time>2025-06-30T09:34:10Z</time>
      </trkpt>
      <trkpt lat="46.21116" lon="-1.52958">
        <ele>1.4</ele>
        <time>2025-06-30T09:34:13Z</time>
      </trkpt>
      <trkpt lat="46.21114" lon="-1.52951">
        <ele>1.2</ele>
        <time>2025-06-30T09:34:17Z</time>
      </trkpt>
      <trkpt lat="46.21109" lon="-1.52932">
        <ele>1</ele>
        <time>2025-06-30T09:34:27Z</time>
      </trkpt>
      <trkpt lat="46.21107" lon="-1.52919">
        <ele>0.80000000000001</ele>
        <time>2025-06-30T09:34:33Z</time>
      </trkpt>
      <trkpt lat="46.21106" lon="-1.52915">
        <ele>0.80000000000001</ele>
        <time>2025-06-30T09:34:35Z</time>
      </trkpt>
      <trkpt lat="46.21101" lon="-1.5289">
        <ele>1.2</ele>
        <time>2025-06-30T09:34:47Z</time>
      </trkpt>
      <trkpt lat="46.21098" lon="-1.52873">
        <ele>1.2</ele>
        <time>2025-06-30T09:34:55Z</time>
      </trkpt>
      <trkpt lat="46.21097" lon="-1.5287">
        <ele>1.2</ele>
        <time>2025-06-30T09:34:57Z</time>
      </trkpt>
      <trkpt lat="46.21091" lon="-1.52852">
        <ele>1.2</ele>
        <time>2025-06-30T09:35:06Z</time>
      </trkpt>
      <trkpt lat="46.21083" lon="-1.52832">
        <ele>0.60000000000002</ele>
        <time>2025-06-30T09:35:18Z</time>
      </trkpt>
      <trkpt lat="46.21082" lon="-1.5283">
        <ele>0.60000000000002</ele>
        <time>2025-06-30T09:35:19Z</time>
      </trkpt>
      <trkpt lat="46.21081" lon="-1.52826">
        <ele>0.60000000000002</ele>
        <time>2025-06-30T09:35:21Z</time>
      </trkpt>
      <trkpt lat="46.21078" lon="-1.52817">
        <ele>0.60000000000002</ele>
        <time>2025-06-30T09:35:26Z</time>
      </trkpt>
      <trkpt lat="46.21071" lon="-1.528">
        <ele>0.39999999999998</ele>
        <time>2025-06-30T09:35:36Z</time>
      </trkpt>
      <trkpt lat="46.21069" lon="-1.52797">
        <ele>0.19999999999999</ele>
        <time>2025-06-30T09:35:38Z</time>
      </trkpt>
      <trkpt lat="46.21065" lon="-1.52789">
        <ele>0.19999999999999</ele>
        <time>2025-06-30T09:35:42Z</time>
      </trkpt>
      <trkpt lat="46.21064" lon="-1.52787">
        <ele>0.19999999999999</ele>
        <time>2025-06-30T09:35:43Z</time>
      </trkpt>
      <trkpt lat="46.21057" lon="-1.5277">
        <ele>0.60000000000002</ele>
        <time>2025-06-30T09:35:52Z</time>
      </trkpt>
      <trkpt lat="46.21048" lon="-1.52753">
        <ele>0.39999999999998</ele>
        <time>2025-06-30T09:36:02Z</time>
      </trkpt>
      <trkpt lat="46.21042" lon="-1.52733">
        <ele>0.39999999999998</ele>
        <time>2025-06-30T09:36:12Z</time>
      </trkpt>
      <trkpt lat="46.21041" lon="-1.52732">
        <ele>0.39999999999998</ele>
        <time>2025-06-30T09:36:13Z</time>
      </trkpt>
      <trkpt lat="46.21038" lon="-1.52719">
        <ele>-0.19999999999999</ele>
        <time>2025-06-30T09:36:19Z</time>
      </trkpt>
      <trkpt lat="46.21038" lon="-1.52712">
        <ele>-0.19999999999999</ele>
        <time>2025-06-30T09:36:22Z</time>
      </trkpt>
      <trkpt lat="46.21038" lon="-1.52702">
        <ele>0.19999999999999</ele>
        <time>2025-06-30T09:36:27Z</time>
      </trkpt>
      <trkpt lat="46.21036" lon="-1.52693">
        <ele>0.19999999999999</ele>
        <time>2025-06-30T09:36:31Z</time>
      </trkpt>
      <trkpt lat="46.21035" lon="-1.52686">
        <ele>0.19999999999999</ele>
        <time>2025-06-30T09:36:35Z</time>
      </trkpt>
      <trkpt lat="46.21035" lon="-1.52681">
        <ele>0.19999999999999</ele>
        <time>2025-06-30T09:36:37Z</time>
      </trkpt>
      <trkpt lat="46.21034" lon="-1.52676">
        <ele>0.19999999999999</ele>
        <time>2025-06-30T09:36:40Z</time>
      </trkpt>
      <trkpt lat="46.21032" lon="-1.52663">
        <ele>-0.39999999999998</ele>
        <time>2025-06-30T09:36:46Z</time>
      </trkpt>
      <trkpt lat="46.21026" lon="-1.5265">
        <ele>-0.39999999999998</ele>
        <time>2025-06-30T09:36:53Z</time>
      </trkpt>
      <trkpt lat="46.21023" lon="-1.52639">
        <ele>-0.19999999999999</ele>
        <time>2025-06-30T09:36:59Z</time>
      </trkpt>
      <trkpt lat="46.21014" lon="-1.52623">
        <ele>-0.39999999999998</ele>
        <time>2025-06-30T09:37:09Z</time>
      </trkpt>
      <trkpt lat="46.21007" lon="-1.52614">
        <ele>-0.39999999999998</ele>
        <time>2025-06-30T09:37:16Z</time>
      </trkpt>
      <trkpt lat="46.20997" lon="-1.52598">
        <ele>0.19999999999999</ele>
        <time>2025-06-30T09:37:26Z</time>
      </trkpt>
      <trkpt lat="46.20989" lon="-1.52586">
        <ele>-0.19999999999999</ele>
        <time>2025-06-30T09:37:34Z</time>
      </trkpt>
      <trkpt lat="46.20986" lon="-1.5258">
        <ele>-0.19999999999999</ele>
        <time>2025-06-30T09:37:37Z</time>
      </trkpt>
      <trkpt lat="46.2098" lon="-1.52564">
        <ele>-0.19999999999999</ele>
        <time>2025-06-30T09:37:46Z</time>
      </trkpt>
      <trkpt lat="46.20976" lon="-1.52547">
        <ele>0.39999999999998</ele>
        <time>2025-06-30T09:37:54Z</time>
      </trkpt>
      <trkpt lat="46.20974" lon="-1.52531">
        <ele>0.19999999999999</ele>
        <time>2025-06-30T09:38:02Z</time>
      </trkpt>
      <trkpt lat="46.20972" lon="-1.52516">
        <ele>0.39999999999998</ele>
        <time>2025-06-30T09:38:09Z</time>
      </trkpt>
      <trkpt lat="46.20971" lon="-1.52499">
        <ele>0.19999999999999</ele>
        <time>2025-06-30T09:38:17Z</time>
      </trkpt>
      <trkpt lat="46.20967" lon="-1.52482">
        <ele>0.19999999999999</ele>
        <time>2025-06-30T09:38:26Z</time>
      </trkpt>
      <trkpt lat="46.20965" lon="-1.52472">
        <ele>0.19999999999999</ele>
        <time>2025-06-30T09:38:31Z</time>
      </trkpt>
      <trkpt lat="46.20963" lon="-1.5246">
        <ele>0.19999999999999</ele>
        <time>2025-06-30T09:38:37Z</time>
      </trkpt>
      <trkpt lat="46.20962" lon="-1.52455">
        <ele>0.19999999999999</ele>
        <time>2025-06-30T09:38:39Z</time>
      </trkpt>
      <trkpt lat="46.20959" lon="-1.52445">
        <ele>0.19999999999999</ele>
        <time>2025-06-30T09:38:45Z</time>
      </trkpt>
      <trkpt lat="46.20953" lon="-1.52429">
        <ele>0.39999999999998</ele>
        <time>2025-06-30T09:38:53Z</time>
      </trkpt>
      <trkpt lat="46.20947" lon="-1.52403">
        <ele>0.39999999999998</ele>
        <time>2025-06-30T09:39:06Z</time>
      </trkpt>
      <trkpt lat="46.20947" lon="-1.524">
        <ele>0.39999999999998</ele>
        <time>2025-06-30T09:39:07Z</time>
      </trkpt>
      <trkpt lat="46.20945" lon="-1.52393">
        <ele>0.39999999999998</ele>
        <time>2025-06-30T09:39:11Z</time>
      </trkpt>
      <trkpt lat="46.20944" lon="-1.52392">
        <ele>0.19999999999999</ele>
        <time>2025-06-30T09:39:12Z</time>
      </trkpt>
      <trkpt lat="46.20941" lon="-1.52377">
        <ele>0.19999999999999</ele>
        <time>2025-06-30T09:39:19Z</time>
      </trkpt>
      <trkpt lat="46.2094" lon="-1.52358">
        <ele>0.19999999999999</ele>
        <time>2025-06-30T09:39:28Z</time>
      </trkpt>
      <trkpt lat="46.20939" lon="-1.52351">
        <ele>0.60000000000002</ele>
        <time>2025-06-30T09:39:31Z</time>
      </trkpt>
      <trkpt lat="46.20939" lon="-1.5234">
        <ele>0.80000000000001</ele>
        <time>2025-06-30T09:39:36Z</time>
      </trkpt>
      <trkpt lat="46.20941" lon="-1.52319">
        <ele>0.19999999999999</ele>
        <time>2025-06-30T09:39:46Z</time>
      </trkpt>
      <trkpt lat="46.20942" lon="-1.52299">
        <ele>0.39999999999998</ele>
        <time>2025-06-30T09:39:56Z</time>
      </trkpt>
      <trkpt lat="46.20945" lon="-1.52277">
        <ele>0.19999999999999</ele>
        <time>2025-06-30T09:40:06Z</time>
      </trkpt>
      <trkpt lat="46.20948" lon="-1.5226">
        <ele>0.19999999999999</ele>
        <time>2025-06-30T09:40:14Z</time>
      </trkpt>
      <trkpt lat="46.2095" lon="-1.52242">
        <ele>0.19999999999999</ele>
        <time>2025-06-30T09:40:23Z</time>
      </trkpt>
      <trkpt lat="46.2095" lon="-1.52221">
        <ele>0.39999999999998</ele>
        <time>2025-06-30T09:40:33Z</time>
      </trkpt>
      <trkpt lat="46.20946" lon="-1.52204">
        <ele>0.39999999999998</ele>
        <time>2025-06-30T09:40:41Z</time>
      </trkpt>
      <trkpt lat="46.2094" lon="-1.52185">
        <ele>-0.19999999999999</ele>
        <time>2025-06-30T09:40:51Z</time>
      </trkpt>
      <trkpt lat="46.20936" lon="-1.52173">
        <ele>-0.19999999999999</ele>
        <time>2025-06-30T09:40:57Z</time>
      </trkpt>
      <trkpt lat="46.20933" lon="-1.52165">
        <ele>-0.39999999999998</ele>
        <time>2025-06-30T09:41:01Z</time>
      </trkpt>
      <trkpt lat="46.20931" lon="-1.5216">
        <ele>-0.39999999999998</ele>
        <time>2025-06-30T09:41:03Z</time>
      </trkpt>
      <trkpt lat="46.20929" lon="-1.52154">
        <ele>0.19999999999999</ele>
        <time>2025-06-30T09:41:07Z</time>
      </trkpt>
      <trkpt lat="46.20926" lon="-1.52147">
        <ele>0.19999999999999</ele>
        <time>2025-06-30T09:41:11Z</time>
      </trkpt>
      <trkpt lat="46.2092" lon="-1.52143">
        <ele>0.19999999999999</ele>
        <time>2025-06-30T09:41:18Z</time>
      </trkpt>
      <trkpt lat="46.20917" lon="-1.52127">
        <ele>0.39999999999998</ele>
        <time>2025-06-30T09:41:27Z</time>
      </trkpt>
      <trkpt lat="46.20911" lon="-1.52112">
        <ele>0.39999999999998</ele>
        <time>2025-06-30T09:41:35Z</time>
      </trkpt>
      <trkpt lat="46.20902" lon="-1.52096">
        <ele>0.39999999999998</ele>
        <time>2025-06-30T09:41:45Z</time>
      </trkpt>
      <trkpt lat="46.20893" lon="-1.52083">
        <ele>0.39999999999998</ele>
        <time>2025-06-30T09:41:54Z</time>
      </trkpt>
      <trkpt lat="46.20888" lon="-1.52073">
        <ele>0.19999999999999</ele>
        <time>2025-06-30T09:42:00Z</time>
      </trkpt>
      <trkpt lat="46.20886" lon="-1.5207">
        <ele>0.19999999999999</ele>
        <time>2025-06-30T09:42:02Z</time>
      </trkpt>
      <trkpt lat="46.20876" lon="-1.52053">
        <ele>0.19999999999999</ele>
        <time>2025-06-30T09:42:13Z</time>
      </trkpt>
      <trkpt lat="46.20875" lon="-1.52051">
        <ele>0.19999999999999</ele>
        <time>2025-06-30T09:42:14Z</time>
      </trkpt>
      <trkpt lat="46.20864" lon="-1.52034">
        <ele>0.19999999999999</ele>
        <time>2025-06-30T09:42:25Z</time>
      </trkpt>
      <trkpt lat="46.20858" lon="-1.52023">
        <ele>0.19999999999999</ele>
        <time>2025-06-30T09:42:32Z</time>
      </trkpt>
      <trkpt lat="46.20848" lon="-1.52011">
        <ele>0.19999999999999</ele>
        <time>2025-06-30T09:42:40Z</time>
      </trkpt>
      <trkpt lat="46.20839" lon="-1.51997">
        <ele>-0.19999999999999</ele>
        <time>2025-06-30T09:42:49Z</time>
      </trkpt>
      <trkpt lat="46.20833" lon="-1.51984">
        <ele>-0.19999999999999</ele>
        <time>2025-06-30T09:42:57Z</time>
      </trkpt>
      <trkpt lat="46.20829" lon="-1.51976">
        <ele>-0.19999999999999</ele>
        <time>2025-06-30T09:43:02Z</time>
      </trkpt>
      <trkpt lat="46.20827" lon="-1.51973">
        <ele>-0.19999999999999</ele>
        <time>2025-06-30T09:43:04Z</time>
      </trkpt>
      <trkpt lat="46.20822" lon="-1.51959">
        <ele>-0.19999999999999</ele>
        <time>2025-06-30T09:43:12Z</time>
      </trkpt>
      <trkpt lat="46.20822" lon="-1.51958">
        <ele>-0.19999999999999</ele>
        <time>2025-06-30T09:43:13Z</time>
      </trkpt>
      <trkpt lat="46.20821" lon="-1.51955">
        <ele>-0.19999999999999</ele>
        <time>2025-06-30T09:43:16Z</time>
      </trkpt>
      <trkpt lat="46.20819" lon="-1.51948">
        <ele>-0.19999999999999</ele>
        <time>2025-06-30T09:43:19Z</time>
      </trkpt>
      <trkpt lat="46.20816" lon="-1.51943">
        <ele>0.19999999999999</ele>
        <time>2025-06-30T09:43:22Z</time>
      </trkpt>
      <trkpt lat="46.20813" lon="-1.51935">
        <ele>-0.19999999999999</ele>
        <time>2025-06-30T09:43:26Z</time>
      </trkpt>
      <trkpt lat="46.20811" lon="-1.51925">
        <ele>-0.19999999999999</ele>
        <time>2025-06-30T09:43:31Z</time>
      </trkpt>
      <trkpt lat="46.20809" lon="-1.51921">
        <ele>-0.39999999999998</ele>
        <time>2025-06-30T09:43:33Z</time>
      </trkpt>
      <trkpt lat="46.20806" lon="-1.51914">
        <ele>-0.39999999999998</ele>
        <time>2025-06-30T09:43:37Z</time>
      </trkpt>
      <trkpt lat="46.20806" lon="-1.51911">
        <ele>-0.60000000000002</ele>
        <time>2025-06-30T09:43:39Z</time>
      </trkpt>
      <trkpt lat="46.20807" lon="-1.51909">
        <ele>-0.60000000000002</ele>
        <time>2025-06-30T09:43:40Z</time>
      </trkpt>
      <trkpt lat="46.20806" lon="-1.51907">
        <ele>-0.60000000000002</ele>
        <time>2025-06-30T09:43:41Z</time>
      </trkpt>
      <trkpt lat="46.20805" lon="-1.51904">
        <ele>-0.60000000000002</ele>
        <time>2025-06-30T09:43:43Z</time>
      </trkpt>
      <trkpt lat="46.20803" lon="-1.51901">
        <ele>-0.60000000000002</ele>
        <time>2025-06-30T09:43:45Z</time>
      </trkpt>
      <trkpt lat="46.20803" lon="-1.519">
        <ele>-0.60000000000002</ele>
        <time>2025-06-30T09:43:46Z</time>
      </trkpt>
      <trkpt lat="46.20803" lon="-1.51896">
        <ele>-0.60000000000002</ele>
        <time>2025-06-30T09:43:49Z</time>
      </trkpt>
      <trkpt lat="46.20803" lon="-1.51896">
        <ele>-0.60000000000002</ele>
        <time>2025-06-30T09:43:50Z</time>
      </trkpt>
      <trkpt lat="46.20801" lon="-1.51898">
        <ele>-0.60000000000002</ele>
        <time>2025-06-30T09:43:56Z</time>
      </trkpt>
      <trkpt lat="46.20802" lon="-1.51899">
        <ele>-0.39999999999998</ele>
        <time>2025-06-30T09:44:02Z</time>
      </trkpt>
      <trkpt lat="46.20798" lon="-1.51889">
        <ele>-0.60000000000002</ele>
        <time>2025-06-30T09:44:11Z</time>
      </trkpt>
      <trkpt lat="46.20794" lon="-1.51877">
        <ele>-0.60000000000002</ele>
        <time>2025-06-30T09:44:16Z</time>
      </trkpt>
      <trkpt lat="46.20794" lon="-1.51875">
        <ele>-0.60000000000002</ele>
        <time>2025-06-30T09:44:17Z</time>
      </trkpt>
      <trkpt lat="46.20793" lon="-1.5187">
        <ele>-0.60000000000002</ele>
        <time>2025-06-30T09:44:19Z</time>
      </trkpt>
      <trkpt lat="46.20793" lon="-1.51868">
        <ele>-0.60000000000002</ele>
        <time>2025-06-30T09:44:20Z</time>
      </trkpt>
      <trkpt lat="46.20793" lon="-1.51867">
        <ele>-0.39999999999998</ele>
        <time>2025-06-30T09:44:21Z</time>
      </trkpt>
      <trkpt lat="46.20792" lon="-1.51863">
        <ele>-0.39999999999998</ele>
        <time>2025-06-30T09:44:23Z</time>
      </trkpt>
      <trkpt lat="46.20792" lon="-1.51856">
        <ele>-0.39999999999998</ele>
        <time>2025-06-30T09:44:29Z</time>
      </trkpt>
      <trkpt lat="46.20793" lon="-1.51856">
        <ele>-0.39999999999998</ele>
        <time>2025-06-30T09:44:34Z</time>
      </trkpt>
      <trkpt lat="46.20793" lon="-1.51847">
        <ele>-0.39999999999998</ele>
        <time>2025-06-30T09:44:39Z</time>
      </trkpt>
      <trkpt lat="46.20793" lon="-1.51843">
        <ele>-0.39999999999998</ele>
        <time>2025-06-30T09:44:41Z</time>
      </trkpt>
      <trkpt lat="46.20792" lon="-1.51842">
        <ele>-0.39999999999998</ele>
        <time>2025-06-30T09:44:43Z</time>
      </trkpt>
      <trkpt lat="46.20791" lon="-1.51842">
        <ele>-0.19999999999999</ele>
        <time>2025-06-30T09:44:44Z</time>
      </trkpt>
      <trkpt lat="46.20791" lon="-1.51842">
        <ele>-0.19999999999999</ele>
        <time>2025-06-30T09:44:47Z</time>
      </trkpt>
      <trkpt lat="46.20793" lon="-1.51845">
        <ele>-0.19999999999999</ele>
        <time>2025-06-30T09:44:51Z</time>
      </trkpt>
      <trkpt lat="46.20793" lon="-1.51845">
        <ele>-0.19999999999999</ele>
        <time>2025-06-30T09:44:52Z</time>
      </trkpt>
      <trkpt lat="46.20792" lon="-1.5184">
        <ele>-0.19999999999999</ele>
        <time>2025-06-30T09:44:56Z</time>
      </trkpt>
      <trkpt lat="46.20792" lon="-1.51839">
        <ele>-0.19999999999999</ele>
        <time>2025-06-30T09:44:57Z</time>
      </trkpt>
      <trkpt lat="46.20791" lon="-1.51837">
        <ele>-0.19999999999999</ele>
        <time>2025-06-30T09:44:58Z</time>
      </trkpt>
      <trkpt lat="46.20791" lon="-1.51833">
        <ele>-0.39999999999998</ele>
        <time>2025-06-30T09:45:01Z</time>
      </trkpt>
      <trkpt lat="46.20792" lon="-1.51832">
        <ele>-0.19999999999999</ele>
        <time>2025-06-30T09:45:06Z</time>
      </trkpt>
      <trkpt lat="46.2079" lon="-1.51831">
        <ele>-0.19999999999999</ele>
        <time>2025-06-30T09:45:10Z</time>
      </trkpt>
      <trkpt lat="46.20789" lon="-1.51824">
        <ele>-0.19999999999999</ele>
        <time>2025-06-30T09:45:16Z</time>
      </trkpt>
      <trkpt lat="46.20787" lon="-1.51813">
        <ele>-0.19999999999999</ele>
        <time>2025-06-30T09:45:21Z</time>
      </trkpt>
      <trkpt lat="46.20787" lon="-1.51807">
        <ele>-0.19999999999999</ele>
        <time>2025-06-30T09:45:24Z</time>
      </trkpt>
      <trkpt lat="46.20787" lon="-1.51804">
        <ele>-0.19999999999999</ele>
        <time>2025-06-30T09:45:26Z</time>
      </trkpt>
      <trkpt lat="46.20786" lon="-1.51798">
        <ele>-0.19999999999999</ele>
        <time>2025-06-30T09:45:29Z</time>
      </trkpt>
      <trkpt lat="46.20786" lon="-1.51789">
        <ele>-0.19999999999999</ele>
        <time>2025-06-30T09:45:33Z</time>
      </trkpt>
      <trkpt lat="46.20784" lon="-1.51784">
        <ele>-0.19999999999999</ele>
        <time>2025-06-30T09:45:35Z</time>
      </trkpt>
      <trkpt lat="46.2078" lon="-1.51777">
        <ele>-0.19999999999999</ele>
        <time>2025-06-30T09:45:39Z</time>
      </trkpt>
      <trkpt lat="46.2078" lon="-1.51775">
        <ele>-0.19999999999999</ele>
        <time>2025-06-30T09:45:40Z</time>
      </trkpt>
      <trkpt lat="46.20779" lon="-1.51758">
        <ele>-0.19999999999999</ele>
        <time>2025-06-30T09:45:49Z</time>
      </trkpt>
      <trkpt lat="46.20776" lon="-1.51738">
        <ele>-0.19999999999999</ele>
        <time>2025-06-30T09:45:59Z</time>
      </trkpt>
      <trkpt lat="46.20775" lon="-1.51734">
        <ele>-0.19999999999999</ele>
        <time>2025-06-30T09:46:02Z</time>
      </trkpt>
      <trkpt lat="46.20772" lon="-1.5173">
        <ele>-0.19999999999999</ele>
        <time>2025-06-30T09:46:05Z</time>
      </trkpt>
      <trkpt lat="46.20768" lon="-1.51723">
        <ele>0.39999999999998</ele>
        <time>2025-06-30T09:46:10Z</time>
      </trkpt>
      <trkpt lat="46.20764" lon="-1.5172">
        <ele>0.19999999999999</ele>
        <time>2025-06-30T09:46:13Z</time>
      </trkpt>
      <trkpt lat="46.20755" lon="-1.51707">
        <ele>0.39999999999998</ele>
        <time>2025-06-30T09:46:22Z</time>
      </trkpt>
      <trkpt lat="46.20749" lon="-1.51701">
        <ele>0.80000000000001</ele>
        <time>2025-06-30T09:46:27Z</time>
      </trkpt>
      <trkpt lat="46.20748" lon="-1.51701">
        <ele>0.80000000000001</ele>
        <time>2025-06-30T09:46:28Z</time>
      </trkpt>
      <trkpt lat="46.20747" lon="-1.517">
        <ele>0.80000000000001</ele>
        <time>2025-06-30T09:46:29Z</time>
      </trkpt>
      <trkpt lat="46.20742" lon="-1.51694">
        <ele>0.60000000000002</ele>
        <time>2025-06-30T09:46:34Z</time>
      </trkpt>
      <trkpt lat="46.20742" lon="-1.51693">
        <ele>0.60000000000002</ele>
        <time>2025-06-30T09:46:35Z</time>
      </trkpt>
      <trkpt lat="46.20743" lon="-1.5169">
        <ele>0.60000000000002</ele>
        <time>2025-06-30T09:46:37Z</time>
      </trkpt>
      <trkpt lat="46.20749" lon="-1.51684">
        <ele>0.60000000000002</ele>
        <time>2025-06-30T09:46:41Z</time>
      </trkpt>
      <trkpt lat="46.20749" lon="-1.51683">
        <ele>0.60000000000002</ele>
        <time>2025-06-30T09:46:42Z</time>
      </trkpt>
      <trkpt lat="46.20752" lon="-1.51675">
        <ele>0.60000000000002</ele>
        <time>2025-06-30T09:46:47Z</time>
      </trkpt>
      <trkpt lat="46.20753" lon="-1.51673">
        <ele>0.60000000000002</ele>
        <time>2025-06-30T09:46:48Z</time>
      </trkpt>
      <trkpt lat="46.20752" lon="-1.51671">
        <ele>0.60000000000002</ele>
        <time>2025-06-30T09:46:49Z</time>
      </trkpt>
      <trkpt lat="46.20749" lon="-1.51668">
        <ele>0.60000000000002</ele>
        <time>2025-06-30T09:46:52Z</time>
      </trkpt>
      <trkpt lat="46.20747" lon="-1.51666">
        <ele>0.39999999999998</ele>
        <time>2025-06-30T09:46:54Z</time>
      </trkpt>
      <trkpt lat="46.20748" lon="-1.51661">
        <ele>0.39999999999998</ele>
        <time>2025-06-30T09:46:56Z</time>
      </trkpt>
      <trkpt lat="46.20748" lon="-1.51657">
        <ele>0.39999999999998</ele>
        <time>2025-06-30T09:46:59Z</time>
      </trkpt>
      <trkpt lat="46.20747" lon="-1.51657">
        <ele>0.19999999999999</ele>
        <time>2025-06-30T09:47:01Z</time>
      </trkpt>
      <trkpt lat="46.20746" lon="-1.51656">
        <ele>0.19999999999999</ele>
        <time>2025-06-30T09:47:03Z</time>
      </trkpt>
      <trkpt lat="46.20744" lon="-1.51656">
        <ele>0.19999999999999</ele>
        <time>2025-06-30T09:47:05Z</time>
      </trkpt>
      <trkpt lat="46.20741" lon="-1.51653">
        <ele>1</ele>
        <time>2025-06-30T09:47:10Z</time>
      </trkpt>
      <trkpt lat="46.20741" lon="-1.51648">
        <ele>0.80000000000001</ele>
        <time>2025-06-30T09:47:13Z</time>
      </trkpt>
      <trkpt lat="46.20742" lon="-1.51643">
        <ele>0.60000000000002</ele>
        <time>2025-06-30T09:47:16Z</time>
      </trkpt>
      <trkpt lat="46.20743" lon="-1.51636">
        <ele>0.60000000000002</ele>
        <time>2025-06-30T09:47:20Z</time>
      </trkpt>
      <trkpt lat="46.20743" lon="-1.51634">
        <ele>0.39999999999998</ele>
        <time>2025-06-30T09:47:22Z</time>
      </trkpt>
      <trkpt lat="46.20744" lon="-1.51635">
        <ele>0.39999999999998</ele>
        <time>2025-06-30T09:47:25Z</time>
      </trkpt>
      <trkpt lat="46.20745" lon="-1.51634">
        <ele>0.60000000000002</ele>
        <time>2025-06-30T09:47:29Z</time>
      </trkpt>
      <trkpt lat="46.20745" lon="-1.51632">
        <ele>0.80000000000001</ele>
        <time>2025-06-30T09:47:34Z</time>
      </trkpt>
      <trkpt lat="46.20745" lon="-1.51631">
        <ele>0.80000000000001</ele>
        <time>2025-06-30T09:47:37Z</time>
      </trkpt>
      <trkpt lat="46.20745" lon="-1.51631">
        <ele>0.60000000000002</ele>
        <time>2025-06-30T09:47:39Z</time>
      </trkpt>
      <trkpt lat="46.20749" lon="-1.51628">
        <ele>0.39999999999998</ele>
        <time>2025-06-30T09:47:46Z</time>
      </trkpt>
      <trkpt lat="46.20756" lon="-1.51618">
        <ele>0.80000000000001</ele>
        <time>2025-06-30T09:47:53Z</time>
      </trkpt>
      <trkpt lat="46.20757" lon="-1.51617">
        <ele>0.60000000000002</ele>
        <time>2025-06-30T09:47:54Z</time>
      </trkpt>
      <trkpt lat="46.20762" lon="-1.51613">
        <ele>0.60000000000002</ele>
        <time>2025-06-30T09:47:58Z</time>
      </trkpt>
      <trkpt lat="46.20764" lon="-1.51612">
        <ele>0.39999999999998</ele>
        <time>2025-06-30T09:47:59Z</time>
      </trkpt>
      <trkpt lat="46.2077" lon="-1.51604">
        <ele>0.39999999999998</ele>
        <time>2025-06-30T09:48:06Z</time>
      </trkpt>
      <trkpt lat="46.20781" lon="-1.51603">
        <ele>0.19999999999999</ele>
        <time>2025-06-30T09:48:15Z</time>
      </trkpt>
      <trkpt lat="46.20787" lon="-1.51602">
        <ele>0.19999999999999</ele>
        <time>2025-06-30T09:48:19Z</time>
      </trkpt>
      <trkpt lat="46.20789" lon="-1.51602">
        <ele>0.19999999999999</ele>
        <time>2025-06-30T09:48:20Z</time>
      </trkpt>
      <trkpt lat="46.20792" lon="-1.51602">
        <ele>0.19999999999999</ele>
        <time>2025-06-30T09:48:23Z</time>
      </trkpt>
      <trkpt lat="46.20794" lon="-1.51601">
        <ele>0.19999999999999</ele>
        <time>2025-06-30T09:48:25Z</time>
      </trkpt>
      <trkpt lat="46.20795" lon="-1.516">
        <ele>0.19999999999999</ele>
        <time>2025-06-30T09:48:27Z</time>
      </trkpt>
      <trkpt lat="46.20794" lon="-1.51599">
        <ele>0.19999999999999</ele>
        <time>2025-06-30T09:48:28Z</time>
      </trkpt>
      <trkpt lat="46.20793" lon="-1.51595">
        <ele>-0.39999999999998</ele>
        <time>2025-06-30T09:48:30Z</time>
      </trkpt>
      <trkpt lat="46.20789" lon="-1.51586">
        <ele>-0.80000000000001</ele>
        <time>2025-06-30T09:48:36Z</time>
      </trkpt>
      <trkpt lat="46.20787" lon="-1.51581">
        <ele>-0.60000000000002</ele>
        <time>2025-06-30T09:48:39Z</time>
      </trkpt>
      <trkpt lat="46.20785" lon="-1.51581">
        <ele>-0.60000000000002</ele>
        <time>2025-06-30T09:48:41Z</time>
      </trkpt>
      <trkpt lat="46.20783" lon="-1.51582">
        <ele>-0.39999999999998</ele>
        <time>2025-06-30T09:48:42Z</time>
      </trkpt>
      <trkpt lat="46.20821" lon="-1.51548">
        <ele>1.2</ele>
        <time>2025-06-30T09:50:21Z</time>
      </trkpt>
      <trkpt lat="46.20785" lon="-1.51594">
        <ele>1.4</ele>
        <time>2025-06-30T09:50:22Z</time>
      </trkpt>
      <trkpt lat="46.20776" lon="-1.51597">
        <ele>1.8</ele>
        <time>2025-06-30T09:50:26Z</time>
      </trkpt>
      <trkpt lat="46.20781" lon="-1.51593">
        <ele>1.8</ele>
        <time>2025-06-30T09:50:34Z</time>
      </trkpt>
      <trkpt lat="46.20784" lon="-1.51591">
        <ele>1.8</ele>
        <time>2025-06-30T09:50:37Z</time>
      </trkpt>
      <trkpt lat="46.20786" lon="-1.51595">
        <ele>1.8</ele>
        <time>2025-06-30T09:50:41Z</time>
      </trkpt>
      <trkpt lat="46.20791" lon="-1.51598">
        <ele>1.6</ele>
        <time>2025-06-30T09:50:46Z</time>
      </trkpt>
      <trkpt lat="46.20798" lon="-1.51592">
        <ele>1.8</ele>
        <time>2025-06-30T09:50:52Z</time>
      </trkpt>
      <trkpt lat="46.20797" lon="-1.51588">
        <ele>1.8</ele>
        <time>2025-06-30T09:50:55Z</time>
      </trkpt>
      <trkpt lat="46.20798" lon="-1.51583">
        <ele>1.8</ele>
        <time>2025-06-30T09:50:58Z</time>
      </trkpt>
      <trkpt lat="46.20796" lon="-1.5158">
        <ele>1.8</ele>
        <time>2025-06-30T09:51:03Z</time>
      </trkpt>
      <trkpt lat="46.20796" lon="-1.51579">
        <ele>2</ele>
        <time>2025-06-30T09:51:04Z</time>
      </trkpt>
      <trkpt lat="46.20797" lon="-1.51573">
        <ele>2.4</ele>
        <time>2025-06-30T09:51:07Z</time>
      </trkpt>
      <trkpt lat="46.20795" lon="-1.51565">
        <ele>2.4</ele>
        <time>2025-06-30T09:51:12Z</time>
      </trkpt>
      <trkpt lat="46.20794" lon="-1.51552">
        <ele>3.4</ele>
        <time>2025-06-30T09:51:20Z</time>
      </trkpt>
      <trkpt lat="46.20794" lon="-1.51551">
        <ele>3.4</ele>
        <time>2025-06-30T09:51:21Z</time>
      </trkpt>
      <trkpt lat="46.20792" lon="-1.51543">
        <ele>3.2</ele>
        <time>2025-06-30T09:51:26Z</time>
      </trkpt>
      <trkpt lat="46.20792" lon="-1.51539">
        <ele>3.2</ele>
        <time>2025-06-30T09:51:29Z</time>
      </trkpt>
      <trkpt lat="46.20792" lon="-1.51538">
        <ele>3.2</ele>
        <time>2025-06-30T09:51:30Z</time>
      </trkpt>
    </trkseg>
  </trk>
</gpx>